<?xml version="1.0" encoding="UTF-8" standalone="no" ?>
<gpx xmlns="http://www.topografix.com/GPX/1/1" xmlns:xsi="http://www.w3.org/2001/XMLSchema-instance" xsi:schemaLocation="http://www.topografix.com/GPX/1/1 http://www.topografix.com/GPX/1/1/gpx.xsd" version="1.1" creator="VisuGPX - https://www.visugpx.com">
  <metadata>
    <name>Trail des piqueurs 2013 : tracé du 21 km</name>
    <desc><![CDATA[tracé du 21 km du trail des piqueurs 2013]]></desc>
  </metadata>
  <trk>
    <name><![CDATA[2012-08-23T06:42:16Z]]></name>
    <trkseg>
      <trkpt lat="45.65552" lon="3.43401">
        <ele>628.8395996</ele>
        <time>2012-08-23T06:42:16Z</time>
      </trkpt>
      <trkpt lat="45.65552" lon="3.43401">
        <ele>628.8395996</ele>
        <time>2012-08-23T06:42:17Z</time>
      </trkpt>
      <trkpt lat="45.6555" lon="3.43408">
        <ele>627.8781738</ele>
        <time>2012-08-23T06:42:23Z</time>
      </trkpt>
      <trkpt lat="45.65544" lon="3.43424">
        <ele>624.9943848</ele>
        <time>2012-08-23T06:42:30Z</time>
      </trkpt>
      <trkpt lat="45.65543" lon="3.43427">
        <ele>624.032959</ele>
        <time>2012-08-23T06:42:31Z</time>
      </trkpt>
      <trkpt lat="45.65532" lon="3.43448">
        <ele>622.5910645</ele>
        <time>2012-08-23T06:42:39Z</time>
      </trkpt>
      <trkpt lat="45.65526" lon="3.43458">
        <ele>622.5910645</ele>
        <time>2012-08-23T06:42:43Z</time>
      </trkpt>
      <trkpt lat="45.65522" lon="3.43473">
        <ele>622.5910645</ele>
        <time>2012-08-23T06:42:48Z</time>
      </trkpt>
      <trkpt lat="45.6552" lon="3.43493">
        <ele>621.1491699</ele>
        <time>2012-08-23T06:42:55Z</time>
      </trkpt>
      <trkpt lat="45.65522" lon="3.43507">
        <ele>620.1877441</ele>
        <time>2012-08-23T06:43:00Z</time>
      </trkpt>
      <trkpt lat="45.65526" lon="3.43522">
        <ele>621.1491699</ele>
        <time>2012-08-23T06:43:05Z</time>
      </trkpt>
      <trkpt lat="45.65528" lon="3.43526">
        <ele>621.6296387</ele>
        <time>2012-08-23T06:43:07Z</time>
      </trkpt>
      <trkpt lat="45.65536" lon="3.43543">
        <ele>625.4748535</ele>
        <time>2012-08-23T06:43:14Z</time>
      </trkpt>
      <trkpt lat="45.65542" lon="3.43555">
        <ele>625.9555664</ele>
        <time>2012-08-23T06:43:19Z</time>
      </trkpt>
      <trkpt lat="45.65551" lon="3.43571">
        <ele>626.4362793</ele>
        <time>2012-08-23T06:43:26Z</time>
      </trkpt>
      <trkpt lat="45.65553" lon="3.43579">
        <ele>626.9169922</ele>
        <time>2012-08-23T06:43:29Z</time>
      </trkpt>
      <trkpt lat="45.65555" lon="3.43587">
        <ele>625.9555664</ele>
        <time>2012-08-23T06:43:33Z</time>
      </trkpt>
      <trkpt lat="45.65556" lon="3.43595">
        <ele>625.9555664</ele>
        <time>2012-08-23T06:43:36Z</time>
      </trkpt>
      <trkpt lat="45.65557" lon="3.43615">
        <ele>624.5136719</ele>
        <time>2012-08-23T06:43:43Z</time>
      </trkpt>
      <trkpt lat="45.65557" lon="3.43635">
        <ele>624.032959</ele>
        <time>2012-08-23T06:43:50Z</time>
      </trkpt>
      <trkpt lat="45.65556" lon="3.4365">
        <ele>624.9943848</ele>
        <time>2012-08-23T06:43:55Z</time>
      </trkpt>
      <trkpt lat="45.65555" lon="3.43668">
        <ele>626.9169922</ele>
        <time>2012-08-23T06:44:01Z</time>
      </trkpt>
      <trkpt lat="45.65556" lon="3.43685">
        <ele>629.8007813</ele>
        <time>2012-08-23T06:44:06Z</time>
      </trkpt>
      <trkpt lat="45.65555" lon="3.43706">
        <ele>630.762207</ele>
        <time>2012-08-23T06:44:12Z</time>
      </trkpt>
      <trkpt lat="45.65553" lon="3.43717">
        <ele>631.2429199</ele>
        <time>2012-08-23T06:44:16Z</time>
      </trkpt>
      <trkpt lat="45.65548" lon="3.43732">
        <ele>633.6459961</ele>
        <time>2012-08-23T06:44:21Z</time>
      </trkpt>
      <trkpt lat="45.65542" lon="3.43748">
        <ele>633.1652832</ele>
        <time>2012-08-23T06:44:26Z</time>
      </trkpt>
      <trkpt lat="45.6554" lon="3.43751">
        <ele>633.1652832</ele>
        <time>2012-08-23T06:44:27Z</time>
      </trkpt>
      <trkpt lat="45.65528" lon="3.43769">
        <ele>629.8007813</ele>
        <time>2012-08-23T06:44:34Z</time>
      </trkpt>
      <trkpt lat="45.65519" lon="3.43782">
        <ele>629.8007813</ele>
        <time>2012-08-23T06:44:39Z</time>
      </trkpt>
      <trkpt lat="45.65514" lon="3.43802">
        <ele>630.762207</ele>
        <time>2012-08-23T06:44:45Z</time>
      </trkpt>
      <trkpt lat="45.65513" lon="3.43806">
        <ele>630.2814941</ele>
        <time>2012-08-23T06:44:46Z</time>
      </trkpt>
      <trkpt lat="45.65509" lon="3.43816">
        <ele>628.3588867</ele>
        <time>2012-08-23T06:44:49Z</time>
      </trkpt>
      <trkpt lat="45.65502" lon="3.43834">
        <ele>626.4362793</ele>
        <time>2012-08-23T06:44:55Z</time>
      </trkpt>
      <trkpt lat="45.65501" lon="3.43853">
        <ele>626.4362793</ele>
        <time>2012-08-23T06:45:00Z</time>
      </trkpt>
      <trkpt lat="45.65502" lon="3.43869">
        <ele>624.9943848</ele>
        <time>2012-08-23T06:45:04Z</time>
      </trkpt>
      <trkpt lat="45.65505" lon="3.43888">
        <ele>622.1103516</ele>
        <time>2012-08-23T06:45:09Z</time>
      </trkpt>
      <trkpt lat="45.65506" lon="3.43907">
        <ele>620.1877441</ele>
        <time>2012-08-23T06:45:14Z</time>
      </trkpt>
      <trkpt lat="45.65506" lon="3.43922">
        <ele>618.7456055</ele>
        <time>2012-08-23T06:45:18Z</time>
      </trkpt>
      <trkpt lat="45.65506" lon="3.43937">
        <ele>617.7841797</ele>
        <time>2012-08-23T06:45:22Z</time>
      </trkpt>
      <trkpt lat="45.65505" lon="3.43956">
        <ele>616.3422852</ele>
        <time>2012-08-23T06:45:27Z</time>
      </trkpt>
      <trkpt lat="45.65499" lon="3.43973">
        <ele>615.3811035</ele>
        <time>2012-08-23T06:45:32Z</time>
      </trkpt>
      <trkpt lat="45.65493" lon="3.43985">
        <ele>613.4584961</ele>
        <time>2012-08-23T06:45:36Z</time>
      </trkpt>
      <trkpt lat="45.65483" lon="3.43999">
        <ele>612.9777832</ele>
        <time>2012-08-23T06:45:41Z</time>
      </trkpt>
      <trkpt lat="45.65475" lon="3.44013">
        <ele>612.4970703</ele>
        <time>2012-08-23T06:45:46Z</time>
      </trkpt>
      <trkpt lat="45.65463" lon="3.44031">
        <ele>612.0166016</ele>
        <time>2012-08-23T06:45:52Z</time>
      </trkpt>
      <trkpt lat="45.65451" lon="3.44041">
        <ele>611.5358887</ele>
        <time>2012-08-23T06:45:57Z</time>
      </trkpt>
      <trkpt lat="45.65443" lon="3.44046">
        <ele>611.5358887</ele>
        <time>2012-08-23T06:46:01Z</time>
      </trkpt>
      <trkpt lat="45.65438" lon="3.44052">
        <ele>612.4970703</ele>
        <time>2012-08-23T06:46:04Z</time>
      </trkpt>
      <trkpt lat="45.65432" lon="3.44068">
        <ele>609.6132813</ele>
        <time>2012-08-23T06:46:10Z</time>
      </trkpt>
      <trkpt lat="45.65431" lon="3.44083">
        <ele>604.3261719</ele>
        <time>2012-08-23T06:46:15Z</time>
      </trkpt>
      <trkpt lat="45.65432" lon="3.44099">
        <ele>599.0385742</ele>
        <time>2012-08-23T06:46:19Z</time>
      </trkpt>
      <trkpt lat="45.65429" lon="3.44117">
        <ele>593.270752</ele>
        <time>2012-08-23T06:46:24Z</time>
      </trkpt>
      <trkpt lat="45.65428" lon="3.4413">
        <ele>590.3869629</ele>
        <time>2012-08-23T06:46:28Z</time>
      </trkpt>
      <trkpt lat="45.65428" lon="3.44133">
        <ele>589.4255371</ele>
        <time>2012-08-23T06:46:29Z</time>
      </trkpt>
      <trkpt lat="45.65426" lon="3.4415">
        <ele>587.5026855</ele>
        <time>2012-08-23T06:46:34Z</time>
      </trkpt>
      <trkpt lat="45.65426" lon="3.4415">
        <ele>587.0219727</ele>
        <time>2012-08-23T06:46:35Z</time>
      </trkpt>
      <trkpt lat="45.65415" lon="3.44155">
        <ele>589.90625</ele>
        <time>2012-08-23T06:46:41Z</time>
      </trkpt>
      <trkpt lat="45.65417" lon="3.44165">
        <ele>586.5415039</ele>
        <time>2012-08-23T06:46:46Z</time>
      </trkpt>
      <trkpt lat="45.65431" lon="3.44179">
        <ele>583.6574707</ele>
        <time>2012-08-23T06:46:52Z</time>
      </trkpt>
      <trkpt lat="45.65436" lon="3.44187">
        <ele>581.7348633</ele>
        <time>2012-08-23T06:46:56Z</time>
      </trkpt>
      <trkpt lat="45.6544" lon="3.44195">
        <ele>581.2543945</ele>
        <time>2012-08-23T06:46:59Z</time>
      </trkpt>
      <trkpt lat="45.65451" lon="3.44215">
        <ele>585.0996094</ele>
        <time>2012-08-23T06:47:05Z</time>
      </trkpt>
      <trkpt lat="45.6546" lon="3.44228">
        <ele>593.270752</ele>
        <time>2012-08-23T06:47:11Z</time>
      </trkpt>
      <trkpt lat="45.65463" lon="3.44233">
        <ele>595.1933594</ele>
        <time>2012-08-23T06:47:14Z</time>
      </trkpt>
      <trkpt lat="45.65467" lon="3.44244">
        <ele>594.7126465</ele>
        <time>2012-08-23T06:47:20Z</time>
      </trkpt>
      <trkpt lat="45.6547" lon="3.44248">
        <ele>594.7126465</ele>
        <time>2012-08-23T06:47:22Z</time>
      </trkpt>
      <trkpt lat="45.65476" lon="3.44252">
        <ele>597.1159668</ele>
        <time>2012-08-23T06:47:25Z</time>
      </trkpt>
      <trkpt lat="45.65487" lon="3.44262">
        <ele>599.0385742</ele>
        <time>2012-08-23T06:47:31Z</time>
      </trkpt>
      <trkpt lat="45.65498" lon="3.44271">
        <ele>602.4030762</ele>
        <time>2012-08-23T06:47:37Z</time>
      </trkpt>
      <trkpt lat="45.65505" lon="3.4428">
        <ele>604.3261719</ele>
        <time>2012-08-23T06:47:42Z</time>
      </trkpt>
      <trkpt lat="45.65511" lon="3.44292">
        <ele>602.4030762</ele>
        <time>2012-08-23T06:47:48Z</time>
      </trkpt>
      <trkpt lat="45.65511" lon="3.44294">
        <ele>601.9226074</ele>
        <time>2012-08-23T06:47:49Z</time>
      </trkpt>
      <trkpt lat="45.65514" lon="3.4431">
        <ele>596.635498</ele>
        <time>2012-08-23T06:47:55Z</time>
      </trkpt>
      <trkpt lat="45.65514" lon="3.44319">
        <ele>594.7126465</ele>
        <time>2012-08-23T06:47:58Z</time>
      </trkpt>
      <trkpt lat="45.65514" lon="3.44322">
        <ele>593.7514648</ele>
        <time>2012-08-23T06:47:59Z</time>
      </trkpt>
      <trkpt lat="45.6551" lon="3.44342">
        <ele>588.4643555</ele>
        <time>2012-08-23T06:48:06Z</time>
      </trkpt>
      <trkpt lat="45.65505" lon="3.44355">
        <ele>584.6188965</ele>
        <time>2012-08-23T06:48:11Z</time>
      </trkpt>
      <trkpt lat="45.65502" lon="3.44367">
        <ele>582.6962891</ele>
        <time>2012-08-23T06:48:15Z</time>
      </trkpt>
      <trkpt lat="45.655" lon="3.44372">
        <ele>582.6962891</ele>
        <time>2012-08-23T06:48:17Z</time>
      </trkpt>
      <trkpt lat="45.65489" lon="3.44387">
        <ele>579.331543</ele>
        <time>2012-08-23T06:48:24Z</time>
      </trkpt>
      <trkpt lat="45.65483" lon="3.444">
        <ele>582.6962891</ele>
        <time>2012-08-23T06:48:29Z</time>
      </trkpt>
      <trkpt lat="45.65476" lon="3.44417">
        <ele>585.0996094</ele>
        <time>2012-08-23T06:48:36Z</time>
      </trkpt>
      <trkpt lat="45.65473" lon="3.44428">
        <ele>587.5026855</ele>
        <time>2012-08-23T06:48:42Z</time>
      </trkpt>
      <trkpt lat="45.65472" lon="3.44443">
        <ele>592.3095703</ele>
        <time>2012-08-23T06:48:49Z</time>
      </trkpt>
      <trkpt lat="45.65473" lon="3.4446">
        <ele>600</ele>
        <time>2012-08-23T06:48:57Z</time>
      </trkpt>
      <trkpt lat="45.65473" lon="3.44476">
        <ele>604.3261719</ele>
        <time>2012-08-23T06:49:05Z</time>
      </trkpt>
      <trkpt lat="45.65471" lon="3.44488">
        <ele>604.8066406</ele>
        <time>2012-08-23T06:49:11Z</time>
      </trkpt>
      <trkpt lat="45.65472" lon="3.44503">
        <ele>607.6906738</ele>
        <time>2012-08-23T06:49:18Z</time>
      </trkpt>
      <trkpt lat="45.6547" lon="3.44519">
        <ele>606.2485352</ele>
        <time>2012-08-23T06:49:23Z</time>
      </trkpt>
      <trkpt lat="45.65466" lon="3.44535">
        <ele>605.2873535</ele>
        <time>2012-08-23T06:49:28Z</time>
      </trkpt>
      <trkpt lat="45.65457" lon="3.44553">
        <ele>604.8066406</ele>
        <time>2012-08-23T06:49:34Z</time>
      </trkpt>
      <trkpt lat="45.65448" lon="3.44563">
        <ele>604.3261719</ele>
        <time>2012-08-23T06:49:38Z</time>
      </trkpt>
      <trkpt lat="45.65435" lon="3.44576">
        <ele>602.4030762</ele>
        <time>2012-08-23T06:49:44Z</time>
      </trkpt>
      <trkpt lat="45.65419" lon="3.44588">
        <ele>599.0385742</ele>
        <time>2012-08-23T06:49:51Z</time>
      </trkpt>
      <trkpt lat="45.65407" lon="3.44598">
        <ele>596.1547852</ele>
        <time>2012-08-23T06:49:56Z</time>
      </trkpt>
      <trkpt lat="45.65394" lon="3.44608">
        <ele>593.7514648</ele>
        <time>2012-08-23T06:50:01Z</time>
      </trkpt>
      <trkpt lat="45.65382" lon="3.44619">
        <ele>589.4255371</ele>
        <time>2012-08-23T06:50:06Z</time>
      </trkpt>
      <trkpt lat="45.65369" lon="3.44628">
        <ele>587.5026855</ele>
        <time>2012-08-23T06:50:11Z</time>
      </trkpt>
      <trkpt lat="45.65357" lon="3.44635">
        <ele>584.1381836</ele>
        <time>2012-08-23T06:50:16Z</time>
      </trkpt>
      <trkpt lat="45.65344" lon="3.44644">
        <ele>580.7736816</ele>
        <time>2012-08-23T06:50:21Z</time>
      </trkpt>
      <trkpt lat="45.65332" lon="3.44655">
        <ele>579.8122559</ele>
        <time>2012-08-23T06:50:26Z</time>
      </trkpt>
      <trkpt lat="45.6532" lon="3.44667">
        <ele>581.2543945</ele>
        <time>2012-08-23T06:50:31Z</time>
      </trkpt>
      <trkpt lat="45.65311" lon="3.4468">
        <ele>581.2543945</ele>
        <time>2012-08-23T06:50:36Z</time>
      </trkpt>
      <trkpt lat="45.65304" lon="3.44695">
        <ele>580.2929688</ele>
        <time>2012-08-23T06:50:40Z</time>
      </trkpt>
      <trkpt lat="45.65299" lon="3.44707">
        <ele>579.331543</ele>
        <time>2012-08-23T06:50:43Z</time>
      </trkpt>
      <trkpt lat="45.653" lon="3.44725">
        <ele>575.967041</ele>
        <time>2012-08-23T06:50:48Z</time>
      </trkpt>
      <trkpt lat="45.65303" lon="3.4474">
        <ele>575.4863281</ele>
        <time>2012-08-23T06:50:52Z</time>
      </trkpt>
      <trkpt lat="45.65303" lon="3.44753">
        <ele>575.0058594</ele>
        <time>2012-08-23T06:50:55Z</time>
      </trkpt>
      <trkpt lat="45.65301" lon="3.44783">
        <ele>575.0058594</ele>
        <time>2012-08-23T06:51:02Z</time>
      </trkpt>
      <trkpt lat="45.65301" lon="3.448">
        <ele>575.0058594</ele>
        <time>2012-08-23T06:51:06Z</time>
      </trkpt>
      <trkpt lat="45.65301" lon="3.44821">
        <ele>574.0444336</ele>
        <time>2012-08-23T06:51:11Z</time>
      </trkpt>
      <trkpt lat="45.65304" lon="3.44835">
        <ele>574.0444336</ele>
        <time>2012-08-23T06:51:15Z</time>
      </trkpt>
      <trkpt lat="45.65312" lon="3.44854">
        <ele>573.5639648</ele>
        <time>2012-08-23T06:51:21Z</time>
      </trkpt>
      <trkpt lat="45.65315" lon="3.4486">
        <ele>573.5639648</ele>
        <time>2012-08-23T06:51:23Z</time>
      </trkpt>
      <trkpt lat="45.65315" lon="3.44866">
        <ele>574.0444336</ele>
        <time>2012-08-23T06:51:25Z</time>
      </trkpt>
      <trkpt lat="45.65319" lon="3.44878">
        <ele>574.5251465</ele>
        <time>2012-08-23T06:51:30Z</time>
      </trkpt>
      <trkpt lat="45.65321" lon="3.44886">
        <ele>575.967041</ele>
        <time>2012-08-23T06:51:34Z</time>
      </trkpt>
      <trkpt lat="45.65322" lon="3.44889">
        <ele>576.4477539</ele>
        <time>2012-08-23T06:51:36Z</time>
      </trkpt>
      <trkpt lat="45.65325" lon="3.44905">
        <ele>577.4091797</ele>
        <time>2012-08-23T06:51:44Z</time>
      </trkpt>
      <trkpt lat="45.65327" lon="3.44916">
        <ele>579.331543</ele>
        <time>2012-08-23T06:51:50Z</time>
      </trkpt>
      <trkpt lat="45.6533" lon="3.44929">
        <ele>580.2929688</ele>
        <time>2012-08-23T06:51:57Z</time>
      </trkpt>
      <trkpt lat="45.6533" lon="3.44933">
        <ele>580.7736816</ele>
        <time>2012-08-23T06:51:59Z</time>
      </trkpt>
      <trkpt lat="45.65332" lon="3.44946">
        <ele>580.2929688</ele>
        <time>2012-08-23T06:52:04Z</time>
      </trkpt>
      <trkpt lat="45.65343" lon="3.44959">
        <ele>579.331543</ele>
        <time>2012-08-23T06:52:10Z</time>
      </trkpt>
      <trkpt lat="45.65346" lon="3.4496">
        <ele>578.8510742</ele>
        <time>2012-08-23T06:52:11Z</time>
      </trkpt>
      <trkpt lat="45.65362" lon="3.44972">
        <ele>576.4477539</ele>
        <time>2012-08-23T06:52:18Z</time>
      </trkpt>
      <trkpt lat="45.65374" lon="3.44986">
        <ele>574.5251465</ele>
        <time>2012-08-23T06:52:24Z</time>
      </trkpt>
      <trkpt lat="45.65383" lon="3.44994">
        <ele>573.083252</ele>
        <time>2012-08-23T06:52:29Z</time>
      </trkpt>
      <trkpt lat="45.65388" lon="3.44998">
        <ele>573.5639648</ele>
        <time>2012-08-23T06:52:33Z</time>
      </trkpt>
      <trkpt lat="45.65409" lon="3.45008">
        <ele>573.083252</ele>
        <time>2012-08-23T06:52:41Z</time>
      </trkpt>
      <trkpt lat="45.65423" lon="3.45012">
        <ele>574.5251465</ele>
        <time>2012-08-23T06:52:47Z</time>
      </trkpt>
      <trkpt lat="45.65437" lon="3.45014">
        <ele>575.0058594</ele>
        <time>2012-08-23T06:52:53Z</time>
      </trkpt>
      <trkpt lat="45.6545" lon="3.45017">
        <ele>575.967041</ele>
        <time>2012-08-23T06:52:59Z</time>
      </trkpt>
      <trkpt lat="45.65463" lon="3.4502">
        <ele>576.4477539</ele>
        <time>2012-08-23T06:53:04Z</time>
      </trkpt>
      <trkpt lat="45.65475" lon="3.45024">
        <ele>576.9284668</ele>
        <time>2012-08-23T06:53:09Z</time>
      </trkpt>
      <trkpt lat="45.65483" lon="3.45026">
        <ele>577.4091797</ele>
        <time>2012-08-23T06:53:12Z</time>
      </trkpt>
      <trkpt lat="45.65491" lon="3.45028">
        <ele>578.8510742</ele>
        <time>2012-08-23T06:53:16Z</time>
      </trkpt>
      <trkpt lat="45.65503" lon="3.45034">
        <ele>580.2929688</ele>
        <time>2012-08-23T06:53:21Z</time>
      </trkpt>
      <trkpt lat="45.65515" lon="3.4504">
        <ele>579.8122559</ele>
        <time>2012-08-23T06:53:26Z</time>
      </trkpt>
      <trkpt lat="45.65522" lon="3.45045">
        <ele>579.331543</ele>
        <time>2012-08-23T06:53:29Z</time>
      </trkpt>
      <trkpt lat="45.65533" lon="3.45051">
        <ele>578.3703613</ele>
        <time>2012-08-23T06:53:34Z</time>
      </trkpt>
      <trkpt lat="45.65543" lon="3.45061">
        <ele>577.4091797</ele>
        <time>2012-08-23T06:53:39Z</time>
      </trkpt>
      <trkpt lat="45.65559" lon="3.45075">
        <ele>575.0058594</ele>
        <time>2012-08-23T06:53:46Z</time>
      </trkpt>
      <trkpt lat="45.65571" lon="3.45087">
        <ele>572.6025391</ele>
        <time>2012-08-23T06:53:52Z</time>
      </trkpt>
      <trkpt lat="45.65582" lon="3.45097">
        <ele>571.6408691</ele>
        <time>2012-08-23T06:53:57Z</time>
      </trkpt>
      <trkpt lat="45.6559" lon="3.45111">
        <ele>568.7570801</ele>
        <time>2012-08-23T06:54:02Z</time>
      </trkpt>
      <trkpt lat="45.65585" lon="3.45127">
        <ele>567.7956543</ele>
        <time>2012-08-23T06:54:07Z</time>
      </trkpt>
      <trkpt lat="45.65578" lon="3.4515">
        <ele>565.873291</ele>
        <time>2012-08-23T06:54:14Z</time>
      </trkpt>
      <trkpt lat="45.65566" lon="3.45165">
        <ele>565.3925781</ele>
        <time>2012-08-23T06:54:20Z</time>
      </trkpt>
      <trkpt lat="45.65562" lon="3.45169">
        <ele>564.9118652</ele>
        <time>2012-08-23T06:54:22Z</time>
      </trkpt>
      <trkpt lat="45.65549" lon="3.45183">
        <ele>563.9504395</ele>
        <time>2012-08-23T06:54:28Z</time>
      </trkpt>
      <trkpt lat="45.65545" lon="3.45189">
        <ele>563.4699707</ele>
        <time>2012-08-23T06:54:30Z</time>
      </trkpt>
      <trkpt lat="45.65541" lon="3.45208">
        <ele>562.5085449</ele>
        <time>2012-08-23T06:54:35Z</time>
      </trkpt>
      <trkpt lat="45.65546" lon="3.4522">
        <ele>561.5473633</ele>
        <time>2012-08-23T06:54:39Z</time>
      </trkpt>
      <trkpt lat="45.65554" lon="3.45229">
        <ele>562.0280762</ele>
        <time>2012-08-23T06:54:43Z</time>
      </trkpt>
      <trkpt lat="45.65559" lon="3.45241">
        <ele>560.5859375</ele>
        <time>2012-08-23T06:54:46Z</time>
      </trkpt>
      <trkpt lat="45.65567" lon="3.45255">
        <ele>557.7021484</ele>
        <time>2012-08-23T06:54:50Z</time>
      </trkpt>
      <trkpt lat="45.65573" lon="3.45264">
        <ele>556.2600098</ele>
        <time>2012-08-23T06:54:53Z</time>
      </trkpt>
      <trkpt lat="45.6557" lon="3.45272">
        <ele>557.2214355</ele>
        <time>2012-08-23T06:54:57Z</time>
      </trkpt>
      <trkpt lat="45.65566" lon="3.45271">
        <ele>557.7021484</ele>
        <time>2012-08-23T06:54:59Z</time>
      </trkpt>
      <trkpt lat="45.6555" lon="3.4527">
        <ele>554.3374023</ele>
        <time>2012-08-23T06:55:07Z</time>
      </trkpt>
      <trkpt lat="45.65538" lon="3.45267">
        <ele>550.9726563</ele>
        <time>2012-08-23T06:55:12Z</time>
      </trkpt>
      <trkpt lat="45.65531" lon="3.45272">
        <ele>550.4921875</ele>
        <time>2012-08-23T06:55:16Z</time>
      </trkpt>
      <trkpt lat="45.65532" lon="3.45271">
        <ele>549.0500488</ele>
        <time>2012-08-23T06:55:24Z</time>
      </trkpt>
      <trkpt lat="45.65534" lon="3.45269">
        <ele>548.0888672</ele>
        <time>2012-08-23T06:55:31Z</time>
      </trkpt>
      <trkpt lat="45.65529" lon="3.45273">
        <ele>547.6081543</ele>
        <time>2012-08-23T06:55:45Z</time>
      </trkpt>
      <trkpt lat="45.65521" lon="3.45278">
        <ele>549.5307617</ele>
        <time>2012-08-23T06:55:49Z</time>
      </trkpt>
      <trkpt lat="45.65511" lon="3.45283">
        <ele>550.0114746</ele>
        <time>2012-08-23T06:55:54Z</time>
      </trkpt>
      <trkpt lat="45.65502" lon="3.45291">
        <ele>548.0888672</ele>
        <time>2012-08-23T06:55:58Z</time>
      </trkpt>
      <trkpt lat="45.65491" lon="3.45304">
        <ele>548.0888672</ele>
        <time>2012-08-23T06:56:04Z</time>
      </trkpt>
      <trkpt lat="45.65488" lon="3.45305">
        <ele>546.6468506</ele>
        <time>2012-08-23T06:56:06Z</time>
      </trkpt>
      <trkpt lat="45.65481" lon="3.45306">
        <ele>543.7628174</ele>
        <time>2012-08-23T06:56:10Z</time>
      </trkpt>
      <trkpt lat="45.65476" lon="3.45306">
        <ele>543.2821045</ele>
        <time>2012-08-23T06:56:12Z</time>
      </trkpt>
      <trkpt lat="45.65463" lon="3.45308">
        <ele>540.8789063</ele>
        <time>2012-08-23T06:56:18Z</time>
      </trkpt>
      <trkpt lat="45.65451" lon="3.45313">
        <ele>540.8789063</ele>
        <time>2012-08-23T06:56:23Z</time>
      </trkpt>
      <trkpt lat="45.65436" lon="3.45314">
        <ele>536.5531006</ele>
        <time>2012-08-23T06:56:28Z</time>
      </trkpt>
      <trkpt lat="45.65422" lon="3.4531">
        <ele>535.1109619</ele>
        <time>2012-08-23T06:56:33Z</time>
      </trkpt>
      <trkpt lat="45.65419" lon="3.4531">
        <ele>535.1109619</ele>
        <time>2012-08-23T06:56:34Z</time>
      </trkpt>
      <trkpt lat="45.6541" lon="3.45305">
        <ele>537.0336914</ele>
        <time>2012-08-23T06:56:37Z</time>
      </trkpt>
      <trkpt lat="45.65392" lon="3.45303">
        <ele>536.0723877</ele>
        <time>2012-08-23T06:56:43Z</time>
      </trkpt>
      <trkpt lat="45.65381" lon="3.45307">
        <ele>534.1496582</ele>
        <time>2012-08-23T06:56:48Z</time>
      </trkpt>
      <trkpt lat="45.65367" lon="3.45312">
        <ele>532.2270508</ele>
        <time>2012-08-23T06:56:54Z</time>
      </trkpt>
      <trkpt lat="45.65363" lon="3.45316">
        <ele>531.2657471</ele>
        <time>2012-08-23T06:56:56Z</time>
      </trkpt>
      <trkpt lat="45.65356" lon="3.45321">
        <ele>526.4591064</ele>
        <time>2012-08-23T06:57:00Z</time>
      </trkpt>
      <trkpt lat="45.65342" lon="3.45333">
        <ele>520.6912842</ele>
        <time>2012-08-23T06:57:07Z</time>
      </trkpt>
      <trkpt lat="45.6534" lon="3.45333">
        <ele>521.1719971</ele>
        <time>2012-08-23T06:57:08Z</time>
      </trkpt>
      <trkpt lat="45.65334" lon="3.45339">
        <ele>524.536499</ele>
        <time>2012-08-23T06:57:14Z</time>
      </trkpt>
      <trkpt lat="45.65329" lon="3.45345">
        <ele>527.4204102</ele>
        <time>2012-08-23T06:57:20Z</time>
      </trkpt>
      <trkpt lat="45.65327" lon="3.4535">
        <ele>527.4204102</ele>
        <time>2012-08-23T06:57:27Z</time>
      </trkpt>
      <trkpt lat="45.65327" lon="3.45355">
        <ele>527.4204102</ele>
        <time>2012-08-23T06:57:33Z</time>
      </trkpt>
      <trkpt lat="45.65326" lon="3.45358">
        <ele>531.2657471</ele>
        <time>2012-08-23T06:57:39Z</time>
      </trkpt>
      <trkpt lat="45.65325" lon="3.4536">
        <ele>533.6689453</ele>
        <time>2012-08-23T06:57:46Z</time>
      </trkpt>
      <trkpt lat="45.65324" lon="3.45362">
        <ele>535.1109619</ele>
        <time>2012-08-23T06:57:51Z</time>
      </trkpt>
      <trkpt lat="45.65324" lon="3.45362">
        <ele>535.1109619</ele>
        <time>2012-08-23T06:57:56Z</time>
      </trkpt>
      <trkpt lat="45.65322" lon="3.45367">
        <ele>533.6689453</ele>
        <time>2012-08-23T06:58:03Z</time>
      </trkpt>
      <trkpt lat="45.6532" lon="3.4537">
        <ele>533.1883545</ele>
        <time>2012-08-23T06:58:09Z</time>
      </trkpt>
      <trkpt lat="45.65319" lon="3.45374">
        <ele>533.1883545</ele>
        <time>2012-08-23T06:58:14Z</time>
      </trkpt>
      <trkpt lat="45.65317" lon="3.45376">
        <ele>533.6689453</ele>
        <time>2012-08-23T06:58:19Z</time>
      </trkpt>
      <trkpt lat="45.65315" lon="3.45377">
        <ele>533.6689453</ele>
        <time>2012-08-23T06:58:24Z</time>
      </trkpt>
      <trkpt lat="45.65314" lon="3.45381">
        <ele>533.6689453</ele>
        <time>2012-08-23T06:58:31Z</time>
      </trkpt>
      <trkpt lat="45.65313" lon="3.45388">
        <ele>533.1883545</ele>
        <time>2012-08-23T06:58:38Z</time>
      </trkpt>
      <trkpt lat="45.65309" lon="3.45391">
        <ele>532.7077637</ele>
        <time>2012-08-23T06:58:43Z</time>
      </trkpt>
      <trkpt lat="45.65307" lon="3.45392">
        <ele>531.7463379</ele>
        <time>2012-08-23T06:58:45Z</time>
      </trkpt>
      <trkpt lat="45.65301" lon="3.45399">
        <ele>531.7463379</ele>
        <time>2012-08-23T06:58:52Z</time>
      </trkpt>
      <trkpt lat="45.65302" lon="3.454">
        <ele>531.7463379</ele>
        <time>2012-08-23T06:58:54Z</time>
      </trkpt>
      <trkpt lat="45.65303" lon="3.45408">
        <ele>531.7463379</ele>
        <time>2012-08-23T06:59:00Z</time>
      </trkpt>
      <trkpt lat="45.65303" lon="3.45413">
        <ele>530.3044434</ele>
        <time>2012-08-23T06:59:03Z</time>
      </trkpt>
      <trkpt lat="45.65301" lon="3.45419">
        <ele>527.901001</ele>
        <time>2012-08-23T06:59:08Z</time>
      </trkpt>
      <trkpt lat="45.65294" lon="3.45425">
        <ele>526.9398193</ele>
        <time>2012-08-23T06:59:16Z</time>
      </trkpt>
      <trkpt lat="45.65291" lon="3.45431">
        <ele>524.536499</ele>
        <time>2012-08-23T06:59:21Z</time>
      </trkpt>
      <trkpt lat="45.65287" lon="3.45436">
        <ele>521.1719971</ele>
        <time>2012-08-23T06:59:26Z</time>
      </trkpt>
      <trkpt lat="45.65287" lon="3.45437">
        <ele>520.6912842</ele>
        <time>2012-08-23T06:59:27Z</time>
      </trkpt>
      <trkpt lat="45.65281" lon="3.45442">
        <ele>519.2492676</ele>
        <time>2012-08-23T06:59:34Z</time>
      </trkpt>
      <trkpt lat="45.6528" lon="3.45443">
        <ele>519.2492676</ele>
        <time>2012-08-23T06:59:35Z</time>
      </trkpt>
      <trkpt lat="45.65277" lon="3.45451">
        <ele>516.3652344</ele>
        <time>2012-08-23T06:59:43Z</time>
      </trkpt>
      <trkpt lat="45.65274" lon="3.45453">
        <ele>514.9233398</ele>
        <time>2012-08-23T06:59:48Z</time>
      </trkpt>
      <trkpt lat="45.65271" lon="3.45458">
        <ele>512.0394287</ele>
        <time>2012-08-23T06:59:53Z</time>
      </trkpt>
      <trkpt lat="45.6527" lon="3.45459">
        <ele>511.5587158</ele>
        <time>2012-08-23T06:59:54Z</time>
      </trkpt>
      <trkpt lat="45.65268" lon="3.45461">
        <ele>513.4814453</ele>
        <time>2012-08-23T06:59:56Z</time>
      </trkpt>
      <trkpt lat="45.65265" lon="3.45464">
        <ele>514.442627</ele>
        <time>2012-08-23T07:00:00Z</time>
      </trkpt>
      <trkpt lat="45.65259" lon="3.4547">
        <ele>515.4040527</ele>
        <time>2012-08-23T07:00:06Z</time>
      </trkpt>
      <trkpt lat="45.65254" lon="3.45473">
        <ele>515.8846436</ele>
        <time>2012-08-23T07:00:11Z</time>
      </trkpt>
      <trkpt lat="45.6525" lon="3.45478">
        <ele>513.4814453</ele>
        <time>2012-08-23T07:00:17Z</time>
      </trkpt>
      <trkpt lat="45.65246" lon="3.45483">
        <ele>509.6361084</ele>
        <time>2012-08-23T07:00:22Z</time>
      </trkpt>
      <trkpt lat="45.65242" lon="3.45488">
        <ele>507.713501</ele>
        <time>2012-08-23T07:00:28Z</time>
      </trkpt>
      <trkpt lat="45.65237" lon="3.45492">
        <ele>506.2714844</ele>
        <time>2012-08-23T07:00:33Z</time>
      </trkpt>
      <trkpt lat="45.65236" lon="3.45493">
        <ele>506.2714844</ele>
        <time>2012-08-23T07:00:34Z</time>
      </trkpt>
      <trkpt lat="45.65234" lon="3.45495">
        <ele>506.2714844</ele>
        <time>2012-08-23T07:00:36Z</time>
      </trkpt>
      <trkpt lat="45.65233" lon="3.45501">
        <ele>504.8294678</ele>
        <time>2012-08-23T07:00:42Z</time>
      </trkpt>
      <trkpt lat="45.65232" lon="3.45502">
        <ele>503.3874512</ele>
        <time>2012-08-23T07:00:44Z</time>
      </trkpt>
      <trkpt lat="45.6523" lon="3.45509">
        <ele>500.9841309</ele>
        <time>2012-08-23T07:00:51Z</time>
      </trkpt>
      <trkpt lat="45.6523" lon="3.45512">
        <ele>499.0615234</ele>
        <time>2012-08-23T07:00:56Z</time>
      </trkpt>
      <trkpt lat="45.65231" lon="3.45512">
        <ele>498.5809326</ele>
        <time>2012-08-23T07:00:57Z</time>
      </trkpt>
      <trkpt lat="45.65232" lon="3.45517">
        <ele>497.138916</ele>
        <time>2012-08-23T07:01:03Z</time>
      </trkpt>
      <trkpt lat="45.65237" lon="3.45519">
        <ele>496.6583252</ele>
        <time>2012-08-23T07:01:11Z</time>
      </trkpt>
      <trkpt lat="45.65239" lon="3.4552">
        <ele>495.6968994</ele>
        <time>2012-08-23T07:01:15Z</time>
      </trkpt>
      <trkpt lat="45.65241" lon="3.45524">
        <ele>494.7355957</ele>
        <time>2012-08-23T07:01:20Z</time>
      </trkpt>
      <trkpt lat="45.65243" lon="3.45525">
        <ele>494.2550049</ele>
        <time>2012-08-23T07:01:25Z</time>
      </trkpt>
      <trkpt lat="45.65245" lon="3.45527">
        <ele>493.774292</ele>
        <time>2012-08-23T07:01:31Z</time>
      </trkpt>
      <trkpt lat="45.65246" lon="3.45531">
        <ele>490.40979</ele>
        <time>2012-08-23T07:01:37Z</time>
      </trkpt>
      <trkpt lat="45.65248" lon="3.45533">
        <ele>487.5256348</ele>
        <time>2012-08-23T07:01:44Z</time>
      </trkpt>
      <trkpt lat="45.65246" lon="3.45534">
        <ele>487.0450439</ele>
        <time>2012-08-23T07:01:52Z</time>
      </trkpt>
      <trkpt lat="45.65248" lon="3.45537">
        <ele>486.5644531</ele>
        <time>2012-08-23T07:01:58Z</time>
      </trkpt>
      <trkpt lat="45.65248" lon="3.45538">
        <ele>485.6030273</ele>
        <time>2012-08-23T07:01:59Z</time>
      </trkpt>
      <trkpt lat="45.65242" lon="3.4554">
        <ele>488.0064697</ele>
        <time>2012-08-23T07:02:07Z</time>
      </trkpt>
      <trkpt lat="45.65238" lon="3.45543">
        <ele>491.8516846</ele>
        <time>2012-08-23T07:02:13Z</time>
      </trkpt>
      <trkpt lat="45.65237" lon="3.45548">
        <ele>496.6583252</ele>
        <time>2012-08-23T07:02:17Z</time>
      </trkpt>
      <trkpt lat="45.65226" lon="3.45553">
        <ele>501.9455566</ele>
        <time>2012-08-23T07:02:24Z</time>
      </trkpt>
      <trkpt lat="45.65215" lon="3.45551">
        <ele>500.9841309</ele>
        <time>2012-08-23T07:02:30Z</time>
      </trkpt>
      <trkpt lat="45.65203" lon="3.45548">
        <ele>498.5809326</ele>
        <time>2012-08-23T07:02:36Z</time>
      </trkpt>
      <trkpt lat="45.65191" lon="3.45546">
        <ele>498.1003418</ele>
        <time>2012-08-23T07:02:42Z</time>
      </trkpt>
      <trkpt lat="45.65177" lon="3.45545">
        <ele>496.1777344</ele>
        <time>2012-08-23T07:02:49Z</time>
      </trkpt>
      <trkpt lat="45.65163" lon="3.45543">
        <ele>495.2161865</ele>
        <time>2012-08-23T07:02:56Z</time>
      </trkpt>
      <trkpt lat="45.65152" lon="3.45542">
        <ele>493.2935791</ele>
        <time>2012-08-23T07:03:01Z</time>
      </trkpt>
      <trkpt lat="45.6514" lon="3.45542">
        <ele>491.3709717</ele>
        <time>2012-08-23T07:03:07Z</time>
      </trkpt>
      <trkpt lat="45.65129" lon="3.4554">
        <ele>488.9677734</ele>
        <time>2012-08-23T07:03:12Z</time>
      </trkpt>
      <trkpt lat="45.65116" lon="3.45541">
        <ele>488.9677734</ele>
        <time>2012-08-23T07:03:18Z</time>
      </trkpt>
      <trkpt lat="45.65106" lon="3.45539">
        <ele>487.0450439</ele>
        <time>2012-08-23T07:03:23Z</time>
      </trkpt>
      <trkpt lat="45.65092" lon="3.45537">
        <ele>488.4871826</ele>
        <time>2012-08-23T07:03:30Z</time>
      </trkpt>
      <trkpt lat="45.65081" lon="3.45531">
        <ele>488.9677734</ele>
        <time>2012-08-23T07:03:36Z</time>
      </trkpt>
      <trkpt lat="45.65069" lon="3.45523">
        <ele>490.8903809</ele>
        <time>2012-08-23T07:03:43Z</time>
      </trkpt>
      <trkpt lat="45.65058" lon="3.45515">
        <ele>490.8903809</ele>
        <time>2012-08-23T07:03:50Z</time>
      </trkpt>
      <trkpt lat="45.65045" lon="3.45504">
        <ele>490.8903809</ele>
        <time>2012-08-23T07:03:58Z</time>
      </trkpt>
      <trkpt lat="45.65036" lon="3.45495">
        <ele>491.3709717</ele>
        <time>2012-08-23T07:04:04Z</time>
      </trkpt>
      <trkpt lat="45.65027" lon="3.45494">
        <ele>491.3709717</ele>
        <time>2012-08-23T07:04:09Z</time>
      </trkpt>
      <trkpt lat="45.65017" lon="3.45496">
        <ele>490.8903809</ele>
        <time>2012-08-23T07:04:14Z</time>
      </trkpt>
      <trkpt lat="45.65002" lon="3.455">
        <ele>488.9677734</ele>
        <time>2012-08-23T07:04:20Z</time>
      </trkpt>
      <trkpt lat="45.64993" lon="3.45502">
        <ele>487.0450439</ele>
        <time>2012-08-23T07:04:25Z</time>
      </trkpt>
      <trkpt lat="45.6498" lon="3.45505">
        <ele>488.0064697</ele>
        <time>2012-08-23T07:04:31Z</time>
      </trkpt>
      <trkpt lat="45.64978" lon="3.45507">
        <ele>488.4871826</ele>
        <time>2012-08-23T07:04:32Z</time>
      </trkpt>
      <trkpt lat="45.64972" lon="3.45524">
        <ele>488.0064697</ele>
        <time>2012-08-23T07:04:37Z</time>
      </trkpt>
      <trkpt lat="45.6497" lon="3.45533">
        <ele>487.0450439</ele>
        <time>2012-08-23T07:04:39Z</time>
      </trkpt>
      <trkpt lat="45.64967" lon="3.45553">
        <ele>483.1998291</ele>
        <time>2012-08-23T07:04:45Z</time>
      </trkpt>
      <trkpt lat="45.64964" lon="3.4557">
        <ele>482.2385254</ele>
        <time>2012-08-23T07:04:50Z</time>
      </trkpt>
      <trkpt lat="45.64966" lon="3.45581">
        <ele>481.2772217</ele>
        <time>2012-08-23T07:04:53Z</time>
      </trkpt>
      <trkpt lat="45.64972" lon="3.45604">
        <ele>484.6418457</ele>
        <time>2012-08-23T07:04:59Z</time>
      </trkpt>
      <trkpt lat="45.64975" lon="3.45618">
        <ele>485.6030273</ele>
        <time>2012-08-23T07:05:03Z</time>
      </trkpt>
      <trkpt lat="45.64973" lon="3.45631">
        <ele>485.1224365</ele>
        <time>2012-08-23T07:05:07Z</time>
      </trkpt>
      <trkpt lat="45.64973" lon="3.45635">
        <ele>485.6030273</ele>
        <time>2012-08-23T07:05:08Z</time>
      </trkpt>
      <trkpt lat="45.64965" lon="3.45647">
        <ele>481.7578125</ele>
        <time>2012-08-23T07:05:13Z</time>
      </trkpt>
      <trkpt lat="45.64959" lon="3.45656">
        <ele>478.3931885</ele>
        <time>2012-08-23T07:05:17Z</time>
      </trkpt>
      <trkpt lat="45.64955" lon="3.45662">
        <ele>479.3544922</ele>
        <time>2012-08-23T07:05:20Z</time>
      </trkpt>
      <trkpt lat="45.64944" lon="3.45683">
        <ele>482.7192383</ele>
        <time>2012-08-23T07:05:27Z</time>
      </trkpt>
      <trkpt lat="45.64943" lon="3.45688">
        <ele>483.1998291</ele>
        <time>2012-08-23T07:05:29Z</time>
      </trkpt>
      <trkpt lat="45.64942" lon="3.45694">
        <ele>484.1611328</ele>
        <time>2012-08-23T07:05:31Z</time>
      </trkpt>
      <trkpt lat="45.64942" lon="3.45704">
        <ele>482.7192383</ele>
        <time>2012-08-23T07:05:35Z</time>
      </trkpt>
      <trkpt lat="45.64936" lon="3.45717">
        <ele>483.1998291</ele>
        <time>2012-08-23T07:05:40Z</time>
      </trkpt>
      <trkpt lat="45.64932" lon="3.45721">
        <ele>482.7192383</ele>
        <time>2012-08-23T07:05:42Z</time>
      </trkpt>
      <trkpt lat="45.64919" lon="3.45735">
        <ele>484.6418457</ele>
        <time>2012-08-23T07:05:49Z</time>
      </trkpt>
      <trkpt lat="45.64914" lon="3.45745">
        <ele>484.1611328</ele>
        <time>2012-08-23T07:05:53Z</time>
      </trkpt>
      <trkpt lat="45.64907" lon="3.45759">
        <ele>483.1998291</ele>
        <time>2012-08-23T07:05:58Z</time>
      </trkpt>
      <trkpt lat="45.649" lon="3.45777">
        <ele>485.6030273</ele>
        <time>2012-08-23T07:06:04Z</time>
      </trkpt>
      <trkpt lat="45.6489" lon="3.45781">
        <ele>484.6418457</ele>
        <time>2012-08-23T07:06:09Z</time>
      </trkpt>
      <trkpt lat="45.64877" lon="3.45783">
        <ele>483.6804199</ele>
        <time>2012-08-23T07:06:15Z</time>
      </trkpt>
      <trkpt lat="45.64871" lon="3.45784">
        <ele>483.6804199</ele>
        <time>2012-08-23T07:06:18Z</time>
      </trkpt>
      <trkpt lat="45.64866" lon="3.45784">
        <ele>483.6804199</ele>
        <time>2012-08-23T07:06:22Z</time>
      </trkpt>
      <trkpt lat="45.64858" lon="3.45798">
        <ele>484.1611328</ele>
        <time>2012-08-23T07:06:28Z</time>
      </trkpt>
      <trkpt lat="45.64857" lon="3.45801">
        <ele>485.1224365</ele>
        <time>2012-08-23T07:06:29Z</time>
      </trkpt>
      <trkpt lat="45.64855" lon="3.45825">
        <ele>485.1224365</ele>
        <time>2012-08-23T07:06:36Z</time>
      </trkpt>
      <trkpt lat="45.64852" lon="3.45846">
        <ele>482.2385254</ele>
        <time>2012-08-23T07:06:42Z</time>
      </trkpt>
      <trkpt lat="45.64845" lon="3.45863">
        <ele>482.2385254</ele>
        <time>2012-08-23T07:06:47Z</time>
      </trkpt>
      <trkpt lat="45.64839" lon="3.4588">
        <ele>485.6030273</ele>
        <time>2012-08-23T07:06:52Z</time>
      </trkpt>
      <trkpt lat="45.64833" lon="3.45898">
        <ele>487.0450439</ele>
        <time>2012-08-23T07:06:58Z</time>
      </trkpt>
      <trkpt lat="45.64826" lon="3.45913">
        <ele>486.0837402</ele>
        <time>2012-08-23T07:07:03Z</time>
      </trkpt>
      <trkpt lat="45.64817" lon="3.45928">
        <ele>485.6030273</ele>
        <time>2012-08-23T07:07:09Z</time>
      </trkpt>
      <trkpt lat="45.64814" lon="3.45946">
        <ele>487.5256348</ele>
        <time>2012-08-23T07:07:15Z</time>
      </trkpt>
      <trkpt lat="45.6481" lon="3.4596">
        <ele>488.0064697</ele>
        <time>2012-08-23T07:07:20Z</time>
      </trkpt>
      <trkpt lat="45.64803" lon="3.45967">
        <ele>489.4483643</ele>
        <time>2012-08-23T07:07:24Z</time>
      </trkpt>
      <trkpt lat="45.64793" lon="3.45973">
        <ele>492.3323975</ele>
        <time>2012-08-23T07:07:29Z</time>
      </trkpt>
      <trkpt lat="45.64785" lon="3.45981">
        <ele>493.774292</ele>
        <time>2012-08-23T07:07:34Z</time>
      </trkpt>
      <trkpt lat="45.64777" lon="3.45991">
        <ele>494.7355957</ele>
        <time>2012-08-23T07:07:39Z</time>
      </trkpt>
      <trkpt lat="45.64774" lon="3.46">
        <ele>496.1777344</ele>
        <time>2012-08-23T07:07:43Z</time>
      </trkpt>
      <trkpt lat="45.64772" lon="3.46016">
        <ele>497.138916</ele>
        <time>2012-08-23T07:07:49Z</time>
      </trkpt>
      <trkpt lat="45.64771" lon="3.46027">
        <ele>498.1003418</ele>
        <time>2012-08-23T07:07:53Z</time>
      </trkpt>
      <trkpt lat="45.64766" lon="3.46034">
        <ele>498.1003418</ele>
        <time>2012-08-23T07:07:57Z</time>
      </trkpt>
      <trkpt lat="45.64753" lon="3.46041">
        <ele>497.6196289</ele>
        <time>2012-08-23T07:08:03Z</time>
      </trkpt>
      <trkpt lat="45.64745" lon="3.46042">
        <ele>497.6196289</ele>
        <time>2012-08-23T07:08:08Z</time>
      </trkpt>
      <trkpt lat="45.64738" lon="3.46044">
        <ele>496.6583252</ele>
        <time>2012-08-23T07:08:12Z</time>
      </trkpt>
      <trkpt lat="45.6473" lon="3.46055">
        <ele>497.138916</ele>
        <time>2012-08-23T07:08:18Z</time>
      </trkpt>
      <trkpt lat="45.64726" lon="3.46065">
        <ele>497.6196289</ele>
        <time>2012-08-23T07:08:22Z</time>
      </trkpt>
      <trkpt lat="45.64725" lon="3.46082">
        <ele>499.0615234</ele>
        <time>2012-08-23T07:08:28Z</time>
      </trkpt>
      <trkpt lat="45.64725" lon="3.46096">
        <ele>500.50354</ele>
        <time>2012-08-23T07:08:33Z</time>
      </trkpt>
      <trkpt lat="45.64724" lon="3.46109">
        <ele>501.9455566</ele>
        <time>2012-08-23T07:08:38Z</time>
      </trkpt>
      <trkpt lat="45.64721" lon="3.46116">
        <ele>503.3874512</ele>
        <time>2012-08-23T07:08:41Z</time>
      </trkpt>
      <trkpt lat="45.64718" lon="3.46119">
        <ele>504.8294678</ele>
        <time>2012-08-23T07:08:43Z</time>
      </trkpt>
      <trkpt lat="45.64709" lon="3.46124">
        <ele>507.713501</ele>
        <time>2012-08-23T07:08:48Z</time>
      </trkpt>
      <trkpt lat="45.64707" lon="3.46124">
        <ele>507.713501</ele>
        <time>2012-08-23T07:08:49Z</time>
      </trkpt>
      <trkpt lat="45.64692" lon="3.46118">
        <ele>508.6746826</ele>
        <time>2012-08-23T07:08:56Z</time>
      </trkpt>
      <trkpt lat="45.64679" lon="3.46115">
        <ele>507.2327881</ele>
        <time>2012-08-23T07:09:02Z</time>
      </trkpt>
      <trkpt lat="45.64667" lon="3.46114">
        <ele>506.2714844</ele>
        <time>2012-08-23T07:09:07Z</time>
      </trkpt>
      <trkpt lat="45.64658" lon="3.46112">
        <ele>505.7908936</ele>
        <time>2012-08-23T07:09:12Z</time>
      </trkpt>
      <trkpt lat="45.64648" lon="3.4611">
        <ele>505.7908936</ele>
        <time>2012-08-23T07:09:17Z</time>
      </trkpt>
      <trkpt lat="45.64637" lon="3.46107">
        <ele>505.7908936</ele>
        <time>2012-08-23T07:09:22Z</time>
      </trkpt>
      <trkpt lat="45.64626" lon="3.46104">
        <ele>503.3874512</ele>
        <time>2012-08-23T07:09:27Z</time>
      </trkpt>
      <trkpt lat="45.64612" lon="3.46102">
        <ele>499.5422363</ele>
        <time>2012-08-23T07:09:33Z</time>
      </trkpt>
      <trkpt lat="45.64599" lon="3.46099">
        <ele>497.6196289</ele>
        <time>2012-08-23T07:09:39Z</time>
      </trkpt>
      <trkpt lat="45.64588" lon="3.46097">
        <ele>498.5809326</ele>
        <time>2012-08-23T07:09:44Z</time>
      </trkpt>
      <trkpt lat="45.64579" lon="3.46096">
        <ele>499.5422363</ele>
        <time>2012-08-23T07:09:49Z</time>
      </trkpt>
      <trkpt lat="45.64577" lon="3.46096">
        <ele>500.50354</ele>
        <time>2012-08-23T07:09:50Z</time>
      </trkpt>
      <trkpt lat="45.64565" lon="3.46094">
        <ele>501.9455566</ele>
        <time>2012-08-23T07:09:56Z</time>
      </trkpt>
      <trkpt lat="45.64556" lon="3.46094">
        <ele>502.4261475</ele>
        <time>2012-08-23T07:10:01Z</time>
      </trkpt>
      <trkpt lat="45.64545" lon="3.46097">
        <ele>506.2714844</ele>
        <time>2012-08-23T07:10:06Z</time>
      </trkpt>
      <trkpt lat="45.64536" lon="3.46103">
        <ele>507.713501</ele>
        <time>2012-08-23T07:10:10Z</time>
      </trkpt>
      <trkpt lat="45.64523" lon="3.46103">
        <ele>504.8294678</ele>
        <time>2012-08-23T07:10:16Z</time>
      </trkpt>
      <trkpt lat="45.64517" lon="3.46101">
        <ele>503.3874512</ele>
        <time>2012-08-23T07:10:19Z</time>
      </trkpt>
      <trkpt lat="45.64505" lon="3.46091">
        <ele>502.4261475</ele>
        <time>2012-08-23T07:10:25Z</time>
      </trkpt>
      <trkpt lat="45.64497" lon="3.46079">
        <ele>502.9067383</ele>
        <time>2012-08-23T07:10:30Z</time>
      </trkpt>
      <trkpt lat="45.6449" lon="3.46061">
        <ele>503.8681641</ele>
        <time>2012-08-23T07:10:36Z</time>
      </trkpt>
      <trkpt lat="45.64487" lon="3.46053">
        <ele>503.3874512</ele>
        <time>2012-08-23T07:10:39Z</time>
      </trkpt>
      <trkpt lat="45.6448" lon="3.4604">
        <ele>501.9455566</ele>
        <time>2012-08-23T07:10:44Z</time>
      </trkpt>
      <trkpt lat="45.6447" lon="3.46027">
        <ele>501.9455566</ele>
        <time>2012-08-23T07:10:50Z</time>
      </trkpt>
      <trkpt lat="45.64462" lon="3.46018">
        <ele>500.0229492</ele>
        <time>2012-08-23T07:10:54Z</time>
      </trkpt>
      <trkpt lat="45.64453" lon="3.46011">
        <ele>499.0615234</ele>
        <time>2012-08-23T07:10:58Z</time>
      </trkpt>
      <trkpt lat="45.64447" lon="3.46001">
        <ele>497.6196289</ele>
        <time>2012-08-23T07:11:03Z</time>
      </trkpt>
      <trkpt lat="45.64453" lon="3.45994">
        <ele>497.138916</ele>
        <time>2012-08-23T07:11:06Z</time>
      </trkpt>
      <trkpt lat="45.64466" lon="3.45982">
        <ele>496.1777344</ele>
        <time>2012-08-23T07:11:12Z</time>
      </trkpt>
      <trkpt lat="45.64479" lon="3.45967">
        <ele>493.774292</ele>
        <time>2012-08-23T07:11:18Z</time>
      </trkpt>
      <trkpt lat="45.64485" lon="3.45956">
        <ele>492.3323975</ele>
        <time>2012-08-23T07:11:22Z</time>
      </trkpt>
      <trkpt lat="45.64491" lon="3.45944">
        <ele>491.3709717</ele>
        <time>2012-08-23T07:11:26Z</time>
      </trkpt>
      <trkpt lat="45.64502" lon="3.45921">
        <ele>490.8903809</ele>
        <time>2012-08-23T07:11:33Z</time>
      </trkpt>
      <trkpt lat="45.64511" lon="3.459">
        <ele>489.9290771</ele>
        <time>2012-08-23T07:11:40Z</time>
      </trkpt>
      <trkpt lat="45.64517" lon="3.45886">
        <ele>490.40979</ele>
        <time>2012-08-23T07:11:45Z</time>
      </trkpt>
      <trkpt lat="45.64518" lon="3.45881">
        <ele>490.40979</ele>
        <time>2012-08-23T07:11:47Z</time>
      </trkpt>
      <trkpt lat="45.64513" lon="3.45857">
        <ele>491.8516846</ele>
        <time>2012-08-23T07:11:53Z</time>
      </trkpt>
      <trkpt lat="45.64504" lon="3.45835">
        <ele>489.9290771</ele>
        <time>2012-08-23T07:11:59Z</time>
      </trkpt>
      <trkpt lat="45.64495" lon="3.45818">
        <ele>489.9290771</ele>
        <time>2012-08-23T07:12:05Z</time>
      </trkpt>
      <trkpt lat="45.64486" lon="3.45804">
        <ele>491.3709717</ele>
        <time>2012-08-23T07:12:10Z</time>
      </trkpt>
      <trkpt lat="45.64476" lon="3.45792">
        <ele>488.9677734</ele>
        <time>2012-08-23T07:12:15Z</time>
      </trkpt>
      <trkpt lat="45.6447" lon="3.45777">
        <ele>488.4871826</ele>
        <time>2012-08-23T07:12:20Z</time>
      </trkpt>
      <trkpt lat="45.64464" lon="3.45762">
        <ele>485.6030273</ele>
        <time>2012-08-23T07:12:25Z</time>
      </trkpt>
      <trkpt lat="45.64453" lon="3.45749">
        <ele>486.0837402</ele>
        <time>2012-08-23T07:12:30Z</time>
      </trkpt>
      <trkpt lat="45.64445" lon="3.45736">
        <ele>487.0450439</ele>
        <time>2012-08-23T07:12:35Z</time>
      </trkpt>
      <trkpt lat="45.64436" lon="3.45717">
        <ele>488.0064697</ele>
        <time>2012-08-23T07:12:41Z</time>
      </trkpt>
      <trkpt lat="45.64435" lon="3.45715">
        <ele>487.5256348</ele>
        <time>2012-08-23T07:12:42Z</time>
      </trkpt>
      <trkpt lat="45.64426" lon="3.45707">
        <ele>488.0064697</ele>
        <time>2012-08-23T07:12:46Z</time>
      </trkpt>
      <trkpt lat="45.64416" lon="3.45698">
        <ele>490.40979</ele>
        <time>2012-08-23T07:12:53Z</time>
      </trkpt>
      <trkpt lat="45.64407" lon="3.45693">
        <ele>491.8516846</ele>
        <time>2012-08-23T07:12:58Z</time>
      </trkpt>
      <trkpt lat="45.64397" lon="3.45688">
        <ele>496.1777344</ele>
        <time>2012-08-23T07:13:05Z</time>
      </trkpt>
      <trkpt lat="45.64386" lon="3.45682">
        <ele>499.5422363</ele>
        <time>2012-08-23T07:13:11Z</time>
      </trkpt>
      <trkpt lat="45.64378" lon="3.45676">
        <ele>502.4261475</ele>
        <time>2012-08-23T07:13:16Z</time>
      </trkpt>
      <trkpt lat="45.64377" lon="3.45675">
        <ele>502.4261475</ele>
        <time>2012-08-23T07:13:17Z</time>
      </trkpt>
      <trkpt lat="45.64373" lon="3.4567">
        <ele>502.4261475</ele>
        <time>2012-08-23T07:13:20Z</time>
      </trkpt>
      <trkpt lat="45.64363" lon="3.45662">
        <ele>501.9455566</ele>
        <time>2012-08-23T07:13:26Z</time>
      </trkpt>
      <trkpt lat="45.64356" lon="3.45656">
        <ele>501.4648438</ele>
        <time>2012-08-23T07:13:32Z</time>
      </trkpt>
      <trkpt lat="45.64347" lon="3.4565">
        <ele>500.9841309</ele>
        <time>2012-08-23T07:13:39Z</time>
      </trkpt>
      <trkpt lat="45.64337" lon="3.45647">
        <ele>500.0229492</ele>
        <time>2012-08-23T07:13:46Z</time>
      </trkpt>
      <trkpt lat="45.64326" lon="3.45643">
        <ele>496.6583252</ele>
        <time>2012-08-23T07:13:52Z</time>
      </trkpt>
      <trkpt lat="45.6432" lon="3.45642">
        <ele>498.1003418</ele>
        <time>2012-08-23T07:13:56Z</time>
      </trkpt>
      <trkpt lat="45.64315" lon="3.45642">
        <ele>498.5809326</ele>
        <time>2012-08-23T07:14:00Z</time>
      </trkpt>
      <trkpt lat="45.64306" lon="3.45642">
        <ele>499.5422363</ele>
        <time>2012-08-23T07:14:06Z</time>
      </trkpt>
      <trkpt lat="45.64298" lon="3.4564">
        <ele>499.0615234</ele>
        <time>2012-08-23T07:14:12Z</time>
      </trkpt>
      <trkpt lat="45.6429" lon="3.4564">
        <ele>500.50354</ele>
        <time>2012-08-23T07:14:17Z</time>
      </trkpt>
      <trkpt lat="45.64288" lon="3.45639">
        <ele>500.50354</ele>
        <time>2012-08-23T07:14:18Z</time>
      </trkpt>
      <trkpt lat="45.64281" lon="3.45642">
        <ele>503.3874512</ele>
        <time>2012-08-23T07:14:23Z</time>
      </trkpt>
      <trkpt lat="45.64272" lon="3.45643">
        <ele>505.3101807</ele>
        <time>2012-08-23T07:14:29Z</time>
      </trkpt>
      <trkpt lat="45.64261" lon="3.45644">
        <ele>506.7520752</ele>
        <time>2012-08-23T07:14:36Z</time>
      </trkpt>
      <trkpt lat="45.64256" lon="3.45644">
        <ele>507.713501</ele>
        <time>2012-08-23T07:14:40Z</time>
      </trkpt>
      <trkpt lat="45.64245" lon="3.45643">
        <ele>508.6746826</ele>
        <time>2012-08-23T07:14:46Z</time>
      </trkpt>
      <trkpt lat="45.64236" lon="3.45643">
        <ele>507.2327881</ele>
        <time>2012-08-23T07:14:51Z</time>
      </trkpt>
      <trkpt lat="45.64222" lon="3.45647">
        <ele>509.1553955</ele>
        <time>2012-08-23T07:14:57Z</time>
      </trkpt>
      <trkpt lat="45.64221" lon="3.45647">
        <ele>509.1553955</ele>
        <time>2012-08-23T07:14:58Z</time>
      </trkpt>
      <trkpt lat="45.64211" lon="3.45642">
        <ele>510.1166992</ele>
        <time>2012-08-23T07:15:03Z</time>
      </trkpt>
      <trkpt lat="45.64204" lon="3.45639">
        <ele>509.1553955</ele>
        <time>2012-08-23T07:15:07Z</time>
      </trkpt>
      <trkpt lat="45.64197" lon="3.45636">
        <ele>510.59729</ele>
        <time>2012-08-23T07:15:11Z</time>
      </trkpt>
      <trkpt lat="45.64195" lon="3.45636">
        <ele>511.5587158</ele>
        <time>2012-08-23T07:15:12Z</time>
      </trkpt>
      <trkpt lat="45.64188" lon="3.4563">
        <ele>513.4814453</ele>
        <time>2012-08-23T07:15:17Z</time>
      </trkpt>
      <trkpt lat="45.64179" lon="3.45632">
        <ele>517.3266602</ele>
        <time>2012-08-23T07:15:23Z</time>
      </trkpt>
      <trkpt lat="45.64177" lon="3.45634">
        <ele>518.2878418</ele>
        <time>2012-08-23T07:15:24Z</time>
      </trkpt>
      <trkpt lat="45.64167" lon="3.45645">
        <ele>527.901001</ele>
        <time>2012-08-23T07:15:31Z</time>
      </trkpt>
      <trkpt lat="45.64165" lon="3.45646">
        <ele>529.3431396</ele>
        <time>2012-08-23T07:15:32Z</time>
      </trkpt>
      <trkpt lat="45.64156" lon="3.45651">
        <ele>532.7077637</ele>
        <time>2012-08-23T07:15:37Z</time>
      </trkpt>
      <trkpt lat="45.64148" lon="3.45653">
        <ele>532.7077637</ele>
        <time>2012-08-23T07:15:43Z</time>
      </trkpt>
      <trkpt lat="45.64144" lon="3.45653">
        <ele>533.6689453</ele>
        <time>2012-08-23T07:15:46Z</time>
      </trkpt>
      <trkpt lat="45.64139" lon="3.45652">
        <ele>533.1883545</ele>
        <time>2012-08-23T07:15:50Z</time>
      </trkpt>
      <trkpt lat="45.64131" lon="3.45651">
        <ele>529.8237305</ele>
        <time>2012-08-23T07:15:56Z</time>
      </trkpt>
      <trkpt lat="45.64129" lon="3.45652">
        <ele>529.8237305</ele>
        <time>2012-08-23T07:15:58Z</time>
      </trkpt>
      <trkpt lat="45.64123" lon="3.4565">
        <ele>528.8625488</ele>
        <time>2012-08-23T07:16:02Z</time>
      </trkpt>
      <trkpt lat="45.64119" lon="3.45648">
        <ele>526.9398193</ele>
        <time>2012-08-23T07:16:06Z</time>
      </trkpt>
      <trkpt lat="45.64109" lon="3.45646">
        <ele>527.901001</ele>
        <time>2012-08-23T07:16:14Z</time>
      </trkpt>
      <trkpt lat="45.64104" lon="3.45644">
        <ele>527.901001</ele>
        <time>2012-08-23T07:16:18Z</time>
      </trkpt>
      <trkpt lat="45.64096" lon="3.4564">
        <ele>529.3431396</ele>
        <time>2012-08-23T07:16:25Z</time>
      </trkpt>
      <trkpt lat="45.64092" lon="3.45638">
        <ele>531.2657471</ele>
        <time>2012-08-23T07:16:30Z</time>
      </trkpt>
      <trkpt lat="45.64085" lon="3.45633">
        <ele>530.7851563</ele>
        <time>2012-08-23T07:16:35Z</time>
      </trkpt>
      <trkpt lat="45.6408" lon="3.45631">
        <ele>531.2657471</ele>
        <time>2012-08-23T07:16:39Z</time>
      </trkpt>
      <trkpt lat="45.6407" lon="3.45629">
        <ele>535.1109619</ele>
        <time>2012-08-23T07:16:47Z</time>
      </trkpt>
      <trkpt lat="45.64063" lon="3.45626">
        <ele>533.1883545</ele>
        <time>2012-08-23T07:16:53Z</time>
      </trkpt>
      <trkpt lat="45.64055" lon="3.45624">
        <ele>536.5531006</ele>
        <time>2012-08-23T07:17:00Z</time>
      </trkpt>
      <trkpt lat="45.64047" lon="3.45624">
        <ele>541.3594971</ele>
        <time>2012-08-23T07:17:07Z</time>
      </trkpt>
      <trkpt lat="45.64043" lon="3.45623">
        <ele>543.2821045</ele>
        <time>2012-08-23T07:17:11Z</time>
      </trkpt>
      <trkpt lat="45.64036" lon="3.45619">
        <ele>543.7628174</ele>
        <time>2012-08-23T07:17:17Z</time>
      </trkpt>
      <trkpt lat="45.64033" lon="3.45618">
        <ele>543.2821045</ele>
        <time>2012-08-23T07:17:19Z</time>
      </trkpt>
      <trkpt lat="45.64025" lon="3.45613">
        <ele>543.2821045</ele>
        <time>2012-08-23T07:17:26Z</time>
      </trkpt>
      <trkpt lat="45.64016" lon="3.4561">
        <ele>543.2821045</ele>
        <time>2012-08-23T07:17:34Z</time>
      </trkpt>
      <trkpt lat="45.6401" lon="3.45607">
        <ele>547.6081543</ele>
        <time>2012-08-23T07:17:40Z</time>
      </trkpt>
      <trkpt lat="45.64003" lon="3.45604">
        <ele>549.0500488</ele>
        <time>2012-08-23T07:17:45Z</time>
      </trkpt>
      <trkpt lat="45.63994" lon="3.45599">
        <ele>547.6081543</ele>
        <time>2012-08-23T07:17:52Z</time>
      </trkpt>
      <trkpt lat="45.6399" lon="3.45597">
        <ele>550.9726563</ele>
        <time>2012-08-23T07:17:56Z</time>
      </trkpt>
      <trkpt lat="45.63983" lon="3.45594">
        <ele>553.8566895</ele>
        <time>2012-08-23T07:18:02Z</time>
      </trkpt>
      <trkpt lat="45.63976" lon="3.45587">
        <ele>551.934082</ele>
        <time>2012-08-23T07:18:06Z</time>
      </trkpt>
      <trkpt lat="45.63972" lon="3.45585">
        <ele>550.4921875</ele>
        <time>2012-08-23T07:18:08Z</time>
      </trkpt>
      <trkpt lat="45.63964" lon="3.45576">
        <ele>549.0500488</ele>
        <time>2012-08-23T07:18:15Z</time>
      </trkpt>
      <trkpt lat="45.63957" lon="3.45572">
        <ele>549.0500488</ele>
        <time>2012-08-23T07:18:19Z</time>
      </trkpt>
      <trkpt lat="45.63949" lon="3.45567">
        <ele>549.5307617</ele>
        <time>2012-08-23T07:18:24Z</time>
      </trkpt>
      <trkpt lat="45.63941" lon="3.45563">
        <ele>552.4145508</ele>
        <time>2012-08-23T07:18:29Z</time>
      </trkpt>
      <trkpt lat="45.63937" lon="3.45558">
        <ele>550.9726563</ele>
        <time>2012-08-23T07:18:33Z</time>
      </trkpt>
      <trkpt lat="45.63929" lon="3.4555">
        <ele>549.5307617</ele>
        <time>2012-08-23T07:18:39Z</time>
      </trkpt>
      <trkpt lat="45.63927" lon="3.45548">
        <ele>550.0114746</ele>
        <time>2012-08-23T07:18:40Z</time>
      </trkpt>
      <trkpt lat="45.63917" lon="3.4554">
        <ele>549.5307617</ele>
        <time>2012-08-23T07:18:47Z</time>
      </trkpt>
      <trkpt lat="45.63911" lon="3.45536">
        <ele>552.4145508</ele>
        <time>2012-08-23T07:18:54Z</time>
      </trkpt>
      <trkpt lat="45.63903" lon="3.45529">
        <ele>555.7792969</ele>
        <time>2012-08-23T07:19:01Z</time>
      </trkpt>
      <trkpt lat="45.63898" lon="3.45523">
        <ele>557.2214355</ele>
        <time>2012-08-23T07:19:05Z</time>
      </trkpt>
      <trkpt lat="45.63894" lon="3.45518">
        <ele>560.5859375</ele>
        <time>2012-08-23T07:19:10Z</time>
      </trkpt>
      <trkpt lat="45.63889" lon="3.45513">
        <ele>560.5859375</ele>
        <time>2012-08-23T07:19:14Z</time>
      </trkpt>
      <trkpt lat="45.63875" lon="3.45499">
        <ele>562.9892578</ele>
        <time>2012-08-23T07:19:22Z</time>
      </trkpt>
      <trkpt lat="45.63867" lon="3.45489">
        <ele>562.9892578</ele>
        <time>2012-08-23T07:19:27Z</time>
      </trkpt>
      <trkpt lat="45.63864" lon="3.45484">
        <ele>562.5085449</ele>
        <time>2012-08-23T07:19:29Z</time>
      </trkpt>
      <trkpt lat="45.63864" lon="3.45486">
        <ele>562.9892578</ele>
        <time>2012-08-23T07:19:33Z</time>
      </trkpt>
      <trkpt lat="45.63869" lon="3.45497">
        <ele>562.9892578</ele>
        <time>2012-08-23T07:19:38Z</time>
      </trkpt>
      <trkpt lat="45.63867" lon="3.45512">
        <ele>560.5859375</ele>
        <time>2012-08-23T07:19:44Z</time>
      </trkpt>
      <trkpt lat="45.63868" lon="3.45522">
        <ele>557.7021484</ele>
        <time>2012-08-23T07:19:48Z</time>
      </trkpt>
      <trkpt lat="45.63866" lon="3.45535">
        <ele>552.4145508</ele>
        <time>2012-08-23T07:19:53Z</time>
      </trkpt>
      <trkpt lat="45.63864" lon="3.45543">
        <ele>549.0500488</ele>
        <time>2012-08-23T07:19:56Z</time>
      </trkpt>
      <trkpt lat="45.63853" lon="3.4555">
        <ele>545.6855469</ele>
        <time>2012-08-23T07:20:01Z</time>
      </trkpt>
      <trkpt lat="45.63841" lon="3.45551">
        <ele>546.6468506</ele>
        <time>2012-08-23T07:20:07Z</time>
      </trkpt>
      <trkpt lat="45.63827" lon="3.45548">
        <ele>547.6081543</ele>
        <time>2012-08-23T07:20:13Z</time>
      </trkpt>
      <trkpt lat="45.63817" lon="3.45543">
        <ele>549.5307617</ele>
        <time>2012-08-23T07:20:18Z</time>
      </trkpt>
      <trkpt lat="45.63806" lon="3.45538">
        <ele>543.7628174</ele>
        <time>2012-08-23T07:20:23Z</time>
      </trkpt>
      <trkpt lat="45.6379" lon="3.45534">
        <ele>544.7242432</ele>
        <time>2012-08-23T07:20:29Z</time>
      </trkpt>
      <trkpt lat="45.63777" lon="3.45534">
        <ele>545.6855469</ele>
        <time>2012-08-23T07:20:34Z</time>
      </trkpt>
      <trkpt lat="45.63765" lon="3.45534">
        <ele>545.6855469</ele>
        <time>2012-08-23T07:20:39Z</time>
      </trkpt>
      <trkpt lat="45.63752" lon="3.45535">
        <ele>547.1274414</ele>
        <time>2012-08-23T07:20:44Z</time>
      </trkpt>
      <trkpt lat="45.63738" lon="3.45534">
        <ele>549.0500488</ele>
        <time>2012-08-23T07:20:49Z</time>
      </trkpt>
      <trkpt lat="45.63725" lon="3.45532">
        <ele>550.9726563</ele>
        <time>2012-08-23T07:20:55Z</time>
      </trkpt>
      <trkpt lat="45.6371" lon="3.45527">
        <ele>549.0500488</ele>
        <time>2012-08-23T07:21:01Z</time>
      </trkpt>
      <trkpt lat="45.63697" lon="3.4552">
        <ele>546.1662598</ele>
        <time>2012-08-23T07:21:06Z</time>
      </trkpt>
      <trkpt lat="45.63694" lon="3.45519">
        <ele>545.6855469</ele>
        <time>2012-08-23T07:21:07Z</time>
      </trkpt>
      <trkpt lat="45.63678" lon="3.45509">
        <ele>537.9949951</ele>
        <time>2012-08-23T07:21:13Z</time>
      </trkpt>
      <trkpt lat="45.6367" lon="3.45505">
        <ele>535.1109619</ele>
        <time>2012-08-23T07:21:16Z</time>
      </trkpt>
      <trkpt lat="45.63655" lon="3.45498">
        <ele>530.7851563</ele>
        <time>2012-08-23T07:21:22Z</time>
      </trkpt>
      <trkpt lat="45.63642" lon="3.45493">
        <ele>530.7851563</ele>
        <time>2012-08-23T07:21:27Z</time>
      </trkpt>
      <trkpt lat="45.63629" lon="3.45489">
        <ele>533.6689453</ele>
        <time>2012-08-23T07:21:32Z</time>
      </trkpt>
      <trkpt lat="45.63614" lon="3.45485">
        <ele>536.0723877</ele>
        <time>2012-08-23T07:21:38Z</time>
      </trkpt>
      <trkpt lat="45.63601" lon="3.45479">
        <ele>533.1883545</ele>
        <time>2012-08-23T07:21:44Z</time>
      </trkpt>
      <trkpt lat="45.63589" lon="3.45479">
        <ele>533.1883545</ele>
        <time>2012-08-23T07:21:49Z</time>
      </trkpt>
      <trkpt lat="45.6358" lon="3.45481">
        <ele>532.2270508</ele>
        <time>2012-08-23T07:21:53Z</time>
      </trkpt>
      <trkpt lat="45.63567" lon="3.45477">
        <ele>528.8625488</ele>
        <time>2012-08-23T07:21:59Z</time>
      </trkpt>
      <trkpt lat="45.63555" lon="3.45472">
        <ele>529.3431396</ele>
        <time>2012-08-23T07:22:04Z</time>
      </trkpt>
      <trkpt lat="45.63546" lon="3.45466">
        <ele>525.9783936</ele>
        <time>2012-08-23T07:22:08Z</time>
      </trkpt>
      <trkpt lat="45.63532" lon="3.45461">
        <ele>531.2657471</ele>
        <time>2012-08-23T07:22:14Z</time>
      </trkpt>
      <trkpt lat="45.63526" lon="3.4546">
        <ele>532.2270508</ele>
        <time>2012-08-23T07:22:18Z</time>
      </trkpt>
      <trkpt lat="45.63527" lon="3.45452">
        <ele>531.2657471</ele>
        <time>2012-08-23T07:22:25Z</time>
      </trkpt>
      <trkpt lat="45.63527" lon="3.4545">
        <ele>536.0723877</ele>
        <time>2012-08-23T07:22:29Z</time>
      </trkpt>
      <trkpt lat="45.63526" lon="3.45444">
        <ele>544.7242432</ele>
        <time>2012-08-23T07:22:34Z</time>
      </trkpt>
      <trkpt lat="45.63523" lon="3.45438">
        <ele>551.934082</ele>
        <time>2012-08-23T07:22:40Z</time>
      </trkpt>
      <trkpt lat="45.63525" lon="3.45431">
        <ele>568.7570801</ele>
        <time>2012-08-23T07:22:51Z</time>
      </trkpt>
      <trkpt lat="45.63525" lon="3.45423">
        <ele>569.237793</ele>
        <time>2012-08-23T07:22:57Z</time>
      </trkpt>
      <trkpt lat="45.63526" lon="3.45417">
        <ele>567.3151855</ele>
        <time>2012-08-23T07:23:02Z</time>
      </trkpt>
      <trkpt lat="45.63524" lon="3.45413">
        <ele>566.8344727</ele>
        <time>2012-08-23T07:23:04Z</time>
      </trkpt>
      <trkpt lat="45.63523" lon="3.45407">
        <ele>565.3925781</ele>
        <time>2012-08-23T07:23:11Z</time>
      </trkpt>
      <trkpt lat="45.63524" lon="3.45402">
        <ele>562.0280762</ele>
        <time>2012-08-23T07:23:17Z</time>
      </trkpt>
      <trkpt lat="45.63525" lon="3.45398">
        <ele>569.237793</ele>
        <time>2012-08-23T07:23:24Z</time>
      </trkpt>
      <trkpt lat="45.63525" lon="3.45388">
        <ele>567.7956543</ele>
        <time>2012-08-23T07:23:31Z</time>
      </trkpt>
      <trkpt lat="45.6353" lon="3.45391">
        <ele>568.2763672</ele>
        <time>2012-08-23T07:23:41Z</time>
      </trkpt>
      <trkpt lat="45.63533" lon="3.4539">
        <ele>568.2763672</ele>
        <time>2012-08-23T07:23:47Z</time>
      </trkpt>
      <trkpt lat="45.63537" lon="3.45391">
        <ele>566.3537598</ele>
        <time>2012-08-23T07:23:53Z</time>
      </trkpt>
      <trkpt lat="45.63538" lon="3.45387">
        <ele>571.1604004</ele>
        <time>2012-08-23T07:24:01Z</time>
      </trkpt>
      <trkpt lat="45.63538" lon="3.45385">
        <ele>569.7185059</ele>
        <time>2012-08-23T07:24:03Z</time>
      </trkpt>
      <trkpt lat="45.6354" lon="3.45379">
        <ele>566.8344727</ele>
        <time>2012-08-23T07:24:09Z</time>
      </trkpt>
      <trkpt lat="45.63542" lon="3.45375">
        <ele>568.7570801</ele>
        <time>2012-08-23T07:24:14Z</time>
      </trkpt>
      <trkpt lat="45.63542" lon="3.45372">
        <ele>571.6408691</ele>
        <time>2012-08-23T07:24:21Z</time>
      </trkpt>
      <trkpt lat="45.6354" lon="3.45368">
        <ele>573.5639648</ele>
        <time>2012-08-23T07:24:25Z</time>
      </trkpt>
      <trkpt lat="45.63537" lon="3.45364">
        <ele>571.6408691</ele>
        <time>2012-08-23T07:24:29Z</time>
      </trkpt>
      <trkpt lat="45.63536" lon="3.45363">
        <ele>572.6025391</ele>
        <time>2012-08-23T07:24:30Z</time>
      </trkpt>
      <trkpt lat="45.63533" lon="3.45356">
        <ele>574.5251465</ele>
        <time>2012-08-23T07:24:37Z</time>
      </trkpt>
      <trkpt lat="45.63533" lon="3.45352">
        <ele>574.0444336</ele>
        <time>2012-08-23T07:24:42Z</time>
      </trkpt>
      <trkpt lat="45.63532" lon="3.45347">
        <ele>576.4477539</ele>
        <time>2012-08-23T07:24:48Z</time>
      </trkpt>
      <trkpt lat="45.63534" lon="3.45341">
        <ele>575.967041</ele>
        <time>2012-08-23T07:24:52Z</time>
      </trkpt>
      <trkpt lat="45.6354" lon="3.45335">
        <ele>575.0058594</ele>
        <time>2012-08-23T07:25:04Z</time>
      </trkpt>
      <trkpt lat="45.63539" lon="3.45332">
        <ele>578.3703613</ele>
        <time>2012-08-23T07:25:13Z</time>
      </trkpt>
      <trkpt lat="45.63538" lon="3.45324">
        <ele>582.6962891</ele>
        <time>2012-08-23T07:25:26Z</time>
      </trkpt>
      <trkpt lat="45.63536" lon="3.45319">
        <ele>576.9284668</ele>
        <time>2012-08-23T07:25:28Z</time>
      </trkpt>
      <trkpt lat="45.63537" lon="3.45309">
        <ele>567.3151855</ele>
        <time>2012-08-23T07:25:33Z</time>
      </trkpt>
      <trkpt lat="45.6354" lon="3.45308">
        <ele>572.6025391</ele>
        <time>2012-08-23T07:25:39Z</time>
      </trkpt>
      <trkpt lat="45.6354" lon="3.45303">
        <ele>570.6796875</ele>
        <time>2012-08-23T07:25:45Z</time>
      </trkpt>
      <trkpt lat="45.6354" lon="3.45299">
        <ele>573.083252</ele>
        <time>2012-08-23T07:25:50Z</time>
      </trkpt>
      <trkpt lat="45.63542" lon="3.45291">
        <ele>571.6408691</ele>
        <time>2012-08-23T07:25:56Z</time>
      </trkpt>
      <trkpt lat="45.63542" lon="3.45286">
        <ele>570.6796875</ele>
        <time>2012-08-23T07:26:01Z</time>
      </trkpt>
      <trkpt lat="45.63541" lon="3.45278">
        <ele>570.6796875</ele>
        <time>2012-08-23T07:26:08Z</time>
      </trkpt>
      <trkpt lat="45.63544" lon="3.45274">
        <ele>574.5251465</ele>
        <time>2012-08-23T07:26:15Z</time>
      </trkpt>
      <trkpt lat="45.63547" lon="3.45272">
        <ele>577.8896484</ele>
        <time>2012-08-23T07:26:18Z</time>
      </trkpt>
      <trkpt lat="45.63549" lon="3.45265">
        <ele>584.6188965</ele>
        <time>2012-08-23T07:26:23Z</time>
      </trkpt>
      <trkpt lat="45.63549" lon="3.45258">
        <ele>588.4643555</ele>
        <time>2012-08-23T07:26:28Z</time>
      </trkpt>
      <trkpt lat="45.63548" lon="3.45253">
        <ele>586.5415039</ele>
        <time>2012-08-23T07:26:34Z</time>
      </trkpt>
      <trkpt lat="45.63549" lon="3.45248">
        <ele>588.4643555</ele>
        <time>2012-08-23T07:26:41Z</time>
      </trkpt>
      <trkpt lat="45.6355" lon="3.45246">
        <ele>588.4643555</ele>
        <time>2012-08-23T07:26:48Z</time>
      </trkpt>
      <trkpt lat="45.63548" lon="3.45241">
        <ele>586.5415039</ele>
        <time>2012-08-23T07:26:54Z</time>
      </trkpt>
      <trkpt lat="45.63546" lon="3.45239">
        <ele>580.7736816</ele>
        <time>2012-08-23T07:27:00Z</time>
      </trkpt>
      <trkpt lat="45.63541" lon="3.45234">
        <ele>579.331543</ele>
        <time>2012-08-23T07:27:07Z</time>
      </trkpt>
      <trkpt lat="45.63537" lon="3.45228">
        <ele>579.331543</ele>
        <time>2012-08-23T07:27:14Z</time>
      </trkpt>
      <trkpt lat="45.63535" lon="3.45225">
        <ele>578.3703613</ele>
        <time>2012-08-23T07:27:19Z</time>
      </trkpt>
      <trkpt lat="45.63532" lon="3.45221">
        <ele>581.7348633</ele>
        <time>2012-08-23T07:27:25Z</time>
      </trkpt>
      <trkpt lat="45.63529" lon="3.45215">
        <ele>587.0219727</ele>
        <time>2012-08-23T07:27:32Z</time>
      </trkpt>
      <trkpt lat="45.63526" lon="3.4521">
        <ele>592.3095703</ele>
        <time>2012-08-23T07:27:39Z</time>
      </trkpt>
      <trkpt lat="45.63525" lon="3.45204">
        <ele>593.7514648</ele>
        <time>2012-08-23T07:27:43Z</time>
      </trkpt>
      <trkpt lat="45.63522" lon="3.45199">
        <ele>596.635498</ele>
        <time>2012-08-23T07:27:48Z</time>
      </trkpt>
      <trkpt lat="45.63524" lon="3.45196">
        <ele>607.6906738</ele>
        <time>2012-08-23T07:27:55Z</time>
      </trkpt>
      <trkpt lat="45.63524" lon="3.4519">
        <ele>612.9777832</ele>
        <time>2012-08-23T07:28:01Z</time>
      </trkpt>
      <trkpt lat="45.63524" lon="3.45189">
        <ele>613.9389648</ele>
        <time>2012-08-23T07:28:03Z</time>
      </trkpt>
      <trkpt lat="45.63521" lon="3.45182">
        <ele>611.0551758</ele>
        <time>2012-08-23T07:28:12Z</time>
      </trkpt>
      <trkpt lat="45.6352" lon="3.45179">
        <ele>607.6906738</ele>
        <time>2012-08-23T07:28:30Z</time>
      </trkpt>
      <trkpt lat="45.63519" lon="3.45174">
        <ele>607.6906738</ele>
        <time>2012-08-23T07:28:38Z</time>
      </trkpt>
      <trkpt lat="45.63518" lon="3.45171">
        <ele>606.729248</ele>
        <time>2012-08-23T07:28:43Z</time>
      </trkpt>
      <trkpt lat="45.63516" lon="3.45165">
        <ele>607.2099609</ele>
        <time>2012-08-23T07:28:49Z</time>
      </trkpt>
      <trkpt lat="45.63515" lon="3.45161">
        <ele>604.3261719</ele>
        <time>2012-08-23T07:28:56Z</time>
      </trkpt>
      <trkpt lat="45.63514" lon="3.4516">
        <ele>604.3261719</ele>
        <time>2012-08-23T07:29:02Z</time>
      </trkpt>
      <trkpt lat="45.63512" lon="3.45157">
        <ele>604.8066406</ele>
        <time>2012-08-23T07:29:09Z</time>
      </trkpt>
      <trkpt lat="45.6351" lon="3.45153">
        <ele>608.6518555</ele>
        <time>2012-08-23T07:29:17Z</time>
      </trkpt>
      <trkpt lat="45.63507" lon="3.45154">
        <ele>608.6518555</ele>
        <time>2012-08-23T07:29:23Z</time>
      </trkpt>
      <trkpt lat="45.63504" lon="3.45151">
        <ele>609.1325684</ele>
        <time>2012-08-23T07:29:31Z</time>
      </trkpt>
      <trkpt lat="45.635" lon="3.45148">
        <ele>610.09375</ele>
        <time>2012-08-23T07:29:37Z</time>
      </trkpt>
      <trkpt lat="45.63495" lon="3.45144">
        <ele>611.5358887</ele>
        <time>2012-08-23T07:29:43Z</time>
      </trkpt>
      <trkpt lat="45.63491" lon="3.45138">
        <ele>611.5358887</ele>
        <time>2012-08-23T07:29:49Z</time>
      </trkpt>
      <trkpt lat="45.63486" lon="3.45128">
        <ele>611.5358887</ele>
        <time>2012-08-23T07:29:57Z</time>
      </trkpt>
      <trkpt lat="45.63481" lon="3.45124">
        <ele>612.4970703</ele>
        <time>2012-08-23T07:30:01Z</time>
      </trkpt>
      <trkpt lat="45.63478" lon="3.4512">
        <ele>612.0166016</ele>
        <time>2012-08-23T07:30:06Z</time>
      </trkpt>
      <trkpt lat="45.6347" lon="3.45115">
        <ele>611.5358887</ele>
        <time>2012-08-23T07:30:14Z</time>
      </trkpt>
      <trkpt lat="45.63464" lon="3.45112">
        <ele>611.0551758</ele>
        <time>2012-08-23T07:30:20Z</time>
      </trkpt>
      <trkpt lat="45.63455" lon="3.45113">
        <ele>611.5358887</ele>
        <time>2012-08-23T07:30:27Z</time>
      </trkpt>
      <trkpt lat="45.63448" lon="3.45113">
        <ele>610.5744629</ele>
        <time>2012-08-23T07:30:32Z</time>
      </trkpt>
      <trkpt lat="45.63436" lon="3.45116">
        <ele>610.5744629</ele>
        <time>2012-08-23T07:30:39Z</time>
      </trkpt>
      <trkpt lat="45.63429" lon="3.45117">
        <ele>611.0551758</ele>
        <time>2012-08-23T07:30:45Z</time>
      </trkpt>
      <trkpt lat="45.6342" lon="3.45117">
        <ele>612.4970703</ele>
        <time>2012-08-23T07:30:50Z</time>
      </trkpt>
      <trkpt lat="45.63412" lon="3.45117">
        <ele>611.0551758</ele>
        <time>2012-08-23T07:30:54Z</time>
      </trkpt>
      <trkpt lat="45.63399" lon="3.45114">
        <ele>611.5358887</ele>
        <time>2012-08-23T07:31:01Z</time>
      </trkpt>
      <trkpt lat="45.63393" lon="3.45114">
        <ele>611.5358887</ele>
        <time>2012-08-23T07:31:04Z</time>
      </trkpt>
      <trkpt lat="45.63389" lon="3.45114">
        <ele>612.0166016</ele>
        <time>2012-08-23T07:31:06Z</time>
      </trkpt>
      <trkpt lat="45.63387" lon="3.45114">
        <ele>611.5358887</ele>
        <time>2012-08-23T07:31:07Z</time>
      </trkpt>
      <trkpt lat="45.63375" lon="3.45117">
        <ele>613.4584961</ele>
        <time>2012-08-23T07:31:14Z</time>
      </trkpt>
      <trkpt lat="45.63367" lon="3.45119">
        <ele>612.9777832</ele>
        <time>2012-08-23T07:31:18Z</time>
      </trkpt>
      <trkpt lat="45.63355" lon="3.45121">
        <ele>612.0166016</ele>
        <time>2012-08-23T07:31:24Z</time>
      </trkpt>
      <trkpt lat="45.63346" lon="3.45123">
        <ele>614.4196777</ele>
        <time>2012-08-23T07:31:29Z</time>
      </trkpt>
      <trkpt lat="45.63345" lon="3.45122">
        <ele>614.9003906</ele>
        <time>2012-08-23T07:31:30Z</time>
      </trkpt>
      <trkpt lat="45.63339" lon="3.45126">
        <ele>616.822998</ele>
        <time>2012-08-23T07:31:37Z</time>
      </trkpt>
      <trkpt lat="45.63329" lon="3.45128">
        <ele>616.3422852</ele>
        <time>2012-08-23T07:31:42Z</time>
      </trkpt>
      <trkpt lat="45.6332" lon="3.45128">
        <ele>616.3422852</ele>
        <time>2012-08-23T07:31:46Z</time>
      </trkpt>
      <trkpt lat="45.63315" lon="3.45128">
        <ele>616.3422852</ele>
        <time>2012-08-23T07:31:49Z</time>
      </trkpt>
      <trkpt lat="45.63305" lon="3.45129">
        <ele>615.3811035</ele>
        <time>2012-08-23T07:31:53Z</time>
      </trkpt>
      <trkpt lat="45.63291" lon="3.4513">
        <ele>614.9003906</ele>
        <time>2012-08-23T07:32:00Z</time>
      </trkpt>
      <trkpt lat="45.6328" lon="3.45132">
        <ele>612.9777832</ele>
        <time>2012-08-23T07:32:05Z</time>
      </trkpt>
      <trkpt lat="45.63271" lon="3.45131">
        <ele>611.0551758</ele>
        <time>2012-08-23T07:32:10Z</time>
      </trkpt>
      <trkpt lat="45.6326" lon="3.45128">
        <ele>610.5744629</ele>
        <time>2012-08-23T07:32:15Z</time>
      </trkpt>
      <trkpt lat="45.63252" lon="3.45124">
        <ele>612.4970703</ele>
        <time>2012-08-23T07:32:19Z</time>
      </trkpt>
      <trkpt lat="45.63242" lon="3.45125">
        <ele>617.3037109</ele>
        <time>2012-08-23T07:32:24Z</time>
      </trkpt>
      <trkpt lat="45.63235" lon="3.45122">
        <ele>618.2648926</ele>
        <time>2012-08-23T07:32:29Z</time>
      </trkpt>
      <trkpt lat="45.63223" lon="3.45121">
        <ele>620.1877441</ele>
        <time>2012-08-23T07:32:35Z</time>
      </trkpt>
      <trkpt lat="45.63214" lon="3.45119">
        <ele>622.1103516</ele>
        <time>2012-08-23T07:32:40Z</time>
      </trkpt>
      <trkpt lat="45.63203" lon="3.45115">
        <ele>621.1491699</ele>
        <time>2012-08-23T07:32:45Z</time>
      </trkpt>
      <trkpt lat="45.63194" lon="3.45114">
        <ele>622.5910645</ele>
        <time>2012-08-23T07:32:49Z</time>
      </trkpt>
      <trkpt lat="45.63182" lon="3.45112">
        <ele>622.1103516</ele>
        <time>2012-08-23T07:32:55Z</time>
      </trkpt>
      <trkpt lat="45.6317" lon="3.45109">
        <ele>624.5136719</ele>
        <time>2012-08-23T07:33:01Z</time>
      </trkpt>
      <trkpt lat="45.63164" lon="3.45108">
        <ele>625.9555664</ele>
        <time>2012-08-23T07:33:05Z</time>
      </trkpt>
      <trkpt lat="45.63158" lon="3.45095">
        <ele>625.4748535</ele>
        <time>2012-08-23T07:33:11Z</time>
      </trkpt>
      <trkpt lat="45.63158" lon="3.4509">
        <ele>625.4748535</ele>
        <time>2012-08-23T07:33:14Z</time>
      </trkpt>
      <trkpt lat="45.63159" lon="3.45082">
        <ele>626.4362793</ele>
        <time>2012-08-23T07:33:18Z</time>
      </trkpt>
      <trkpt lat="45.63159" lon="3.45069">
        <ele>628.8395996</ele>
        <time>2012-08-23T07:33:25Z</time>
      </trkpt>
      <trkpt lat="45.6316" lon="3.45066">
        <ele>628.8395996</ele>
        <time>2012-08-23T07:33:27Z</time>
      </trkpt>
      <trkpt lat="45.63163" lon="3.45056">
        <ele>629.3200684</ele>
        <time>2012-08-23T07:33:32Z</time>
      </trkpt>
      <trkpt lat="45.63167" lon="3.45047">
        <ele>628.8395996</ele>
        <time>2012-08-23T07:33:37Z</time>
      </trkpt>
      <trkpt lat="45.63167" lon="3.45033">
        <ele>629.3200684</ele>
        <time>2012-08-23T07:33:43Z</time>
      </trkpt>
      <trkpt lat="45.6316" lon="3.45025">
        <ele>629.8007813</ele>
        <time>2012-08-23T07:33:47Z</time>
      </trkpt>
      <trkpt lat="45.63157" lon="3.45023">
        <ele>630.2814941</ele>
        <time>2012-08-23T07:33:49Z</time>
      </trkpt>
      <trkpt lat="45.63152" lon="3.45018">
        <ele>631.2429199</ele>
        <time>2012-08-23T07:33:52Z</time>
      </trkpt>
      <trkpt lat="45.63146" lon="3.4501">
        <ele>632.2041016</ele>
        <time>2012-08-23T07:33:56Z</time>
      </trkpt>
      <trkpt lat="45.63138" lon="3.45004">
        <ele>633.6459961</ele>
        <time>2012-08-23T07:34:01Z</time>
      </trkpt>
      <trkpt lat="45.63128" lon="3.45006">
        <ele>635.5686035</ele>
        <time>2012-08-23T07:34:06Z</time>
      </trkpt>
      <trkpt lat="45.63121" lon="3.45021">
        <ele>637.4914551</ele>
        <time>2012-08-23T07:34:12Z</time>
      </trkpt>
      <trkpt lat="45.63119" lon="3.45037">
        <ele>637.4914551</ele>
        <time>2012-08-23T07:34:17Z</time>
      </trkpt>
      <trkpt lat="45.63114" lon="3.45044">
        <ele>637.4914551</ele>
        <time>2012-08-23T07:34:20Z</time>
      </trkpt>
      <trkpt lat="45.63107" lon="3.45047">
        <ele>636.0495605</ele>
        <time>2012-08-23T07:34:23Z</time>
      </trkpt>
      <trkpt lat="45.63091" lon="3.45056">
        <ele>633.1652832</ele>
        <time>2012-08-23T07:34:30Z</time>
      </trkpt>
      <trkpt lat="45.6308" lon="3.45063">
        <ele>629.3200684</ele>
        <time>2012-08-23T07:34:35Z</time>
      </trkpt>
      <trkpt lat="45.63071" lon="3.45069">
        <ele>625.4748535</ele>
        <time>2012-08-23T07:34:39Z</time>
      </trkpt>
      <trkpt lat="45.63063" lon="3.45075">
        <ele>622.1103516</ele>
        <time>2012-08-23T07:34:43Z</time>
      </trkpt>
      <trkpt lat="45.63055" lon="3.45085">
        <ele>618.7456055</ele>
        <time>2012-08-23T07:34:48Z</time>
      </trkpt>
      <trkpt lat="45.63047" lon="3.45098">
        <ele>616.822998</ele>
        <time>2012-08-23T07:34:53Z</time>
      </trkpt>
      <trkpt lat="45.63039" lon="3.45114">
        <ele>616.822998</ele>
        <time>2012-08-23T07:34:59Z</time>
      </trkpt>
      <trkpt lat="45.63032" lon="3.45126">
        <ele>616.3422852</ele>
        <time>2012-08-23T07:35:05Z</time>
      </trkpt>
      <trkpt lat="45.63027" lon="3.45136">
        <ele>616.822998</ele>
        <time>2012-08-23T07:35:09Z</time>
      </trkpt>
      <trkpt lat="45.63017" lon="3.45146">
        <ele>613.9389648</ele>
        <time>2012-08-23T07:35:14Z</time>
      </trkpt>
      <trkpt lat="45.63003" lon="3.4516">
        <ele>608.1713867</ele>
        <time>2012-08-23T07:35:21Z</time>
      </trkpt>
      <trkpt lat="45.6299" lon="3.4517">
        <ele>604.3261719</ele>
        <time>2012-08-23T07:35:27Z</time>
      </trkpt>
      <trkpt lat="45.62976" lon="3.45188">
        <ele>604.3261719</ele>
        <time>2012-08-23T07:35:34Z</time>
      </trkpt>
      <trkpt lat="45.62965" lon="3.452">
        <ele>606.2485352</ele>
        <time>2012-08-23T07:35:39Z</time>
      </trkpt>
      <trkpt lat="45.62953" lon="3.45209">
        <ele>607.2099609</ele>
        <time>2012-08-23T07:35:44Z</time>
      </trkpt>
      <trkpt lat="45.62942" lon="3.45211">
        <ele>605.7680664</ele>
        <time>2012-08-23T07:35:49Z</time>
      </trkpt>
      <trkpt lat="45.6293" lon="3.45219">
        <ele>607.2099609</ele>
        <time>2012-08-23T07:35:54Z</time>
      </trkpt>
      <trkpt lat="45.62919" lon="3.45215">
        <ele>606.2485352</ele>
        <time>2012-08-23T07:36:00Z</time>
      </trkpt>
      <trkpt lat="45.62918" lon="3.45213">
        <ele>605.7680664</ele>
        <time>2012-08-23T07:36:01Z</time>
      </trkpt>
      <trkpt lat="45.62916" lon="3.45211">
        <ele>604.8066406</ele>
        <time>2012-08-23T07:36:04Z</time>
      </trkpt>
      <trkpt lat="45.62914" lon="3.45209">
        <ele>606.2485352</ele>
        <time>2012-08-23T07:36:08Z</time>
      </trkpt>
      <trkpt lat="45.62913" lon="3.4521">
        <ele>607.6906738</ele>
        <time>2012-08-23T07:36:10Z</time>
      </trkpt>
      <trkpt lat="45.62911" lon="3.45205">
        <ele>607.6906738</ele>
        <time>2012-08-23T07:36:15Z</time>
      </trkpt>
      <trkpt lat="45.6291" lon="3.45196">
        <ele>607.2099609</ele>
        <time>2012-08-23T07:36:20Z</time>
      </trkpt>
      <trkpt lat="45.62908" lon="3.45184">
        <ele>603.364502</ele>
        <time>2012-08-23T07:36:25Z</time>
      </trkpt>
      <trkpt lat="45.62907" lon="3.45175">
        <ele>600</ele>
        <time>2012-08-23T07:36:28Z</time>
      </trkpt>
      <trkpt lat="45.62908" lon="3.45162">
        <ele>598.0773926</ele>
        <time>2012-08-23T07:36:33Z</time>
      </trkpt>
      <trkpt lat="45.62908" lon="3.45152">
        <ele>597.1159668</ele>
        <time>2012-08-23T07:36:38Z</time>
      </trkpt>
      <trkpt lat="45.62905" lon="3.45138">
        <ele>597.5966797</ele>
        <time>2012-08-23T07:36:44Z</time>
      </trkpt>
      <trkpt lat="45.62901" lon="3.45123">
        <ele>599.0385742</ele>
        <time>2012-08-23T07:36:50Z</time>
      </trkpt>
      <trkpt lat="45.62901" lon="3.45114">
        <ele>600.4807129</ele>
        <time>2012-08-23T07:36:53Z</time>
      </trkpt>
      <trkpt lat="45.62901" lon="3.45108">
        <ele>601.9226074</ele>
        <time>2012-08-23T07:36:56Z</time>
      </trkpt>
      <trkpt lat="45.62901" lon="3.45105">
        <ele>603.364502</ele>
        <time>2012-08-23T07:36:57Z</time>
      </trkpt>
      <trkpt lat="45.62897" lon="3.45088">
        <ele>606.729248</ele>
        <time>2012-08-23T07:37:04Z</time>
      </trkpt>
      <trkpt lat="45.62891" lon="3.45071">
        <ele>613.4584961</ele>
        <time>2012-08-23T07:37:10Z</time>
      </trkpt>
      <trkpt lat="45.62892" lon="3.45067">
        <ele>611.0551758</ele>
        <time>2012-08-23T07:37:13Z</time>
      </trkpt>
      <trkpt lat="45.6289" lon="3.45058">
        <ele>607.2099609</ele>
        <time>2012-08-23T07:37:18Z</time>
      </trkpt>
      <trkpt lat="45.62885" lon="3.45044">
        <ele>606.2485352</ele>
        <time>2012-08-23T07:37:24Z</time>
      </trkpt>
      <trkpt lat="45.62884" lon="3.45037">
        <ele>608.6518555</ele>
        <time>2012-08-23T07:37:28Z</time>
      </trkpt>
      <trkpt lat="45.62883" lon="3.45034">
        <ele>611.0551758</ele>
        <time>2012-08-23T07:37:30Z</time>
      </trkpt>
      <trkpt lat="45.62879" lon="3.45027">
        <ele>613.4584961</ele>
        <time>2012-08-23T07:37:36Z</time>
      </trkpt>
      <trkpt lat="45.62878" lon="3.45026">
        <ele>614.9003906</ele>
        <time>2012-08-23T07:37:37Z</time>
      </trkpt>
      <trkpt lat="45.62875" lon="3.45021">
        <ele>616.3422852</ele>
        <time>2012-08-23T07:37:43Z</time>
      </trkpt>
      <trkpt lat="45.62874" lon="3.45019">
        <ele>620.1877441</ele>
        <time>2012-08-23T07:37:49Z</time>
      </trkpt>
      <trkpt lat="45.62873" lon="3.45013">
        <ele>618.2648926</ele>
        <time>2012-08-23T07:37:54Z</time>
      </trkpt>
      <trkpt lat="45.62871" lon="3.45002">
        <ele>613.4584961</ele>
        <time>2012-08-23T07:38:02Z</time>
      </trkpt>
      <trkpt lat="45.62871" lon="3.44994">
        <ele>614.9003906</ele>
        <time>2012-08-23T07:38:11Z</time>
      </trkpt>
      <trkpt lat="45.62872" lon="3.44989">
        <ele>616.822998</ele>
        <time>2012-08-23T07:38:16Z</time>
      </trkpt>
      <trkpt lat="45.62873" lon="3.44982">
        <ele>622.1103516</ele>
        <time>2012-08-23T07:38:22Z</time>
      </trkpt>
      <trkpt lat="45.62872" lon="3.44977">
        <ele>624.032959</ele>
        <time>2012-08-23T07:38:27Z</time>
      </trkpt>
      <trkpt lat="45.6287" lon="3.44968">
        <ele>626.9169922</ele>
        <time>2012-08-23T07:38:34Z</time>
      </trkpt>
      <trkpt lat="45.62867" lon="3.44961">
        <ele>627.8781738</ele>
        <time>2012-08-23T07:38:41Z</time>
      </trkpt>
      <trkpt lat="45.62864" lon="3.44954">
        <ele>627.8781738</ele>
        <time>2012-08-23T07:38:47Z</time>
      </trkpt>
      <trkpt lat="45.62863" lon="3.4495">
        <ele>627.8781738</ele>
        <time>2012-08-23T07:38:49Z</time>
      </trkpt>
      <trkpt lat="45.6286" lon="3.44937">
        <ele>629.3200684</ele>
        <time>2012-08-23T07:38:57Z</time>
      </trkpt>
      <trkpt lat="45.62858" lon="3.44926">
        <ele>627.3977051</ele>
        <time>2012-08-23T07:39:03Z</time>
      </trkpt>
      <trkpt lat="45.62856" lon="3.44924">
        <ele>627.8781738</ele>
        <time>2012-08-23T07:39:06Z</time>
      </trkpt>
      <trkpt lat="45.62855" lon="3.44921">
        <ele>628.3588867</ele>
        <time>2012-08-23T07:39:09Z</time>
      </trkpt>
      <trkpt lat="45.62855" lon="3.44913">
        <ele>625.4748535</ele>
        <time>2012-08-23T07:39:16Z</time>
      </trkpt>
      <trkpt lat="45.62852" lon="3.44908">
        <ele>628.3588867</ele>
        <time>2012-08-23T07:39:22Z</time>
      </trkpt>
      <trkpt lat="45.62848" lon="3.44905">
        <ele>630.2814941</ele>
        <time>2012-08-23T07:39:26Z</time>
      </trkpt>
      <trkpt lat="45.6284" lon="3.44899">
        <ele>631.7233887</ele>
        <time>2012-08-23T07:39:33Z</time>
      </trkpt>
      <trkpt lat="45.62835" lon="3.44891">
        <ele>632.6848145</ele>
        <time>2012-08-23T07:39:40Z</time>
      </trkpt>
      <trkpt lat="45.62831" lon="3.44885">
        <ele>633.6459961</ele>
        <time>2012-08-23T07:39:45Z</time>
      </trkpt>
      <trkpt lat="45.62827" lon="3.44882">
        <ele>631.7233887</ele>
        <time>2012-08-23T07:39:49Z</time>
      </trkpt>
      <trkpt lat="45.62825" lon="3.44879">
        <ele>631.2429199</ele>
        <time>2012-08-23T07:39:52Z</time>
      </trkpt>
      <trkpt lat="45.62821" lon="3.44872">
        <ele>631.2429199</ele>
        <time>2012-08-23T07:39:57Z</time>
      </trkpt>
      <trkpt lat="45.62815" lon="3.44862">
        <ele>630.2814941</ele>
        <time>2012-08-23T07:40:02Z</time>
      </trkpt>
      <trkpt lat="45.62809" lon="3.44856">
        <ele>630.762207</ele>
        <time>2012-08-23T07:40:07Z</time>
      </trkpt>
      <trkpt lat="45.62805" lon="3.44851">
        <ele>630.762207</ele>
        <time>2012-08-23T07:40:10Z</time>
      </trkpt>
      <trkpt lat="45.62804" lon="3.44848">
        <ele>630.762207</ele>
        <time>2012-08-23T07:40:11Z</time>
      </trkpt>
      <trkpt lat="45.62803" lon="3.44846">
        <ele>630.762207</ele>
        <time>2012-08-23T07:40:12Z</time>
      </trkpt>
      <trkpt lat="45.62796" lon="3.4483">
        <ele>632.6848145</ele>
        <time>2012-08-23T07:40:18Z</time>
      </trkpt>
      <trkpt lat="45.62791" lon="3.44822">
        <ele>632.6848145</ele>
        <time>2012-08-23T07:40:23Z</time>
      </trkpt>
      <trkpt lat="45.62789" lon="3.44814">
        <ele>631.2429199</ele>
        <time>2012-08-23T07:40:27Z</time>
      </trkpt>
      <trkpt lat="45.62788" lon="3.44812">
        <ele>632.2041016</ele>
        <time>2012-08-23T07:40:29Z</time>
      </trkpt>
      <trkpt lat="45.62788" lon="3.44798">
        <ele>630.762207</ele>
        <time>2012-08-23T07:40:35Z</time>
      </trkpt>
      <trkpt lat="45.62791" lon="3.44792">
        <ele>630.762207</ele>
        <time>2012-08-23T07:40:38Z</time>
      </trkpt>
      <trkpt lat="45.62792" lon="3.44783">
        <ele>631.2429199</ele>
        <time>2012-08-23T07:40:43Z</time>
      </trkpt>
      <trkpt lat="45.62791" lon="3.44768">
        <ele>630.2814941</ele>
        <time>2012-08-23T07:40:51Z</time>
      </trkpt>
      <trkpt lat="45.6279" lon="3.44767">
        <ele>630.2814941</ele>
        <time>2012-08-23T07:40:52Z</time>
      </trkpt>
      <trkpt lat="45.62785" lon="3.44762">
        <ele>632.2041016</ele>
        <time>2012-08-23T07:40:58Z</time>
      </trkpt>
      <trkpt lat="45.62784" lon="3.44762">
        <ele>631.7233887</ele>
        <time>2012-08-23T07:40:59Z</time>
      </trkpt>
      <trkpt lat="45.62775" lon="3.44762">
        <ele>634.126709</ele>
        <time>2012-08-23T07:41:05Z</time>
      </trkpt>
      <trkpt lat="45.62761" lon="3.44761">
        <ele>634.126709</ele>
        <time>2012-08-23T07:41:12Z</time>
      </trkpt>
      <trkpt lat="45.62753" lon="3.44758">
        <ele>631.2429199</ele>
        <time>2012-08-23T07:41:17Z</time>
      </trkpt>
      <trkpt lat="45.62744" lon="3.44755">
        <ele>627.8781738</ele>
        <time>2012-08-23T07:41:23Z</time>
      </trkpt>
      <trkpt lat="45.6274" lon="3.44752">
        <ele>625.9555664</ele>
        <time>2012-08-23T07:41:25Z</time>
      </trkpt>
      <trkpt lat="45.62731" lon="3.44754">
        <ele>624.9943848</ele>
        <time>2012-08-23T07:41:29Z</time>
      </trkpt>
      <trkpt lat="45.62725" lon="3.44756">
        <ele>624.5136719</ele>
        <time>2012-08-23T07:41:32Z</time>
      </trkpt>
      <trkpt lat="45.62719" lon="3.44758">
        <ele>624.9943848</ele>
        <time>2012-08-23T07:41:37Z</time>
      </trkpt>
      <trkpt lat="45.62718" lon="3.44759">
        <ele>625.9555664</ele>
        <time>2012-08-23T07:41:39Z</time>
      </trkpt>
      <trkpt lat="45.62714" lon="3.44762">
        <ele>626.4362793</ele>
        <time>2012-08-23T07:41:45Z</time>
      </trkpt>
      <trkpt lat="45.62712" lon="3.44766">
        <ele>628.8395996</ele>
        <time>2012-08-23T07:41:50Z</time>
      </trkpt>
      <trkpt lat="45.6271" lon="3.44772">
        <ele>630.762207</ele>
        <time>2012-08-23T07:41:56Z</time>
      </trkpt>
      <trkpt lat="45.6271" lon="3.4478">
        <ele>633.6459961</ele>
        <time>2012-08-23T07:42:02Z</time>
      </trkpt>
      <trkpt lat="45.62708" lon="3.44786">
        <ele>637.4914551</ele>
        <time>2012-08-23T07:42:05Z</time>
      </trkpt>
      <trkpt lat="45.62704" lon="3.44796">
        <ele>641.3366699</ele>
        <time>2012-08-23T07:42:14Z</time>
      </trkpt>
      <trkpt lat="45.62703" lon="3.44802">
        <ele>641.3366699</ele>
        <time>2012-08-23T07:42:19Z</time>
      </trkpt>
      <trkpt lat="45.62702" lon="3.44808">
        <ele>641.8173828</ele>
        <time>2012-08-23T07:42:25Z</time>
      </trkpt>
      <trkpt lat="45.627" lon="3.44816">
        <ele>642.7788086</ele>
        <time>2012-08-23T07:42:32Z</time>
      </trkpt>
      <trkpt lat="45.62699" lon="3.44825">
        <ele>644.2207031</ele>
        <time>2012-08-23T07:42:38Z</time>
      </trkpt>
      <trkpt lat="45.6269" lon="3.44832">
        <ele>646.6240234</ele>
        <time>2012-08-23T07:42:49Z</time>
      </trkpt>
      <trkpt lat="45.62683" lon="3.44836">
        <ele>649.0270996</ele>
        <time>2012-08-23T07:42:56Z</time>
      </trkpt>
      <trkpt lat="45.62675" lon="3.4484">
        <ele>650.4692383</ele>
        <time>2012-08-23T07:43:03Z</time>
      </trkpt>
      <trkpt lat="45.62671" lon="3.4485">
        <ele>651.9111328</ele>
        <time>2012-08-23T07:43:09Z</time>
      </trkpt>
      <trkpt lat="45.62668" lon="3.44857">
        <ele>650.949707</ele>
        <time>2012-08-23T07:43:13Z</time>
      </trkpt>
      <trkpt lat="45.62667" lon="3.44859">
        <ele>650.949707</ele>
        <time>2012-08-23T07:43:14Z</time>
      </trkpt>
      <trkpt lat="45.62658" lon="3.44871">
        <ele>650.949707</ele>
        <time>2012-08-23T07:43:21Z</time>
      </trkpt>
      <trkpt lat="45.6265" lon="3.44878">
        <ele>650.949707</ele>
        <time>2012-08-23T07:43:26Z</time>
      </trkpt>
      <trkpt lat="45.62637" lon="3.44885">
        <ele>652.3918457</ele>
        <time>2012-08-23T07:43:33Z</time>
      </trkpt>
      <trkpt lat="45.62628" lon="3.44884">
        <ele>653.3532715</ele>
        <time>2012-08-23T07:43:39Z</time>
      </trkpt>
      <trkpt lat="45.6262" lon="3.44882">
        <ele>654.3146973</ele>
        <time>2012-08-23T07:43:43Z</time>
      </trkpt>
      <trkpt lat="45.62609" lon="3.44884">
        <ele>657.6791992</ele>
        <time>2012-08-23T07:43:49Z</time>
      </trkpt>
      <trkpt lat="45.626" lon="3.44882">
        <ele>658.6403809</ele>
        <time>2012-08-23T07:43:54Z</time>
      </trkpt>
      <trkpt lat="45.62589" lon="3.4488">
        <ele>660.5629883</ele>
        <time>2012-08-23T07:44:00Z</time>
      </trkpt>
      <trkpt lat="45.62586" lon="3.44878">
        <ele>660.0822754</ele>
        <time>2012-08-23T07:44:02Z</time>
      </trkpt>
      <trkpt lat="45.62581" lon="3.44875">
        <ele>660.5629883</ele>
        <time>2012-08-23T07:44:05Z</time>
      </trkpt>
      <trkpt lat="45.62575" lon="3.44865">
        <ele>660.5629883</ele>
        <time>2012-08-23T07:44:10Z</time>
      </trkpt>
      <trkpt lat="45.6257" lon="3.44861">
        <ele>662.005127</ele>
        <time>2012-08-23T07:44:13Z</time>
      </trkpt>
      <trkpt lat="45.6256" lon="3.44865">
        <ele>662.005127</ele>
        <time>2012-08-23T07:44:18Z</time>
      </trkpt>
      <trkpt lat="45.62558" lon="3.44866">
        <ele>662.005127</ele>
        <time>2012-08-23T07:44:19Z</time>
      </trkpt>
      <trkpt lat="45.62548" lon="3.44869">
        <ele>662.005127</ele>
        <time>2012-08-23T07:44:24Z</time>
      </trkpt>
      <trkpt lat="45.62538" lon="3.44874">
        <ele>661.5244141</ele>
        <time>2012-08-23T07:44:29Z</time>
      </trkpt>
      <trkpt lat="45.62529" lon="3.44883">
        <ele>660.5629883</ele>
        <time>2012-08-23T07:44:34Z</time>
      </trkpt>
      <trkpt lat="45.62522" lon="3.44891">
        <ele>660.0822754</ele>
        <time>2012-08-23T07:44:38Z</time>
      </trkpt>
      <trkpt lat="45.62516" lon="3.44901">
        <ele>657.1984863</ele>
        <time>2012-08-23T07:44:43Z</time>
      </trkpt>
      <trkpt lat="45.62509" lon="3.44911">
        <ele>653.8339844</ele>
        <time>2012-08-23T07:44:48Z</time>
      </trkpt>
      <trkpt lat="45.62504" lon="3.44918">
        <ele>651.9111328</ele>
        <time>2012-08-23T07:44:51Z</time>
      </trkpt>
      <trkpt lat="45.62496" lon="3.44929">
        <ele>649.9885254</ele>
        <time>2012-08-23T07:44:56Z</time>
      </trkpt>
      <trkpt lat="45.62485" lon="3.44935">
        <ele>647.1044922</ele>
        <time>2012-08-23T07:45:01Z</time>
      </trkpt>
      <trkpt lat="45.6248" lon="3.44936">
        <ele>645.6625977</ele>
        <time>2012-08-23T07:45:03Z</time>
      </trkpt>
      <trkpt lat="45.62467" lon="3.44932">
        <ele>642.2980957</ele>
        <time>2012-08-23T07:45:08Z</time>
      </trkpt>
      <trkpt lat="45.62454" lon="3.44924">
        <ele>639.8947754</ele>
        <time>2012-08-23T07:45:14Z</time>
      </trkpt>
      <trkpt lat="45.62444" lon="3.44921">
        <ele>639.8947754</ele>
        <time>2012-08-23T07:45:18Z</time>
      </trkpt>
      <trkpt lat="45.6243" lon="3.44918">
        <ele>638.9335938</ele>
        <time>2012-08-23T07:45:23Z</time>
      </trkpt>
      <trkpt lat="45.62423" lon="3.44916">
        <ele>637.972168</ele>
        <time>2012-08-23T07:45:26Z</time>
      </trkpt>
      <trkpt lat="45.62407" lon="3.44913">
        <ele>635.0881348</ele>
        <time>2012-08-23T07:45:32Z</time>
      </trkpt>
      <trkpt lat="45.62393" lon="3.44908">
        <ele>633.1652832</ele>
        <time>2012-08-23T07:45:37Z</time>
      </trkpt>
      <trkpt lat="45.62381" lon="3.44901">
        <ele>631.7233887</ele>
        <time>2012-08-23T07:45:42Z</time>
      </trkpt>
      <trkpt lat="45.6237" lon="3.44891">
        <ele>630.762207</ele>
        <time>2012-08-23T07:45:47Z</time>
      </trkpt>
      <trkpt lat="45.62357" lon="3.4488">
        <ele>629.8007813</ele>
        <time>2012-08-23T07:45:52Z</time>
      </trkpt>
      <trkpt lat="45.62345" lon="3.44866">
        <ele>630.762207</ele>
        <time>2012-08-23T07:45:57Z</time>
      </trkpt>
      <trkpt lat="45.62336" lon="3.44856">
        <ele>629.3200684</ele>
        <time>2012-08-23T07:46:01Z</time>
      </trkpt>
      <trkpt lat="45.62331" lon="3.44857">
        <ele>628.3588867</ele>
        <time>2012-08-23T07:46:04Z</time>
      </trkpt>
      <trkpt lat="45.6233" lon="3.44864">
        <ele>626.9169922</ele>
        <time>2012-08-23T07:46:08Z</time>
      </trkpt>
      <trkpt lat="45.62331" lon="3.44875">
        <ele>626.4362793</ele>
        <time>2012-08-23T07:46:12Z</time>
      </trkpt>
      <trkpt lat="45.62332" lon="3.44891">
        <ele>627.8781738</ele>
        <time>2012-08-23T07:46:17Z</time>
      </trkpt>
      <trkpt lat="45.62333" lon="3.44895">
        <ele>629.3200684</ele>
        <time>2012-08-23T07:46:19Z</time>
      </trkpt>
      <trkpt lat="45.62335" lon="3.44904">
        <ele>630.762207</ele>
        <time>2012-08-23T07:46:22Z</time>
      </trkpt>
      <trkpt lat="45.62335" lon="3.44906">
        <ele>631.2429199</ele>
        <time>2012-08-23T07:46:23Z</time>
      </trkpt>
      <trkpt lat="45.62336" lon="3.44914">
        <ele>631.7233887</ele>
        <time>2012-08-23T07:46:26Z</time>
      </trkpt>
      <trkpt lat="45.62339" lon="3.44932">
        <ele>636.5302734</ele>
        <time>2012-08-23T07:46:33Z</time>
      </trkpt>
      <trkpt lat="45.6234" lon="3.4494">
        <ele>637.4914551</ele>
        <time>2012-08-23T07:46:35Z</time>
      </trkpt>
      <trkpt lat="45.62341" lon="3.44946">
        <ele>635.5686035</ele>
        <time>2012-08-23T07:46:37Z</time>
      </trkpt>
      <trkpt lat="45.6234" lon="3.44953">
        <ele>637.0107422</ele>
        <time>2012-08-23T07:46:39Z</time>
      </trkpt>
      <trkpt lat="45.62337" lon="3.44964">
        <ele>638.4528809</ele>
        <time>2012-08-23T07:46:44Z</time>
      </trkpt>
      <trkpt lat="45.6234" lon="3.44975">
        <ele>640.3754883</ele>
        <time>2012-08-23T07:46:50Z</time>
      </trkpt>
      <trkpt lat="45.62336" lon="3.44989">
        <ele>643.7399902</ele>
        <time>2012-08-23T07:46:57Z</time>
      </trkpt>
      <trkpt lat="45.62336" lon="3.44993">
        <ele>645.6625977</ele>
        <time>2012-08-23T07:46:59Z</time>
      </trkpt>
      <trkpt lat="45.62334" lon="3.44999">
        <ele>646.6240234</ele>
        <time>2012-08-23T07:47:03Z</time>
      </trkpt>
      <trkpt lat="45.62337" lon="3.45011">
        <ele>647.1044922</ele>
        <time>2012-08-23T07:47:10Z</time>
      </trkpt>
      <trkpt lat="45.62338" lon="3.45014">
        <ele>647.1044922</ele>
        <time>2012-08-23T07:47:12Z</time>
      </trkpt>
      <trkpt lat="45.62338" lon="3.45026">
        <ele>645.6625977</ele>
        <time>2012-08-23T07:47:20Z</time>
      </trkpt>
      <trkpt lat="45.62342" lon="3.45035">
        <ele>645.1818848</ele>
        <time>2012-08-23T07:47:27Z</time>
      </trkpt>
      <trkpt lat="45.62345" lon="3.45042">
        <ele>646.1433105</ele>
        <time>2012-08-23T07:47:33Z</time>
      </trkpt>
      <trkpt lat="45.62347" lon="3.45048">
        <ele>646.1433105</ele>
        <time>2012-08-23T07:47:37Z</time>
      </trkpt>
      <trkpt lat="45.62348" lon="3.4506">
        <ele>646.6240234</ele>
        <time>2012-08-23T07:47:42Z</time>
      </trkpt>
      <trkpt lat="45.6235" lon="3.45075">
        <ele>646.1433105</ele>
        <time>2012-08-23T07:47:47Z</time>
      </trkpt>
      <trkpt lat="45.62352" lon="3.45082">
        <ele>645.6625977</ele>
        <time>2012-08-23T07:47:50Z</time>
      </trkpt>
      <trkpt lat="45.62354" lon="3.45096">
        <ele>645.1818848</ele>
        <time>2012-08-23T07:47:56Z</time>
      </trkpt>
      <trkpt lat="45.62354" lon="3.45105">
        <ele>644.7011719</ele>
        <time>2012-08-23T07:47:59Z</time>
      </trkpt>
      <trkpt lat="45.62355" lon="3.45125">
        <ele>646.1433105</ele>
        <time>2012-08-23T07:48:04Z</time>
      </trkpt>
      <trkpt lat="45.62354" lon="3.45147">
        <ele>647.1044922</ele>
        <time>2012-08-23T07:48:10Z</time>
      </trkpt>
      <trkpt lat="45.62352" lon="3.45154">
        <ele>647.5852051</ele>
        <time>2012-08-23T07:48:12Z</time>
      </trkpt>
      <trkpt lat="45.62349" lon="3.45172">
        <ele>646.6240234</ele>
        <time>2012-08-23T07:48:19Z</time>
      </trkpt>
      <trkpt lat="45.62345" lon="3.4518">
        <ele>646.1433105</ele>
        <time>2012-08-23T07:48:22Z</time>
      </trkpt>
      <trkpt lat="45.62336" lon="3.45188">
        <ele>645.6625977</ele>
        <time>2012-08-23T07:48:27Z</time>
      </trkpt>
      <trkpt lat="45.62328" lon="3.45183">
        <ele>646.6240234</ele>
        <time>2012-08-23T07:48:31Z</time>
      </trkpt>
      <trkpt lat="45.62324" lon="3.45178">
        <ele>646.6240234</ele>
        <time>2012-08-23T07:48:34Z</time>
      </trkpt>
      <trkpt lat="45.62322" lon="3.45177">
        <ele>647.1044922</ele>
        <time>2012-08-23T07:48:35Z</time>
      </trkpt>
      <trkpt lat="45.62321" lon="3.45175">
        <ele>647.5852051</ele>
        <time>2012-08-23T07:48:36Z</time>
      </trkpt>
      <trkpt lat="45.62325" lon="3.45184">
        <ele>655.2758789</ele>
        <time>2012-08-23T08:07:26Z</time>
      </trkpt>
      <trkpt lat="45.62325" lon="3.45184">
        <ele>655.2758789</ele>
        <time>2012-08-23T08:07:27Z</time>
      </trkpt>
      <trkpt lat="45.62325" lon="3.45183">
        <ele>655.2758789</ele>
        <time>2012-08-23T08:07:28Z</time>
      </trkpt>
      <trkpt lat="45.62325" lon="3.45173">
        <ele>656.7177734</ele>
        <time>2012-08-23T08:07:35Z</time>
      </trkpt>
      <trkpt lat="45.62322" lon="3.45167">
        <ele>655.2758789</ele>
        <time>2012-08-23T08:07:39Z</time>
      </trkpt>
      <trkpt lat="45.62319" lon="3.4516">
        <ele>654.795166</ele>
        <time>2012-08-23T08:07:43Z</time>
      </trkpt>
      <trkpt lat="45.62314" lon="3.45152">
        <ele>656.7177734</ele>
        <time>2012-08-23T08:07:49Z</time>
      </trkpt>
      <trkpt lat="45.6231" lon="3.45143">
        <ele>658.1599121</ele>
        <time>2012-08-23T08:07:54Z</time>
      </trkpt>
      <trkpt lat="45.62308" lon="3.45138">
        <ele>659.6018066</ele>
        <time>2012-08-23T08:07:58Z</time>
      </trkpt>
      <trkpt lat="45.62302" lon="3.45127">
        <ele>661.5244141</ele>
        <time>2012-08-23T08:08:06Z</time>
      </trkpt>
      <trkpt lat="45.62294" lon="3.45118">
        <ele>664.4082031</ele>
        <time>2012-08-23T08:08:14Z</time>
      </trkpt>
      <trkpt lat="45.62289" lon="3.45108">
        <ele>666.3308105</ele>
        <time>2012-08-23T08:08:21Z</time>
      </trkpt>
      <trkpt lat="45.62285" lon="3.45098">
        <ele>668.734375</ele>
        <time>2012-08-23T08:08:26Z</time>
      </trkpt>
      <trkpt lat="45.62279" lon="3.45087">
        <ele>672.098877</ele>
        <time>2012-08-23T08:08:32Z</time>
      </trkpt>
      <trkpt lat="45.62274" lon="3.45078">
        <ele>672.5795898</ele>
        <time>2012-08-23T08:08:38Z</time>
      </trkpt>
      <trkpt lat="45.6227" lon="3.4507">
        <ele>670.6569824</ele>
        <time>2012-08-23T08:08:43Z</time>
      </trkpt>
      <trkpt lat="45.62268" lon="3.45064">
        <ele>669.2150879</ele>
        <time>2012-08-23T08:08:47Z</time>
      </trkpt>
      <trkpt lat="45.62264" lon="3.4505">
        <ele>668.2536621</ele>
        <time>2012-08-23T08:08:53Z</time>
      </trkpt>
      <trkpt lat="45.62261" lon="3.45046">
        <ele>670.1762695</ele>
        <time>2012-08-23T08:08:55Z</time>
      </trkpt>
      <trkpt lat="45.62255" lon="3.45033">
        <ele>672.5795898</ele>
        <time>2012-08-23T08:09:00Z</time>
      </trkpt>
      <trkpt lat="45.62252" lon="3.45027">
        <ele>675.4633789</ele>
        <time>2012-08-23T08:09:02Z</time>
      </trkpt>
      <trkpt lat="45.62248" lon="3.45014">
        <ele>679.3085938</ele>
        <time>2012-08-23T08:09:08Z</time>
      </trkpt>
      <trkpt lat="45.62243" lon="3.45002">
        <ele>682.192627</ele>
        <time>2012-08-23T08:09:13Z</time>
      </trkpt>
      <trkpt lat="45.62239" lon="3.44988">
        <ele>685.0769043</ele>
        <time>2012-08-23T08:09:18Z</time>
      </trkpt>
      <trkpt lat="45.62239" lon="3.44976">
        <ele>681.7119141</ele>
        <time>2012-08-23T08:09:24Z</time>
      </trkpt>
      <trkpt lat="45.62239" lon="3.44966">
        <ele>680.2700195</ele>
        <time>2012-08-23T08:09:29Z</time>
      </trkpt>
      <trkpt lat="45.62237" lon="3.4496">
        <ele>678.3474121</ele>
        <time>2012-08-23T08:09:33Z</time>
      </trkpt>
      <trkpt lat="45.62232" lon="3.4495">
        <ele>678.828125</ele>
        <time>2012-08-23T08:09:39Z</time>
      </trkpt>
      <trkpt lat="45.6223" lon="3.4494">
        <ele>678.828125</ele>
        <time>2012-08-23T08:09:44Z</time>
      </trkpt>
      <trkpt lat="45.62226" lon="3.44932">
        <ele>678.3474121</ele>
        <time>2012-08-23T08:09:49Z</time>
      </trkpt>
      <trkpt lat="45.62223" lon="3.44926">
        <ele>680.2700195</ele>
        <time>2012-08-23T08:09:53Z</time>
      </trkpt>
      <trkpt lat="45.62217" lon="3.44916">
        <ele>678.3474121</ele>
        <time>2012-08-23T08:10:00Z</time>
      </trkpt>
      <trkpt lat="45.62207" lon="3.44908">
        <ele>679.3085938</ele>
        <time>2012-08-23T08:10:06Z</time>
      </trkpt>
      <trkpt lat="45.62202" lon="3.44898">
        <ele>678.828125</ele>
        <time>2012-08-23T08:10:10Z</time>
      </trkpt>
      <trkpt lat="45.62201" lon="3.44894">
        <ele>677.8666992</ele>
        <time>2012-08-23T08:10:12Z</time>
      </trkpt>
      <trkpt lat="45.62194" lon="3.44882">
        <ele>676.4248047</ele>
        <time>2012-08-23T08:10:17Z</time>
      </trkpt>
      <trkpt lat="45.62189" lon="3.44867">
        <ele>675.4633789</ele>
        <time>2012-08-23T08:10:22Z</time>
      </trkpt>
      <trkpt lat="45.62187" lon="3.44851">
        <ele>679.7893066</ele>
        <time>2012-08-23T08:10:27Z</time>
      </trkpt>
      <trkpt lat="45.62185" lon="3.44834">
        <ele>682.192627</ele>
        <time>2012-08-23T08:10:33Z</time>
      </trkpt>
      <trkpt lat="45.62187" lon="3.44819">
        <ele>686.9992676</ele>
        <time>2012-08-23T08:10:38Z</time>
      </trkpt>
      <trkpt lat="45.62189" lon="3.44812">
        <ele>686.9992676</ele>
        <time>2012-08-23T08:10:41Z</time>
      </trkpt>
      <trkpt lat="45.62191" lon="3.44808">
        <ele>686.9992676</ele>
        <time>2012-08-23T08:10:43Z</time>
      </trkpt>
      <trkpt lat="45.62199" lon="3.448">
        <ele>685.557373</ele>
        <time>2012-08-23T08:10:49Z</time>
      </trkpt>
      <trkpt lat="45.62209" lon="3.44793">
        <ele>684.5961914</ele>
        <time>2012-08-23T08:10:55Z</time>
      </trkpt>
      <trkpt lat="45.62211" lon="3.4479">
        <ele>684.5961914</ele>
        <time>2012-08-23T08:10:57Z</time>
      </trkpt>
      <trkpt lat="45.62214" lon="3.44786">
        <ele>683.1538086</ele>
        <time>2012-08-23T08:10:59Z</time>
      </trkpt>
      <trkpt lat="45.62215" lon="3.44775">
        <ele>682.192627</ele>
        <time>2012-08-23T08:11:04Z</time>
      </trkpt>
      <trkpt lat="45.62216" lon="3.44772">
        <ele>681.7119141</ele>
        <time>2012-08-23T08:11:06Z</time>
      </trkpt>
      <trkpt lat="45.62218" lon="3.44763">
        <ele>681.7119141</ele>
        <time>2012-08-23T08:11:11Z</time>
      </trkpt>
      <trkpt lat="45.62219" lon="3.4476">
        <ele>681.2314453</ele>
        <time>2012-08-23T08:11:13Z</time>
      </trkpt>
      <trkpt lat="45.62222" lon="3.44746">
        <ele>684.5961914</ele>
        <time>2012-08-23T08:11:20Z</time>
      </trkpt>
      <trkpt lat="45.62224" lon="3.44738">
        <ele>684.1154785</ele>
        <time>2012-08-23T08:11:24Z</time>
      </trkpt>
      <trkpt lat="45.62228" lon="3.44725">
        <ele>686.9992676</ele>
        <time>2012-08-23T08:11:30Z</time>
      </trkpt>
      <trkpt lat="45.62228" lon="3.44723">
        <ele>686.9992676</ele>
        <time>2012-08-23T08:11:31Z</time>
      </trkpt>
      <trkpt lat="45.62226" lon="3.44712">
        <ele>688.9221191</ele>
        <time>2012-08-23T08:11:37Z</time>
      </trkpt>
      <trkpt lat="45.62221" lon="3.44701">
        <ele>691.8059082</ele>
        <time>2012-08-23T08:11:43Z</time>
      </trkpt>
      <trkpt lat="45.62221" lon="3.44699">
        <ele>692.2866211</ele>
        <time>2012-08-23T08:11:44Z</time>
      </trkpt>
      <trkpt lat="45.62215" lon="3.4468">
        <ele>703.8225098</ele>
        <time>2012-08-23T08:11:52Z</time>
      </trkpt>
      <trkpt lat="45.62212" lon="3.44668">
        <ele>710.0708008</ele>
        <time>2012-08-23T08:11:57Z</time>
      </trkpt>
      <trkpt lat="45.62209" lon="3.44659">
        <ele>709.1096191</ele>
        <time>2012-08-23T08:12:03Z</time>
      </trkpt>
      <trkpt lat="45.62206" lon="3.4465">
        <ele>709.1096191</ele>
        <time>2012-08-23T08:12:09Z</time>
      </trkpt>
      <trkpt lat="45.62203" lon="3.44645">
        <ele>707.1870117</ele>
        <time>2012-08-23T08:12:14Z</time>
      </trkpt>
      <trkpt lat="45.62202" lon="3.44642">
        <ele>706.7062988</ele>
        <time>2012-08-23T08:12:16Z</time>
      </trkpt>
      <trkpt lat="45.622" lon="3.44635">
        <ele>705.7451172</ele>
        <time>2012-08-23T08:12:21Z</time>
      </trkpt>
      <trkpt lat="45.62198" lon="3.44623">
        <ele>707.1870117</ele>
        <time>2012-08-23T08:12:29Z</time>
      </trkpt>
      <trkpt lat="45.62194" lon="3.44615">
        <ele>708.1484375</ele>
        <time>2012-08-23T08:12:34Z</time>
      </trkpt>
      <trkpt lat="45.62189" lon="3.44605">
        <ele>708.1484375</ele>
        <time>2012-08-23T08:12:40Z</time>
      </trkpt>
      <trkpt lat="45.62186" lon="3.44596">
        <ele>707.6677246</ele>
        <time>2012-08-23T08:12:46Z</time>
      </trkpt>
      <trkpt lat="45.62181" lon="3.44586">
        <ele>709.590332</ele>
        <time>2012-08-23T08:12:52Z</time>
      </trkpt>
      <trkpt lat="45.62177" lon="3.44574">
        <ele>706.7062988</ele>
        <time>2012-08-23T08:12:59Z</time>
      </trkpt>
      <trkpt lat="45.62171" lon="3.44562">
        <ele>709.1096191</ele>
        <time>2012-08-23T08:13:06Z</time>
      </trkpt>
      <trkpt lat="45.62165" lon="3.44553">
        <ele>709.1096191</ele>
        <time>2012-08-23T08:13:13Z</time>
      </trkpt>
      <trkpt lat="45.62161" lon="3.44549">
        <ele>708.6289063</ele>
        <time>2012-08-23T08:13:17Z</time>
      </trkpt>
      <trkpt lat="45.62154" lon="3.44542">
        <ele>708.6289063</ele>
        <time>2012-08-23T08:13:23Z</time>
      </trkpt>
      <trkpt lat="45.62149" lon="3.4453">
        <ele>708.1484375</ele>
        <time>2012-08-23T08:13:29Z</time>
      </trkpt>
      <trkpt lat="45.62144" lon="3.44517">
        <ele>708.1484375</ele>
        <time>2012-08-23T08:13:34Z</time>
      </trkpt>
      <trkpt lat="45.62137" lon="3.44503">
        <ele>709.1096191</ele>
        <time>2012-08-23T08:13:39Z</time>
      </trkpt>
      <trkpt lat="45.62134" lon="3.44487">
        <ele>709.590332</ele>
        <time>2012-08-23T08:13:43Z</time>
      </trkpt>
      <trkpt lat="45.62132" lon="3.4447">
        <ele>708.1484375</ele>
        <time>2012-08-23T08:13:48Z</time>
      </trkpt>
      <trkpt lat="45.62133" lon="3.44456">
        <ele>708.1484375</ele>
        <time>2012-08-23T08:13:53Z</time>
      </trkpt>
      <trkpt lat="45.62134" lon="3.44437">
        <ele>709.1096191</ele>
        <time>2012-08-23T08:13:59Z</time>
      </trkpt>
      <trkpt lat="45.62134" lon="3.44428">
        <ele>709.590332</ele>
        <time>2012-08-23T08:14:02Z</time>
      </trkpt>
      <trkpt lat="45.62131" lon="3.44409">
        <ele>706.2255859</ele>
        <time>2012-08-23T08:14:08Z</time>
      </trkpt>
      <trkpt lat="45.62128" lon="3.44396">
        <ele>704.3032227</ele>
        <time>2012-08-23T08:14:12Z</time>
      </trkpt>
      <trkpt lat="45.62128" lon="3.44382">
        <ele>703.8225098</ele>
        <time>2012-08-23T08:14:16Z</time>
      </trkpt>
      <trkpt lat="45.62122" lon="3.44358">
        <ele>704.7836914</ele>
        <time>2012-08-23T08:14:23Z</time>
      </trkpt>
      <trkpt lat="45.62119" lon="3.44348">
        <ele>704.7836914</ele>
        <time>2012-08-23T08:14:27Z</time>
      </trkpt>
      <trkpt lat="45.62115" lon="3.44334">
        <ele>705.7451172</ele>
        <time>2012-08-23T08:14:31Z</time>
      </trkpt>
      <trkpt lat="45.62109" lon="3.44322">
        <ele>707.6677246</ele>
        <time>2012-08-23T08:14:36Z</time>
      </trkpt>
      <trkpt lat="45.62102" lon="3.44306">
        <ele>709.1096191</ele>
        <time>2012-08-23T08:14:42Z</time>
      </trkpt>
      <trkpt lat="45.62095" lon="3.4429">
        <ele>709.1096191</ele>
        <time>2012-08-23T08:14:47Z</time>
      </trkpt>
      <trkpt lat="45.62088" lon="3.44278">
        <ele>707.1870117</ele>
        <time>2012-08-23T08:14:52Z</time>
      </trkpt>
      <trkpt lat="45.62081" lon="3.44258">
        <ele>707.1870117</ele>
        <time>2012-08-23T08:14:58Z</time>
      </trkpt>
      <trkpt lat="45.62075" lon="3.44238">
        <ele>707.1870117</ele>
        <time>2012-08-23T08:15:04Z</time>
      </trkpt>
      <trkpt lat="45.62071" lon="3.44222">
        <ele>707.6677246</ele>
        <time>2012-08-23T08:15:09Z</time>
      </trkpt>
      <trkpt lat="45.62065" lon="3.4421">
        <ele>707.6677246</ele>
        <time>2012-08-23T08:15:13Z</time>
      </trkpt>
      <trkpt lat="45.62062" lon="3.44197">
        <ele>708.1484375</ele>
        <time>2012-08-23T08:15:17Z</time>
      </trkpt>
      <trkpt lat="45.62056" lon="3.44185">
        <ele>709.1096191</ele>
        <time>2012-08-23T08:15:21Z</time>
      </trkpt>
      <trkpt lat="45.6205" lon="3.44169">
        <ele>706.7062988</ele>
        <time>2012-08-23T08:15:26Z</time>
      </trkpt>
      <trkpt lat="45.62046" lon="3.44161">
        <ele>705.2644043</ele>
        <time>2012-08-23T08:15:29Z</time>
      </trkpt>
      <trkpt lat="45.6204" lon="3.44141">
        <ele>704.3032227</ele>
        <time>2012-08-23T08:15:36Z</time>
      </trkpt>
      <trkpt lat="45.62037" lon="3.44126">
        <ele>703.8225098</ele>
        <time>2012-08-23T08:15:41Z</time>
      </trkpt>
      <trkpt lat="45.62031" lon="3.44112">
        <ele>704.7836914</ele>
        <time>2012-08-23T08:15:47Z</time>
      </trkpt>
      <trkpt lat="45.6203" lon="3.4411">
        <ele>704.7836914</ele>
        <time>2012-08-23T08:15:48Z</time>
      </trkpt>
      <trkpt lat="45.62022" lon="3.44097">
        <ele>703.8225098</ele>
        <time>2012-08-23T08:15:55Z</time>
      </trkpt>
      <trkpt lat="45.62009" lon="3.44085">
        <ele>703.3417969</ele>
        <time>2012-08-23T08:16:01Z</time>
      </trkpt>
      <trkpt lat="45.61998" lon="3.44073">
        <ele>704.7836914</ele>
        <time>2012-08-23T08:16:06Z</time>
      </trkpt>
      <trkpt lat="45.61985" lon="3.44063">
        <ele>706.7062988</ele>
        <time>2012-08-23T08:16:11Z</time>
      </trkpt>
      <trkpt lat="45.61972" lon="3.4405">
        <ele>707.1870117</ele>
        <time>2012-08-23T08:16:17Z</time>
      </trkpt>
      <trkpt lat="45.6197" lon="3.44048">
        <ele>707.6677246</ele>
        <time>2012-08-23T08:16:18Z</time>
      </trkpt>
      <trkpt lat="45.61969" lon="3.44034">
        <ele>707.1870117</ele>
        <time>2012-08-23T08:16:22Z</time>
      </trkpt>
      <trkpt lat="45.61971" lon="3.4403">
        <ele>706.7062988</ele>
        <time>2012-08-23T08:16:23Z</time>
      </trkpt>
      <trkpt lat="45.61984" lon="3.43996">
        <ele>706.2255859</ele>
        <time>2012-08-23T08:16:33Z</time>
      </trkpt>
      <trkpt lat="45.6199" lon="3.43978">
        <ele>706.2255859</ele>
        <time>2012-08-23T08:16:38Z</time>
      </trkpt>
      <trkpt lat="45.61995" lon="3.43957">
        <ele>706.2255859</ele>
        <time>2012-08-23T08:16:44Z</time>
      </trkpt>
      <trkpt lat="45.61995" lon="3.43942">
        <ele>705.2644043</ele>
        <time>2012-08-23T08:16:48Z</time>
      </trkpt>
      <trkpt lat="45.61988" lon="3.43927">
        <ele>702.861084</ele>
        <time>2012-08-23T08:16:53Z</time>
      </trkpt>
      <trkpt lat="45.61985" lon="3.43925">
        <ele>702.3803711</ele>
        <time>2012-08-23T08:16:54Z</time>
      </trkpt>
      <trkpt lat="45.61969" lon="3.43917">
        <ele>701.8999023</ele>
        <time>2012-08-23T08:17:00Z</time>
      </trkpt>
      <trkpt lat="45.61966" lon="3.43916">
        <ele>701.8999023</ele>
        <time>2012-08-23T08:17:01Z</time>
      </trkpt>
      <trkpt lat="45.61951" lon="3.4391">
        <ele>701.4191895</ele>
        <time>2012-08-23T08:17:06Z</time>
      </trkpt>
      <trkpt lat="45.61941" lon="3.43903">
        <ele>699.9770508</ele>
        <time>2012-08-23T08:17:10Z</time>
      </trkpt>
      <trkpt lat="45.61933" lon="3.43899">
        <ele>699.015625</ele>
        <time>2012-08-23T08:17:14Z</time>
      </trkpt>
      <trkpt lat="45.61925" lon="3.43893">
        <ele>698.0544434</ele>
        <time>2012-08-23T08:17:17Z</time>
      </trkpt>
      <trkpt lat="45.61922" lon="3.43892">
        <ele>697.5737305</ele>
        <time>2012-08-23T08:17:18Z</time>
      </trkpt>
      <trkpt lat="45.61909" lon="3.43885">
        <ele>699.4963379</ele>
        <time>2012-08-23T08:17:23Z</time>
      </trkpt>
      <trkpt lat="45.61896" lon="3.4388">
        <ele>698.5349121</ele>
        <time>2012-08-23T08:17:28Z</time>
      </trkpt>
      <trkpt lat="45.61884" lon="3.43876">
        <ele>697.5737305</ele>
        <time>2012-08-23T08:17:32Z</time>
      </trkpt>
      <trkpt lat="45.61883" lon="3.43859">
        <ele>693.7285156</ele>
        <time>2012-08-23T08:17:36Z</time>
      </trkpt>
      <trkpt lat="45.6189" lon="3.43846">
        <ele>690.8444824</ele>
        <time>2012-08-23T08:17:40Z</time>
      </trkpt>
      <trkpt lat="45.61893" lon="3.43836">
        <ele>689.4025879</ele>
        <time>2012-08-23T08:17:43Z</time>
      </trkpt>
      <trkpt lat="45.61895" lon="3.43811">
        <ele>686.0380859</ele>
        <time>2012-08-23T08:17:49Z</time>
      </trkpt>
      <trkpt lat="45.61898" lon="3.43789">
        <ele>685.0769043</ele>
        <time>2012-08-23T08:17:54Z</time>
      </trkpt>
      <trkpt lat="45.61906" lon="3.43777">
        <ele>684.1154785</ele>
        <time>2012-08-23T08:17:58Z</time>
      </trkpt>
      <trkpt lat="45.61915" lon="3.43768">
        <ele>683.1538086</ele>
        <time>2012-08-23T08:18:03Z</time>
      </trkpt>
      <trkpt lat="45.61921" lon="3.43761">
        <ele>684.1154785</ele>
        <time>2012-08-23T08:18:07Z</time>
      </trkpt>
      <trkpt lat="45.61926" lon="3.43745">
        <ele>685.557373</ele>
        <time>2012-08-23T08:18:12Z</time>
      </trkpt>
      <trkpt lat="45.61926" lon="3.4373">
        <ele>686.9992676</ele>
        <time>2012-08-23T08:18:16Z</time>
      </trkpt>
      <trkpt lat="45.61926" lon="3.43712">
        <ele>687.4799805</ele>
        <time>2012-08-23T08:18:21Z</time>
      </trkpt>
      <trkpt lat="45.61922" lon="3.437">
        <ele>688.4414063</ele>
        <time>2012-08-23T08:18:25Z</time>
      </trkpt>
      <trkpt lat="45.61911" lon="3.43688">
        <ele>689.4025879</ele>
        <time>2012-08-23T08:18:31Z</time>
      </trkpt>
      <trkpt lat="45.61901" lon="3.43679">
        <ele>689.8833008</ele>
        <time>2012-08-23T08:18:36Z</time>
      </trkpt>
      <trkpt lat="45.61891" lon="3.43675">
        <ele>691.3251953</ele>
        <time>2012-08-23T08:18:40Z</time>
      </trkpt>
      <trkpt lat="45.61877" lon="3.43669">
        <ele>691.3251953</ele>
        <time>2012-08-23T08:18:45Z</time>
      </trkpt>
      <trkpt lat="45.61866" lon="3.43665">
        <ele>690.8444824</ele>
        <time>2012-08-23T08:18:49Z</time>
      </trkpt>
      <trkpt lat="45.6185" lon="3.4366">
        <ele>688.9221191</ele>
        <time>2012-08-23T08:18:55Z</time>
      </trkpt>
      <trkpt lat="45.61839" lon="3.43652">
        <ele>686.0380859</ele>
        <time>2012-08-23T08:19:00Z</time>
      </trkpt>
      <trkpt lat="45.61837" lon="3.43644">
        <ele>685.557373</ele>
        <time>2012-08-23T08:19:02Z</time>
      </trkpt>
      <trkpt lat="45.61841" lon="3.43621">
        <ele>680.7507324</ele>
        <time>2012-08-23T08:19:08Z</time>
      </trkpt>
      <trkpt lat="45.61848" lon="3.43606">
        <ele>677.3862305</ele>
        <time>2012-08-23T08:19:13Z</time>
      </trkpt>
      <trkpt lat="45.61853" lon="3.43598">
        <ele>674.9829102</ele>
        <time>2012-08-23T08:19:17Z</time>
      </trkpt>
      <trkpt lat="45.61859" lon="3.43586">
        <ele>671.1376953</ele>
        <time>2012-08-23T08:19:22Z</time>
      </trkpt>
      <trkpt lat="45.61864" lon="3.43579">
        <ele>668.2536621</ele>
        <time>2012-08-23T08:19:25Z</time>
      </trkpt>
      <trkpt lat="45.6187" lon="3.43563">
        <ele>665.3696289</ele>
        <time>2012-08-23T08:19:31Z</time>
      </trkpt>
      <trkpt lat="45.61872" lon="3.43556">
        <ele>665.3696289</ele>
        <time>2012-08-23T08:19:33Z</time>
      </trkpt>
      <trkpt lat="45.61869" lon="3.43528">
        <ele>674.9829102</ele>
        <time>2012-08-23T08:19:39Z</time>
      </trkpt>
      <trkpt lat="45.6187" lon="3.43512">
        <ele>676.9055176</ele>
        <time>2012-08-23T08:19:43Z</time>
      </trkpt>
      <trkpt lat="45.61871" lon="3.43505">
        <ele>678.3474121</ele>
        <time>2012-08-23T08:19:45Z</time>
      </trkpt>
      <trkpt lat="45.61872" lon="3.43502">
        <ele>677.3862305</ele>
        <time>2012-08-23T08:19:46Z</time>
      </trkpt>
      <trkpt lat="45.61874" lon="3.43499">
        <ele>676.4248047</ele>
        <time>2012-08-23T08:19:47Z</time>
      </trkpt>
      <trkpt lat="45.61877" lon="3.43488">
        <ele>674.0214844</ele>
        <time>2012-08-23T08:19:50Z</time>
      </trkpt>
      <trkpt lat="45.61881" lon="3.43468">
        <ele>672.5795898</ele>
        <time>2012-08-23T08:19:57Z</time>
      </trkpt>
      <trkpt lat="45.61881" lon="3.43464">
        <ele>673.0603027</ele>
        <time>2012-08-23T08:19:58Z</time>
      </trkpt>
      <trkpt lat="45.6188" lon="3.43445">
        <ele>674.0214844</ele>
        <time>2012-08-23T08:20:04Z</time>
      </trkpt>
      <trkpt lat="45.61881" lon="3.43442">
        <ele>673.5410156</ele>
        <time>2012-08-23T08:20:05Z</time>
      </trkpt>
      <trkpt lat="45.61881" lon="3.43414">
        <ele>670.6569824</ele>
        <time>2012-08-23T08:20:12Z</time>
      </trkpt>
      <trkpt lat="45.61882" lon="3.43393">
        <ele>671.6181641</ele>
        <time>2012-08-23T08:20:17Z</time>
      </trkpt>
      <trkpt lat="45.61884" lon="3.43376">
        <ele>672.098877</ele>
        <time>2012-08-23T08:20:22Z</time>
      </trkpt>
      <trkpt lat="45.61884" lon="3.43373">
        <ele>672.098877</ele>
        <time>2012-08-23T08:20:23Z</time>
      </trkpt>
      <trkpt lat="45.61879" lon="3.43358">
        <ele>673.5410156</ele>
        <time>2012-08-23T08:20:29Z</time>
      </trkpt>
      <trkpt lat="45.61878" lon="3.43348">
        <ele>672.098877</ele>
        <time>2012-08-23T08:20:33Z</time>
      </trkpt>
      <trkpt lat="45.61875" lon="3.43336">
        <ele>672.5795898</ele>
        <time>2012-08-23T08:20:37Z</time>
      </trkpt>
      <trkpt lat="45.61871" lon="3.43327">
        <ele>672.098877</ele>
        <time>2012-08-23T08:20:41Z</time>
      </trkpt>
      <trkpt lat="45.61868" lon="3.43323">
        <ele>675.4633789</ele>
        <time>2012-08-23T08:20:42Z</time>
      </trkpt>
      <trkpt lat="45.6186" lon="3.43311">
        <ele>675.9440918</ele>
        <time>2012-08-23T08:20:47Z</time>
      </trkpt>
      <trkpt lat="45.61857" lon="3.43291">
        <ele>671.1376953</ele>
        <time>2012-08-23T08:20:53Z</time>
      </trkpt>
      <trkpt lat="45.61856" lon="3.43284">
        <ele>670.1762695</ele>
        <time>2012-08-23T08:20:55Z</time>
      </trkpt>
      <trkpt lat="45.61855" lon="3.43281">
        <ele>669.2150879</ele>
        <time>2012-08-23T08:20:56Z</time>
      </trkpt>
      <trkpt lat="45.61848" lon="3.43271">
        <ele>665.8503418</ele>
        <time>2012-08-23T08:21:00Z</time>
      </trkpt>
      <trkpt lat="45.61844" lon="3.43259">
        <ele>662.005127</ele>
        <time>2012-08-23T08:21:04Z</time>
      </trkpt>
      <trkpt lat="45.61845" lon="3.43256">
        <ele>661.0437012</ele>
        <time>2012-08-23T08:21:05Z</time>
      </trkpt>
      <trkpt lat="45.61848" lon="3.43244">
        <ele>657.6791992</ele>
        <time>2012-08-23T08:21:10Z</time>
      </trkpt>
      <trkpt lat="45.6185" lon="3.43226">
        <ele>656.2370605</ele>
        <time>2012-08-23T08:21:16Z</time>
      </trkpt>
      <trkpt lat="45.6185" lon="3.43211">
        <ele>658.6403809</ele>
        <time>2012-08-23T08:21:21Z</time>
      </trkpt>
      <trkpt lat="45.61849" lon="3.43197">
        <ele>661.5244141</ele>
        <time>2012-08-23T08:21:25Z</time>
      </trkpt>
      <trkpt lat="45.61851" lon="3.43183">
        <ele>662.4855957</ele>
        <time>2012-08-23T08:21:30Z</time>
      </trkpt>
      <trkpt lat="45.61853" lon="3.43177">
        <ele>663.9274902</ele>
        <time>2012-08-23T08:21:32Z</time>
      </trkpt>
      <trkpt lat="45.61854" lon="3.43174">
        <ele>664.4082031</ele>
        <time>2012-08-23T08:21:33Z</time>
      </trkpt>
      <trkpt lat="45.61858" lon="3.43162">
        <ele>665.3696289</ele>
        <time>2012-08-23T08:21:37Z</time>
      </trkpt>
      <trkpt lat="45.61863" lon="3.4315">
        <ele>665.8503418</ele>
        <time>2012-08-23T08:21:43Z</time>
      </trkpt>
      <trkpt lat="45.61865" lon="3.43147">
        <ele>666.3308105</ele>
        <time>2012-08-23T08:21:44Z</time>
      </trkpt>
      <trkpt lat="45.61867" lon="3.43143">
        <ele>665.8503418</ele>
        <time>2012-08-23T08:21:46Z</time>
      </trkpt>
      <trkpt lat="45.61874" lon="3.4313">
        <ele>665.8503418</ele>
        <time>2012-08-23T08:21:53Z</time>
      </trkpt>
      <trkpt lat="45.61876" lon="3.43127">
        <ele>666.3308105</ele>
        <time>2012-08-23T08:21:55Z</time>
      </trkpt>
      <trkpt lat="45.61876" lon="3.43124">
        <ele>667.7727051</ele>
        <time>2012-08-23T08:21:56Z</time>
      </trkpt>
      <trkpt lat="45.61876" lon="3.43119">
        <ele>671.1376953</ele>
        <time>2012-08-23T08:21:58Z</time>
      </trkpt>
      <trkpt lat="45.6188" lon="3.43112">
        <ele>670.6569824</ele>
        <time>2012-08-23T08:22:02Z</time>
      </trkpt>
      <trkpt lat="45.61881" lon="3.43109">
        <ele>670.1762695</ele>
        <time>2012-08-23T08:22:04Z</time>
      </trkpt>
      <trkpt lat="45.61889" lon="3.43096">
        <ele>671.1376953</ele>
        <time>2012-08-23T08:22:12Z</time>
      </trkpt>
      <trkpt lat="45.61891" lon="3.43091">
        <ele>671.1376953</ele>
        <time>2012-08-23T08:22:15Z</time>
      </trkpt>
      <trkpt lat="45.61893" lon="3.43084">
        <ele>671.6181641</ele>
        <time>2012-08-23T08:22:19Z</time>
      </trkpt>
      <trkpt lat="45.61894" lon="3.43075">
        <ele>674.5021973</ele>
        <time>2012-08-23T08:22:24Z</time>
      </trkpt>
      <trkpt lat="45.61898" lon="3.43061">
        <ele>676.4248047</ele>
        <time>2012-08-23T08:22:32Z</time>
      </trkpt>
      <trkpt lat="45.61902" lon="3.43047">
        <ele>677.3862305</ele>
        <time>2012-08-23T08:22:40Z</time>
      </trkpt>
      <trkpt lat="45.61902" lon="3.43045">
        <ele>677.3862305</ele>
        <time>2012-08-23T08:22:41Z</time>
      </trkpt>
      <trkpt lat="45.61906" lon="3.43023">
        <ele>676.9055176</ele>
        <time>2012-08-23T08:22:49Z</time>
      </trkpt>
      <trkpt lat="45.61909" lon="3.43005">
        <ele>677.8666992</ele>
        <time>2012-08-23T08:22:56Z</time>
      </trkpt>
      <trkpt lat="45.61914" lon="3.4299">
        <ele>678.828125</ele>
        <time>2012-08-23T08:23:02Z</time>
      </trkpt>
      <trkpt lat="45.61918" lon="3.42975">
        <ele>680.2700195</ele>
        <time>2012-08-23T08:23:07Z</time>
      </trkpt>
      <trkpt lat="45.61921" lon="3.42961">
        <ele>680.7507324</ele>
        <time>2012-08-23T08:23:12Z</time>
      </trkpt>
      <trkpt lat="45.6193" lon="3.42949">
        <ele>680.7507324</ele>
        <time>2012-08-23T08:23:17Z</time>
      </trkpt>
      <trkpt lat="45.61939" lon="3.42937">
        <ele>680.2700195</ele>
        <time>2012-08-23T08:23:22Z</time>
      </trkpt>
      <trkpt lat="45.61951" lon="3.42921">
        <ele>677.3862305</ele>
        <time>2012-08-23T08:23:28Z</time>
      </trkpt>
      <trkpt lat="45.61961" lon="3.42911">
        <ele>675.9440918</ele>
        <time>2012-08-23T08:23:33Z</time>
      </trkpt>
      <trkpt lat="45.61971" lon="3.42899">
        <ele>674.9829102</ele>
        <time>2012-08-23T08:23:38Z</time>
      </trkpt>
      <trkpt lat="45.61986" lon="3.42888">
        <ele>674.0214844</ele>
        <time>2012-08-23T08:23:44Z</time>
      </trkpt>
      <trkpt lat="45.61997" lon="3.42877">
        <ele>674.5021973</ele>
        <time>2012-08-23T08:23:49Z</time>
      </trkpt>
      <trkpt lat="45.6201" lon="3.42864">
        <ele>674.5021973</ele>
        <time>2012-08-23T08:23:55Z</time>
      </trkpt>
      <trkpt lat="45.62021" lon="3.42851">
        <ele>675.4633789</ele>
        <time>2012-08-23T08:24:01Z</time>
      </trkpt>
      <trkpt lat="45.62029" lon="3.42839">
        <ele>676.4248047</ele>
        <time>2012-08-23T08:24:06Z</time>
      </trkpt>
      <trkpt lat="45.62037" lon="3.42826">
        <ele>676.9055176</ele>
        <time>2012-08-23T08:24:11Z</time>
      </trkpt>
      <trkpt lat="45.62042" lon="3.42811">
        <ele>676.4248047</ele>
        <time>2012-08-23T08:24:16Z</time>
      </trkpt>
      <trkpt lat="45.62045" lon="3.42789">
        <ele>674.9829102</ele>
        <time>2012-08-23T08:24:22Z</time>
      </trkpt>
      <trkpt lat="45.62048" lon="3.42768">
        <ele>673.0603027</ele>
        <time>2012-08-23T08:24:28Z</time>
      </trkpt>
      <trkpt lat="45.62053" lon="3.4275">
        <ele>671.6181641</ele>
        <time>2012-08-23T08:24:33Z</time>
      </trkpt>
      <trkpt lat="45.62062" lon="3.42724">
        <ele>669.2150879</ele>
        <time>2012-08-23T08:24:41Z</time>
      </trkpt>
      <trkpt lat="45.62074" lon="3.42709">
        <ele>667.2922363</ele>
        <time>2012-08-23T08:24:47Z</time>
      </trkpt>
      <trkpt lat="45.62084" lon="3.42712">
        <ele>666.8115234</ele>
        <time>2012-08-23T08:24:51Z</time>
      </trkpt>
      <trkpt lat="45.62087" lon="3.42713">
        <ele>666.3308105</ele>
        <time>2012-08-23T08:24:52Z</time>
      </trkpt>
      <trkpt lat="45.62101" lon="3.42733">
        <ele>662.9663086</ele>
        <time>2012-08-23T08:24:59Z</time>
      </trkpt>
      <trkpt lat="45.62117" lon="3.42744">
        <ele>666.3308105</ele>
        <time>2012-08-23T08:25:04Z</time>
      </trkpt>
      <trkpt lat="45.62129" lon="3.42758">
        <ele>667.7727051</ele>
        <time>2012-08-23T08:25:09Z</time>
      </trkpt>
      <trkpt lat="45.62138" lon="3.42771">
        <ele>670.1762695</ele>
        <time>2012-08-23T08:25:14Z</time>
      </trkpt>
      <trkpt lat="45.62145" lon="3.42779">
        <ele>671.6181641</ele>
        <time>2012-08-23T08:25:18Z</time>
      </trkpt>
      <trkpt lat="45.62154" lon="3.42779">
        <ele>669.2150879</ele>
        <time>2012-08-23T08:25:22Z</time>
      </trkpt>
      <trkpt lat="45.6216" lon="3.42772">
        <ele>665.8503418</ele>
        <time>2012-08-23T08:25:27Z</time>
      </trkpt>
      <trkpt lat="45.62167" lon="3.42767">
        <ele>664.4082031</ele>
        <time>2012-08-23T08:25:32Z</time>
      </trkpt>
      <trkpt lat="45.62174" lon="3.42759">
        <ele>663.9274902</ele>
        <time>2012-08-23T08:25:37Z</time>
      </trkpt>
      <trkpt lat="45.62176" lon="3.42754">
        <ele>663.4470215</ele>
        <time>2012-08-23T08:25:39Z</time>
      </trkpt>
      <trkpt lat="45.62183" lon="3.4274">
        <ele>660.5629883</ele>
        <time>2012-08-23T08:25:45Z</time>
      </trkpt>
      <trkpt lat="45.6219" lon="3.42729">
        <ele>660.5629883</ele>
        <time>2012-08-23T08:25:50Z</time>
      </trkpt>
      <trkpt lat="45.62196" lon="3.42715">
        <ele>661.0437012</ele>
        <time>2012-08-23T08:25:55Z</time>
      </trkpt>
      <trkpt lat="45.622" lon="3.42705">
        <ele>662.005127</ele>
        <time>2012-08-23T08:26:00Z</time>
      </trkpt>
      <trkpt lat="45.62201" lon="3.42708">
        <ele>664.4082031</ele>
        <time>2012-08-23T08:26:04Z</time>
      </trkpt>
      <trkpt lat="45.62202" lon="3.42706">
        <ele>668.734375</ele>
        <time>2012-08-23T08:26:10Z</time>
      </trkpt>
      <trkpt lat="45.62201" lon="3.427">
        <ele>669.6958008</ele>
        <time>2012-08-23T08:26:15Z</time>
      </trkpt>
      <trkpt lat="45.62203" lon="3.42693">
        <ele>665.8503418</ele>
        <time>2012-08-23T08:26:21Z</time>
      </trkpt>
      <trkpt lat="45.62208" lon="3.42682">
        <ele>663.9274902</ele>
        <time>2012-08-23T08:26:26Z</time>
      </trkpt>
      <trkpt lat="45.62215" lon="3.42669">
        <ele>663.9274902</ele>
        <time>2012-08-23T08:26:30Z</time>
      </trkpt>
      <trkpt lat="45.62223" lon="3.42651">
        <ele>661.0437012</ele>
        <time>2012-08-23T08:26:37Z</time>
      </trkpt>
      <trkpt lat="45.62231" lon="3.42634">
        <ele>658.1599121</ele>
        <time>2012-08-23T08:26:43Z</time>
      </trkpt>
      <trkpt lat="45.62237" lon="3.42619">
        <ele>659.1210938</ele>
        <time>2012-08-23T08:26:48Z</time>
      </trkpt>
      <trkpt lat="45.62244" lon="3.42601">
        <ele>661.0437012</ele>
        <time>2012-08-23T08:26:54Z</time>
      </trkpt>
      <trkpt lat="45.62249" lon="3.42587">
        <ele>662.4855957</ele>
        <time>2012-08-23T08:26:59Z</time>
      </trkpt>
      <trkpt lat="45.62257" lon="3.42572">
        <ele>662.005127</ele>
        <time>2012-08-23T08:27:04Z</time>
      </trkpt>
      <trkpt lat="45.62264" lon="3.42557">
        <ele>662.005127</ele>
        <time>2012-08-23T08:27:09Z</time>
      </trkpt>
      <trkpt lat="45.62269" lon="3.42545">
        <ele>661.0437012</ele>
        <time>2012-08-23T08:27:13Z</time>
      </trkpt>
      <trkpt lat="45.62276" lon="3.4253">
        <ele>660.5629883</ele>
        <time>2012-08-23T08:27:18Z</time>
      </trkpt>
      <trkpt lat="45.62282" lon="3.42513">
        <ele>661.0437012</ele>
        <time>2012-08-23T08:27:23Z</time>
      </trkpt>
      <trkpt lat="45.62288" lon="3.42496">
        <ele>660.5629883</ele>
        <time>2012-08-23T08:27:28Z</time>
      </trkpt>
      <trkpt lat="45.62294" lon="3.42483">
        <ele>660.0822754</ele>
        <time>2012-08-23T08:27:33Z</time>
      </trkpt>
      <trkpt lat="45.62293" lon="3.42468">
        <ele>660.5629883</ele>
        <time>2012-08-23T08:27:38Z</time>
      </trkpt>
      <trkpt lat="45.62292" lon="3.42454">
        <ele>660.0822754</ele>
        <time>2012-08-23T08:27:42Z</time>
      </trkpt>
      <trkpt lat="45.62294" lon="3.42438">
        <ele>656.7177734</ele>
        <time>2012-08-23T08:27:47Z</time>
      </trkpt>
      <trkpt lat="45.62295" lon="3.42436">
        <ele>655.7565918</ele>
        <time>2012-08-23T08:27:48Z</time>
      </trkpt>
      <trkpt lat="45.62297" lon="3.42423">
        <ele>653.3532715</ele>
        <time>2012-08-23T08:27:53Z</time>
      </trkpt>
      <trkpt lat="45.62301" lon="3.42416">
        <ele>651.9111328</ele>
        <time>2012-08-23T08:27:56Z</time>
      </trkpt>
      <trkpt lat="45.62307" lon="3.42405">
        <ele>650.949707</ele>
        <time>2012-08-23T08:28:01Z</time>
      </trkpt>
      <trkpt lat="45.6231" lon="3.42399">
        <ele>649.9885254</ele>
        <time>2012-08-23T08:28:03Z</time>
      </trkpt>
      <trkpt lat="45.62319" lon="3.42386">
        <ele>649.5078125</ele>
        <time>2012-08-23T08:28:08Z</time>
      </trkpt>
      <trkpt lat="45.62321" lon="3.42385">
        <ele>649.5078125</ele>
        <time>2012-08-23T08:28:09Z</time>
      </trkpt>
      <trkpt lat="45.62331" lon="3.42386">
        <ele>649.9885254</ele>
        <time>2012-08-23T08:28:13Z</time>
      </trkpt>
      <trkpt lat="45.62345" lon="3.42385">
        <ele>651.9111328</ele>
        <time>2012-08-23T08:28:18Z</time>
      </trkpt>
      <trkpt lat="45.62358" lon="3.42374">
        <ele>653.3532715</ele>
        <time>2012-08-23T08:28:24Z</time>
      </trkpt>
      <trkpt lat="45.62366" lon="3.42362">
        <ele>652.8725586</ele>
        <time>2012-08-23T08:28:29Z</time>
      </trkpt>
      <trkpt lat="45.62376" lon="3.42348">
        <ele>651.9111328</ele>
        <time>2012-08-23T08:28:35Z</time>
      </trkpt>
      <trkpt lat="45.62383" lon="3.42342">
        <ele>649.9885254</ele>
        <time>2012-08-23T08:28:39Z</time>
      </trkpt>
      <trkpt lat="45.6239" lon="3.42333">
        <ele>647.5852051</ele>
        <time>2012-08-23T08:28:44Z</time>
      </trkpt>
      <trkpt lat="45.624" lon="3.42321">
        <ele>643.7399902</ele>
        <time>2012-08-23T08:28:50Z</time>
      </trkpt>
      <trkpt lat="45.62412" lon="3.4231">
        <ele>642.7788086</ele>
        <time>2012-08-23T08:28:56Z</time>
      </trkpt>
      <trkpt lat="45.6242" lon="3.42311">
        <ele>643.7399902</ele>
        <time>2012-08-23T08:29:00Z</time>
      </trkpt>
      <trkpt lat="45.62431" lon="3.42311">
        <ele>644.7011719</ele>
        <time>2012-08-23T08:29:05Z</time>
      </trkpt>
      <trkpt lat="45.62439" lon="3.42309">
        <ele>644.7011719</ele>
        <time>2012-08-23T08:29:09Z</time>
      </trkpt>
      <trkpt lat="45.62442" lon="3.42309">
        <ele>644.2207031</ele>
        <time>2012-08-23T08:29:11Z</time>
      </trkpt>
      <trkpt lat="45.62449" lon="3.42309">
        <ele>645.1818848</ele>
        <time>2012-08-23T08:29:14Z</time>
      </trkpt>
      <trkpt lat="45.62464" lon="3.42305">
        <ele>643.2592773</ele>
        <time>2012-08-23T08:29:21Z</time>
      </trkpt>
      <trkpt lat="45.62472" lon="3.42308">
        <ele>640.3754883</ele>
        <time>2012-08-23T08:29:25Z</time>
      </trkpt>
      <trkpt lat="45.62482" lon="3.42311">
        <ele>636.0495605</ele>
        <time>2012-08-23T08:29:30Z</time>
      </trkpt>
      <trkpt lat="45.62495" lon="3.42315">
        <ele>631.7233887</ele>
        <time>2012-08-23T08:29:36Z</time>
      </trkpt>
      <trkpt lat="45.62507" lon="3.42315">
        <ele>630.2814941</ele>
        <time>2012-08-23T08:29:41Z</time>
      </trkpt>
      <trkpt lat="45.62521" lon="3.42315">
        <ele>634.6074219</ele>
        <time>2012-08-23T08:29:46Z</time>
      </trkpt>
      <trkpt lat="45.62534" lon="3.42315">
        <ele>634.6074219</ele>
        <time>2012-08-23T08:29:52Z</time>
      </trkpt>
      <trkpt lat="45.62533" lon="3.42306">
        <ele>629.3200684</ele>
        <time>2012-08-23T08:29:57Z</time>
      </trkpt>
      <trkpt lat="45.62532" lon="3.42298">
        <ele>627.3977051</ele>
        <time>2012-08-23T08:30:00Z</time>
      </trkpt>
      <trkpt lat="45.62536" lon="3.4228">
        <ele>621.6296387</ele>
        <time>2012-08-23T08:30:07Z</time>
      </trkpt>
      <trkpt lat="45.62538" lon="3.42278">
        <ele>621.1491699</ele>
        <time>2012-08-23T08:30:08Z</time>
      </trkpt>
      <trkpt lat="45.6255" lon="3.42267">
        <ele>617.7841797</ele>
        <time>2012-08-23T08:30:14Z</time>
      </trkpt>
      <trkpt lat="45.62561" lon="3.42263">
        <ele>617.3037109</ele>
        <time>2012-08-23T08:30:19Z</time>
      </trkpt>
      <trkpt lat="45.62576" lon="3.42254">
        <ele>619.2263184</ele>
        <time>2012-08-23T08:30:26Z</time>
      </trkpt>
      <trkpt lat="45.62587" lon="3.42245">
        <ele>619.2263184</ele>
        <time>2012-08-23T08:30:32Z</time>
      </trkpt>
      <trkpt lat="45.62595" lon="3.42234">
        <ele>620.668457</ele>
        <time>2012-08-23T08:30:38Z</time>
      </trkpt>
      <trkpt lat="45.62599" lon="3.4222">
        <ele>622.1103516</ele>
        <time>2012-08-23T08:30:43Z</time>
      </trkpt>
      <trkpt lat="45.62601" lon="3.42203">
        <ele>624.5136719</ele>
        <time>2012-08-23T08:30:49Z</time>
      </trkpt>
      <trkpt lat="45.62602" lon="3.42189">
        <ele>625.4748535</ele>
        <time>2012-08-23T08:30:54Z</time>
      </trkpt>
      <trkpt lat="45.62603" lon="3.42181">
        <ele>626.9169922</ele>
        <time>2012-08-23T08:30:58Z</time>
      </trkpt>
      <trkpt lat="45.62606" lon="3.4217">
        <ele>628.3588867</ele>
        <time>2012-08-23T08:31:06Z</time>
      </trkpt>
      <trkpt lat="45.62611" lon="3.42163">
        <ele>629.8007813</ele>
        <time>2012-08-23T08:31:12Z</time>
      </trkpt>
      <trkpt lat="45.62618" lon="3.42158">
        <ele>631.2429199</ele>
        <time>2012-08-23T08:31:18Z</time>
      </trkpt>
      <trkpt lat="45.62621" lon="3.42156">
        <ele>631.7233887</ele>
        <time>2012-08-23T08:31:22Z</time>
      </trkpt>
      <trkpt lat="45.62628" lon="3.42162">
        <ele>632.6848145</ele>
        <time>2012-08-23T08:31:28Z</time>
      </trkpt>
      <trkpt lat="45.62637" lon="3.42164">
        <ele>634.6074219</ele>
        <time>2012-08-23T08:31:33Z</time>
      </trkpt>
      <trkpt lat="45.62645" lon="3.42159">
        <ele>635.0881348</ele>
        <time>2012-08-23T08:31:37Z</time>
      </trkpt>
      <trkpt lat="45.62654" lon="3.42153">
        <ele>635.0881348</ele>
        <time>2012-08-23T08:31:41Z</time>
      </trkpt>
      <trkpt lat="45.62664" lon="3.42138">
        <ele>636.0495605</ele>
        <time>2012-08-23T08:31:47Z</time>
      </trkpt>
      <trkpt lat="45.62667" lon="3.42135">
        <ele>636.0495605</ele>
        <time>2012-08-23T08:31:49Z</time>
      </trkpt>
      <trkpt lat="45.62682" lon="3.42121">
        <ele>637.0107422</ele>
        <time>2012-08-23T08:31:56Z</time>
      </trkpt>
      <trkpt lat="45.62694" lon="3.42108">
        <ele>636.5302734</ele>
        <time>2012-08-23T08:32:02Z</time>
      </trkpt>
      <trkpt lat="45.6271" lon="3.42095">
        <ele>637.0107422</ele>
        <time>2012-08-23T08:32:09Z</time>
      </trkpt>
      <trkpt lat="45.62723" lon="3.42089">
        <ele>636.5302734</ele>
        <time>2012-08-23T08:32:14Z</time>
      </trkpt>
      <trkpt lat="45.62736" lon="3.42085">
        <ele>635.5686035</ele>
        <time>2012-08-23T08:32:19Z</time>
      </trkpt>
      <trkpt lat="45.62748" lon="3.42076">
        <ele>634.126709</ele>
        <time>2012-08-23T08:32:24Z</time>
      </trkpt>
      <trkpt lat="45.62763" lon="3.42067">
        <ele>631.7233887</ele>
        <time>2012-08-23T08:32:30Z</time>
      </trkpt>
      <trkpt lat="45.62777" lon="3.42058">
        <ele>630.2814941</ele>
        <time>2012-08-23T08:32:36Z</time>
      </trkpt>
      <trkpt lat="45.62795" lon="3.42052">
        <ele>628.8395996</ele>
        <time>2012-08-23T08:32:43Z</time>
      </trkpt>
      <trkpt lat="45.62806" lon="3.42049">
        <ele>628.3588867</ele>
        <time>2012-08-23T08:32:47Z</time>
      </trkpt>
      <trkpt lat="45.62819" lon="3.42045">
        <ele>628.8395996</ele>
        <time>2012-08-23T08:32:52Z</time>
      </trkpt>
      <trkpt lat="45.62832" lon="3.42039">
        <ele>629.8007813</ele>
        <time>2012-08-23T08:32:57Z</time>
      </trkpt>
      <trkpt lat="45.62845" lon="3.42036">
        <ele>631.7233887</ele>
        <time>2012-08-23T08:33:03Z</time>
      </trkpt>
      <trkpt lat="45.62856" lon="3.42033">
        <ele>634.126709</ele>
        <time>2012-08-23T08:33:08Z</time>
      </trkpt>
      <trkpt lat="45.62869" lon="3.42033">
        <ele>635.0881348</ele>
        <time>2012-08-23T08:33:13Z</time>
      </trkpt>
      <trkpt lat="45.62879" lon="3.42035">
        <ele>634.6074219</ele>
        <time>2012-08-23T08:33:17Z</time>
      </trkpt>
      <trkpt lat="45.62892" lon="3.42038">
        <ele>635.0881348</ele>
        <time>2012-08-23T08:33:23Z</time>
      </trkpt>
      <trkpt lat="45.62899" lon="3.42043">
        <ele>636.5302734</ele>
        <time>2012-08-23T08:33:26Z</time>
      </trkpt>
      <trkpt lat="45.62901" lon="3.42044">
        <ele>637.0107422</ele>
        <time>2012-08-23T08:33:27Z</time>
      </trkpt>
      <trkpt lat="45.62909" lon="3.42047">
        <ele>638.4528809</ele>
        <time>2012-08-23T08:33:31Z</time>
      </trkpt>
      <trkpt lat="45.6292" lon="3.42054">
        <ele>640.3754883</ele>
        <time>2012-08-23T08:33:37Z</time>
      </trkpt>
      <trkpt lat="45.6293" lon="3.42058">
        <ele>643.2592773</ele>
        <time>2012-08-23T08:33:42Z</time>
      </trkpt>
      <trkpt lat="45.62932" lon="3.4206">
        <ele>644.2207031</ele>
        <time>2012-08-23T08:33:43Z</time>
      </trkpt>
      <trkpt lat="45.62945" lon="3.42067">
        <ele>645.6625977</ele>
        <time>2012-08-23T08:33:49Z</time>
      </trkpt>
      <trkpt lat="45.62955" lon="3.42072">
        <ele>646.1433105</ele>
        <time>2012-08-23T08:33:54Z</time>
      </trkpt>
      <trkpt lat="45.62961" lon="3.42077">
        <ele>646.6240234</ele>
        <time>2012-08-23T08:33:58Z</time>
      </trkpt>
      <trkpt lat="45.62968" lon="3.42081">
        <ele>647.1044922</ele>
        <time>2012-08-23T08:34:03Z</time>
      </trkpt>
      <trkpt lat="45.62975" lon="3.42084">
        <ele>646.1433105</ele>
        <time>2012-08-23T08:34:08Z</time>
      </trkpt>
      <trkpt lat="45.62982" lon="3.42085">
        <ele>645.1818848</ele>
        <time>2012-08-23T08:34:12Z</time>
      </trkpt>
      <trkpt lat="45.62995" lon="3.42086">
        <ele>643.7399902</ele>
        <time>2012-08-23T08:34:20Z</time>
      </trkpt>
      <trkpt lat="45.62997" lon="3.42087">
        <ele>643.2592773</ele>
        <time>2012-08-23T08:34:21Z</time>
      </trkpt>
      <trkpt lat="45.63009" lon="3.42093">
        <ele>646.1433105</ele>
        <time>2012-08-23T08:34:27Z</time>
      </trkpt>
      <trkpt lat="45.63013" lon="3.42099">
        <ele>647.1044922</ele>
        <time>2012-08-23T08:34:31Z</time>
      </trkpt>
      <trkpt lat="45.63019" lon="3.42111">
        <ele>646.6240234</ele>
        <time>2012-08-23T08:34:38Z</time>
      </trkpt>
      <trkpt lat="45.63026" lon="3.42123">
        <ele>645.6625977</ele>
        <time>2012-08-23T08:34:46Z</time>
      </trkpt>
      <trkpt lat="45.63027" lon="3.42127">
        <ele>646.6240234</ele>
        <time>2012-08-23T08:34:49Z</time>
      </trkpt>
      <trkpt lat="45.63033" lon="3.42136">
        <ele>646.1433105</ele>
        <time>2012-08-23T08:34:56Z</time>
      </trkpt>
      <trkpt lat="45.63034" lon="3.42137">
        <ele>646.1433105</ele>
        <time>2012-08-23T08:34:57Z</time>
      </trkpt>
      <trkpt lat="45.6304" lon="3.42143">
        <ele>650.949707</ele>
        <time>2012-08-23T08:35:02Z</time>
      </trkpt>
      <trkpt lat="45.63041" lon="3.42144">
        <ele>651.4304199</ele>
        <time>2012-08-23T08:35:03Z</time>
      </trkpt>
      <trkpt lat="45.63045" lon="3.42151">
        <ele>655.2758789</ele>
        <time>2012-08-23T08:35:08Z</time>
      </trkpt>
      <trkpt lat="45.63049" lon="3.42161">
        <ele>660.0822754</ele>
        <time>2012-08-23T08:35:15Z</time>
      </trkpt>
      <trkpt lat="45.6305" lon="3.42164">
        <ele>660.0822754</ele>
        <time>2012-08-23T08:35:17Z</time>
      </trkpt>
      <trkpt lat="45.63054" lon="3.42175">
        <ele>661.0437012</ele>
        <time>2012-08-23T08:35:23Z</time>
      </trkpt>
      <trkpt lat="45.63055" lon="3.42177">
        <ele>661.0437012</ele>
        <time>2012-08-23T08:35:25Z</time>
      </trkpt>
      <trkpt lat="45.63058" lon="3.42185">
        <ele>661.5244141</ele>
        <time>2012-08-23T08:35:30Z</time>
      </trkpt>
      <trkpt lat="45.63063" lon="3.42192">
        <ele>662.9663086</ele>
        <time>2012-08-23T08:35:37Z</time>
      </trkpt>
      <trkpt lat="45.63066" lon="3.42201">
        <ele>661.0437012</ele>
        <time>2012-08-23T08:35:43Z</time>
      </trkpt>
      <trkpt lat="45.63067" lon="3.42202">
        <ele>660.5629883</ele>
        <time>2012-08-23T08:35:44Z</time>
      </trkpt>
      <trkpt lat="45.63069" lon="3.42208">
        <ele>662.005127</ele>
        <time>2012-08-23T08:35:49Z</time>
      </trkpt>
      <trkpt lat="45.63073" lon="3.42215">
        <ele>663.4470215</ele>
        <time>2012-08-23T08:35:54Z</time>
      </trkpt>
      <trkpt lat="45.63076" lon="3.42221">
        <ele>664.4082031</ele>
        <time>2012-08-23T08:35:59Z</time>
      </trkpt>
      <trkpt lat="45.63082" lon="3.42229">
        <ele>663.9274902</ele>
        <time>2012-08-23T08:36:06Z</time>
      </trkpt>
      <trkpt lat="45.63086" lon="3.42236">
        <ele>663.4470215</ele>
        <time>2012-08-23T08:36:11Z</time>
      </trkpt>
      <trkpt lat="45.63089" lon="3.42244">
        <ele>665.8503418</ele>
        <time>2012-08-23T08:36:17Z</time>
      </trkpt>
      <trkpt lat="45.63089" lon="3.42249">
        <ele>664.4082031</ele>
        <time>2012-08-23T08:36:20Z</time>
      </trkpt>
      <trkpt lat="45.63094" lon="3.42262">
        <ele>665.3696289</ele>
        <time>2012-08-23T08:36:29Z</time>
      </trkpt>
      <trkpt lat="45.63099" lon="3.42276">
        <ele>665.3696289</ele>
        <time>2012-08-23T08:36:36Z</time>
      </trkpt>
      <trkpt lat="45.63103" lon="3.42282">
        <ele>666.3308105</ele>
        <time>2012-08-23T08:36:40Z</time>
      </trkpt>
      <trkpt lat="45.63105" lon="3.42286">
        <ele>667.2922363</ele>
        <time>2012-08-23T08:36:43Z</time>
      </trkpt>
      <trkpt lat="45.63112" lon="3.42296">
        <ele>669.6958008</ele>
        <time>2012-08-23T08:36:50Z</time>
      </trkpt>
      <trkpt lat="45.63119" lon="3.423">
        <ele>671.6181641</ele>
        <time>2012-08-23T08:36:55Z</time>
      </trkpt>
      <trkpt lat="45.63123" lon="3.42307">
        <ele>673.0603027</ele>
        <time>2012-08-23T08:37:00Z</time>
      </trkpt>
      <trkpt lat="45.63131" lon="3.42317">
        <ele>674.5021973</ele>
        <time>2012-08-23T08:37:07Z</time>
      </trkpt>
      <trkpt lat="45.63139" lon="3.42326">
        <ele>674.0214844</ele>
        <time>2012-08-23T08:37:13Z</time>
      </trkpt>
      <trkpt lat="45.63143" lon="3.4233">
        <ele>674.0214844</ele>
        <time>2012-08-23T08:37:18Z</time>
      </trkpt>
      <trkpt lat="45.63149" lon="3.42339">
        <ele>676.9055176</ele>
        <time>2012-08-23T08:37:25Z</time>
      </trkpt>
      <trkpt lat="45.63155" lon="3.42349">
        <ele>675.9440918</ele>
        <time>2012-08-23T08:37:31Z</time>
      </trkpt>
      <trkpt lat="45.6316" lon="3.42357">
        <ele>673.5410156</ele>
        <time>2012-08-23T08:37:37Z</time>
      </trkpt>
      <trkpt lat="45.63164" lon="3.42365">
        <ele>672.098877</ele>
        <time>2012-08-23T08:37:43Z</time>
      </trkpt>
      <trkpt lat="45.6317" lon="3.4237">
        <ele>673.5410156</ele>
        <time>2012-08-23T08:37:48Z</time>
      </trkpt>
      <trkpt lat="45.6317" lon="3.42372">
        <ele>673.0603027</ele>
        <time>2012-08-23T08:37:49Z</time>
      </trkpt>
      <trkpt lat="45.63174" lon="3.42382">
        <ele>670.6569824</ele>
        <time>2012-08-23T08:37:56Z</time>
      </trkpt>
      <trkpt lat="45.63181" lon="3.4239">
        <ele>674.5021973</ele>
        <time>2012-08-23T08:38:02Z</time>
      </trkpt>
      <trkpt lat="45.63184" lon="3.4239">
        <ele>678.3474121</ele>
        <time>2012-08-23T08:38:03Z</time>
      </trkpt>
      <trkpt lat="45.63191" lon="3.42393">
        <ele>685.557373</ele>
        <time>2012-08-23T08:38:07Z</time>
      </trkpt>
      <trkpt lat="45.63193" lon="3.42398">
        <ele>687.9606934</ele>
        <time>2012-08-23T08:38:10Z</time>
      </trkpt>
      <trkpt lat="45.63193" lon="3.42409">
        <ele>686.9992676</ele>
        <time>2012-08-23T08:38:16Z</time>
      </trkpt>
      <trkpt lat="45.63191" lon="3.42412">
        <ele>685.557373</ele>
        <time>2012-08-23T08:38:18Z</time>
      </trkpt>
      <trkpt lat="45.63188" lon="3.42423">
        <ele>685.0769043</ele>
        <time>2012-08-23T08:38:25Z</time>
      </trkpt>
      <trkpt lat="45.63186" lon="3.42426">
        <ele>684.5961914</ele>
        <time>2012-08-23T08:38:27Z</time>
      </trkpt>
      <trkpt lat="45.63179" lon="3.42434">
        <ele>686.5187988</ele>
        <time>2012-08-23T08:38:34Z</time>
      </trkpt>
      <trkpt lat="45.63167" lon="3.42445">
        <ele>688.9221191</ele>
        <time>2012-08-23T08:38:44Z</time>
      </trkpt>
      <trkpt lat="45.6316" lon="3.42452">
        <ele>687.4799805</ele>
        <time>2012-08-23T08:38:52Z</time>
      </trkpt>
      <trkpt lat="45.63152" lon="3.42459">
        <ele>689.8833008</ele>
        <time>2012-08-23T08:39:00Z</time>
      </trkpt>
      <trkpt lat="45.63145" lon="3.42464">
        <ele>689.4025879</ele>
        <time>2012-08-23T08:39:08Z</time>
      </trkpt>
      <trkpt lat="45.63142" lon="3.42471">
        <ele>689.8833008</ele>
        <time>2012-08-23T08:39:15Z</time>
      </trkpt>
      <trkpt lat="45.63142" lon="3.42476">
        <ele>691.8059082</ele>
        <time>2012-08-23T08:39:22Z</time>
      </trkpt>
      <trkpt lat="45.63142" lon="3.42483">
        <ele>693.2478027</ele>
        <time>2012-08-23T08:39:28Z</time>
      </trkpt>
      <trkpt lat="45.63144" lon="3.42488">
        <ele>699.015625</ele>
        <time>2012-08-23T08:39:36Z</time>
      </trkpt>
      <trkpt lat="45.63142" lon="3.42494">
        <ele>700.9384766</ele>
        <time>2012-08-23T08:39:43Z</time>
      </trkpt>
      <trkpt lat="45.63142" lon="3.42495">
        <ele>702.861084</ele>
        <time>2012-08-23T08:39:45Z</time>
      </trkpt>
      <trkpt lat="45.63137" lon="3.42504">
        <ele>703.8225098</ele>
        <time>2012-08-23T08:39:53Z</time>
      </trkpt>
      <trkpt lat="45.63133" lon="3.42509">
        <ele>703.3417969</ele>
        <time>2012-08-23T08:40:01Z</time>
      </trkpt>
      <trkpt lat="45.6313" lon="3.42515">
        <ele>704.3032227</ele>
        <time>2012-08-23T08:40:07Z</time>
      </trkpt>
      <trkpt lat="45.63129" lon="3.42519">
        <ele>704.7836914</ele>
        <time>2012-08-23T08:40:12Z</time>
      </trkpt>
      <trkpt lat="45.6313" lon="3.42526">
        <ele>704.7836914</ele>
        <time>2012-08-23T08:40:18Z</time>
      </trkpt>
      <trkpt lat="45.63132" lon="3.42534">
        <ele>706.7062988</ele>
        <time>2012-08-23T08:40:24Z</time>
      </trkpt>
      <trkpt lat="45.63136" lon="3.42537">
        <ele>711.0322266</ele>
        <time>2012-08-23T08:40:28Z</time>
      </trkpt>
      <trkpt lat="45.63143" lon="3.42539">
        <ele>718.2421875</ele>
        <time>2012-08-23T08:40:33Z</time>
      </trkpt>
      <trkpt lat="45.63141" lon="3.42547">
        <ele>716.3195801</ele>
        <time>2012-08-23T08:40:39Z</time>
      </trkpt>
      <trkpt lat="45.63141" lon="3.42553">
        <ele>716.3195801</ele>
        <time>2012-08-23T08:40:43Z</time>
      </trkpt>
      <trkpt lat="45.63137" lon="3.4256">
        <ele>715.3581543</ele>
        <time>2012-08-23T08:40:50Z</time>
      </trkpt>
      <trkpt lat="45.63136" lon="3.42567">
        <ele>714.3967285</ele>
        <time>2012-08-23T08:40:56Z</time>
      </trkpt>
      <trkpt lat="45.63134" lon="3.42574">
        <ele>714.3967285</ele>
        <time>2012-08-23T08:41:03Z</time>
      </trkpt>
      <trkpt lat="45.63134" lon="3.4258">
        <ele>715.8388672</ele>
        <time>2012-08-23T08:41:10Z</time>
      </trkpt>
      <trkpt lat="45.63132" lon="3.42587">
        <ele>717.2810059</ele>
        <time>2012-08-23T08:41:16Z</time>
      </trkpt>
      <trkpt lat="45.63131" lon="3.42593">
        <ele>718.7229004</ele>
        <time>2012-08-23T08:41:23Z</time>
      </trkpt>
      <trkpt lat="45.63129" lon="3.42598">
        <ele>720.1647949</ele>
        <time>2012-08-23T08:41:29Z</time>
      </trkpt>
      <trkpt lat="45.63127" lon="3.42601">
        <ele>721.1262207</ele>
        <time>2012-08-23T08:41:34Z</time>
      </trkpt>
      <trkpt lat="45.63124" lon="3.42605">
        <ele>722.0874023</ele>
        <time>2012-08-23T08:41:40Z</time>
      </trkpt>
      <trkpt lat="45.63122" lon="3.42606">
        <ele>724.0100098</ele>
        <time>2012-08-23T08:41:46Z</time>
      </trkpt>
      <trkpt lat="45.63121" lon="3.4261">
        <ele>724.4907227</ele>
        <time>2012-08-23T08:41:53Z</time>
      </trkpt>
      <trkpt lat="45.63119" lon="3.42613">
        <ele>725.4519043</ele>
        <time>2012-08-23T08:41:58Z</time>
      </trkpt>
      <trkpt lat="45.63117" lon="3.42616">
        <ele>728.3359375</ele>
        <time>2012-08-23T08:42:05Z</time>
      </trkpt>
      <trkpt lat="45.63115" lon="3.42619">
        <ele>730.7392578</ele>
        <time>2012-08-23T08:42:11Z</time>
      </trkpt>
      <trkpt lat="45.63112" lon="3.4262">
        <ele>732.6621094</ele>
        <time>2012-08-23T08:42:17Z</time>
      </trkpt>
      <trkpt lat="45.6311" lon="3.42622">
        <ele>735.5458984</ele>
        <time>2012-08-23T08:42:24Z</time>
      </trkpt>
      <trkpt lat="45.63108" lon="3.42625">
        <ele>736.987793</ele>
        <time>2012-08-23T08:42:30Z</time>
      </trkpt>
      <trkpt lat="45.63106" lon="3.42628">
        <ele>737.9492188</ele>
        <time>2012-08-23T08:42:37Z</time>
      </trkpt>
      <trkpt lat="45.63105" lon="3.42632">
        <ele>739.3911133</ele>
        <time>2012-08-23T08:42:44Z</time>
      </trkpt>
      <trkpt lat="45.63105" lon="3.42635">
        <ele>740.3525391</ele>
        <time>2012-08-23T08:42:48Z</time>
      </trkpt>
      <trkpt lat="45.63105" lon="3.42638">
        <ele>742.2751465</ele>
        <time>2012-08-23T08:42:53Z</time>
      </trkpt>
      <trkpt lat="45.63105" lon="3.42642">
        <ele>743.717041</ele>
        <time>2012-08-23T08:42:59Z</time>
      </trkpt>
      <trkpt lat="45.63103" lon="3.42643">
        <ele>744.6782227</ele>
        <time>2012-08-23T08:43:04Z</time>
      </trkpt>
      <trkpt lat="45.63101" lon="3.42645">
        <ele>745.6396484</ele>
        <time>2012-08-23T08:43:08Z</time>
      </trkpt>
      <trkpt lat="45.631" lon="3.42649">
        <ele>747.5622559</ele>
        <time>2012-08-23T08:43:14Z</time>
      </trkpt>
      <trkpt lat="45.631" lon="3.42651">
        <ele>748.0432129</ele>
        <time>2012-08-23T08:43:21Z</time>
      </trkpt>
      <trkpt lat="45.631" lon="3.42652">
        <ele>748.0432129</ele>
        <time>2012-08-23T08:43:27Z</time>
      </trkpt>
      <trkpt lat="45.63101" lon="3.42652">
        <ele>747.5622559</ele>
        <time>2012-08-23T08:43:35Z</time>
      </trkpt>
      <trkpt lat="45.631" lon="3.42655">
        <ele>749.0043945</ele>
        <time>2012-08-23T08:43:43Z</time>
      </trkpt>
      <trkpt lat="45.63099" lon="3.42658">
        <ele>750.4465332</ele>
        <time>2012-08-23T08:43:49Z</time>
      </trkpt>
      <trkpt lat="45.63097" lon="3.42662">
        <ele>751.8884277</ele>
        <time>2012-08-23T08:43:54Z</time>
      </trkpt>
      <trkpt lat="45.63094" lon="3.42665">
        <ele>753.3303223</ele>
        <time>2012-08-23T08:44:01Z</time>
      </trkpt>
      <trkpt lat="45.63093" lon="3.42666">
        <ele>755.2529297</ele>
        <time>2012-08-23T08:44:10Z</time>
      </trkpt>
      <trkpt lat="45.63091" lon="3.42667">
        <ele>756.6948242</ele>
        <time>2012-08-23T08:44:16Z</time>
      </trkpt>
      <trkpt lat="45.63088" lon="3.42666">
        <ele>758.6174316</ele>
        <time>2012-08-23T08:44:23Z</time>
      </trkpt>
      <trkpt lat="45.63083" lon="3.42666">
        <ele>760.0593262</ele>
        <time>2012-08-23T08:44:30Z</time>
      </trkpt>
      <trkpt lat="45.63079" lon="3.42665">
        <ele>763.4240723</ele>
        <time>2012-08-23T08:44:37Z</time>
      </trkpt>
      <trkpt lat="45.63079" lon="3.42665">
        <ele>764.8662109</ele>
        <time>2012-08-23T08:44:42Z</time>
      </trkpt>
      <trkpt lat="45.63075" lon="3.42665">
        <ele>764.8662109</ele>
        <time>2012-08-23T08:44:47Z</time>
      </trkpt>
      <trkpt lat="45.63074" lon="3.42664">
        <ele>765.3469238</ele>
        <time>2012-08-23T08:44:52Z</time>
      </trkpt>
      <trkpt lat="45.63069" lon="3.42663">
        <ele>767.75</ele>
        <time>2012-08-23T08:45:00Z</time>
      </trkpt>
      <trkpt lat="45.63067" lon="3.42663">
        <ele>770.6340332</ele>
        <time>2012-08-23T08:45:05Z</time>
      </trkpt>
      <trkpt lat="45.63068" lon="3.42664">
        <ele>772.0759277</ele>
        <time>2012-08-23T08:45:12Z</time>
      </trkpt>
      <trkpt lat="45.63067" lon="3.42667">
        <ele>773.0373535</ele>
        <time>2012-08-23T08:45:17Z</time>
      </trkpt>
      <trkpt lat="45.63066" lon="3.42669">
        <ele>774.479248</ele>
        <time>2012-08-23T08:45:22Z</time>
      </trkpt>
      <trkpt lat="45.63067" lon="3.42671">
        <ele>775.9211426</ele>
        <time>2012-08-23T08:45:28Z</time>
      </trkpt>
      <trkpt lat="45.63068" lon="3.42674">
        <ele>776.4018555</ele>
        <time>2012-08-23T08:45:33Z</time>
      </trkpt>
      <trkpt lat="45.63069" lon="3.42675">
        <ele>776.8825684</ele>
        <time>2012-08-23T08:45:37Z</time>
      </trkpt>
      <trkpt lat="45.63068" lon="3.42677">
        <ele>777.84375</ele>
        <time>2012-08-23T08:45:42Z</time>
      </trkpt>
      <trkpt lat="45.63067" lon="3.4268">
        <ele>779.2856445</ele>
        <time>2012-08-23T08:45:48Z</time>
      </trkpt>
      <trkpt lat="45.63066" lon="3.42682">
        <ele>779.7663574</ele>
        <time>2012-08-23T08:45:52Z</time>
      </trkpt>
      <trkpt lat="45.63064" lon="3.42686">
        <ele>781.2087402</ele>
        <time>2012-08-23T08:45:59Z</time>
      </trkpt>
      <trkpt lat="45.63066" lon="3.42689">
        <ele>782.1699219</ele>
        <time>2012-08-23T08:46:04Z</time>
      </trkpt>
      <trkpt lat="45.63066" lon="3.42694">
        <ele>783.1311035</ele>
        <time>2012-08-23T08:46:08Z</time>
      </trkpt>
      <trkpt lat="45.63066" lon="3.42695">
        <ele>783.6118164</ele>
        <time>2012-08-23T08:46:13Z</time>
      </trkpt>
      <trkpt lat="45.63068" lon="3.42699">
        <ele>784.5732422</ele>
        <time>2012-08-23T08:46:19Z</time>
      </trkpt>
      <trkpt lat="45.63069" lon="3.42702">
        <ele>786.0151367</ele>
        <time>2012-08-23T08:46:24Z</time>
      </trkpt>
      <trkpt lat="45.63065" lon="3.42705">
        <ele>786.9763184</ele>
        <time>2012-08-23T08:46:31Z</time>
      </trkpt>
      <trkpt lat="45.63062" lon="3.42711">
        <ele>787.4570313</ele>
        <time>2012-08-23T08:46:36Z</time>
      </trkpt>
      <trkpt lat="45.63059" lon="3.42715">
        <ele>786.0151367</ele>
        <time>2012-08-23T08:46:43Z</time>
      </trkpt>
      <trkpt lat="45.63057" lon="3.42719">
        <ele>784.0925293</ele>
        <time>2012-08-23T08:46:48Z</time>
      </trkpt>
      <trkpt lat="45.63051" lon="3.42726">
        <ele>782.6506348</ele>
        <time>2012-08-23T08:46:54Z</time>
      </trkpt>
      <trkpt lat="45.63045" lon="3.4273">
        <ele>781.689209</ele>
        <time>2012-08-23T08:46:59Z</time>
      </trkpt>
      <trkpt lat="45.63036" lon="3.42733">
        <ele>779.7663574</ele>
        <time>2012-08-23T08:47:06Z</time>
      </trkpt>
      <trkpt lat="45.63028" lon="3.42736">
        <ele>775.9211426</ele>
        <time>2012-08-23T08:47:12Z</time>
      </trkpt>
      <trkpt lat="45.63019" lon="3.42742">
        <ele>773.0373535</ele>
        <time>2012-08-23T08:47:18Z</time>
      </trkpt>
      <trkpt lat="45.63011" lon="3.42749">
        <ele>769.1921387</ele>
        <time>2012-08-23T08:47:23Z</time>
      </trkpt>
      <trkpt lat="45.63009" lon="3.42759">
        <ele>768.7114258</ele>
        <time>2012-08-23T08:47:27Z</time>
      </trkpt>
      <trkpt lat="45.6301" lon="3.4277">
        <ele>768.2307129</ele>
        <time>2012-08-23T08:47:31Z</time>
      </trkpt>
      <trkpt lat="45.63011" lon="3.42776">
        <ele>768.7114258</ele>
        <time>2012-08-23T08:47:33Z</time>
      </trkpt>
      <trkpt lat="45.63013" lon="3.42791">
        <ele>769.1921387</ele>
        <time>2012-08-23T08:47:38Z</time>
      </trkpt>
      <trkpt lat="45.63014" lon="3.42795">
        <ele>769.1921387</ele>
        <time>2012-08-23T08:47:39Z</time>
      </trkpt>
      <trkpt lat="45.63021" lon="3.42811">
        <ele>767.75</ele>
        <time>2012-08-23T08:47:45Z</time>
      </trkpt>
      <trkpt lat="45.63032" lon="3.42819">
        <ele>771.1147461</ele>
        <time>2012-08-23T08:47:51Z</time>
      </trkpt>
      <trkpt lat="45.63033" lon="3.42836">
        <ele>776.4018555</ele>
        <time>2012-08-23T08:47:58Z</time>
      </trkpt>
      <trkpt lat="45.63032" lon="3.42844">
        <ele>778.8051758</ele>
        <time>2012-08-23T08:48:01Z</time>
      </trkpt>
      <trkpt lat="45.6303" lon="3.42853">
        <ele>779.2856445</ele>
        <time>2012-08-23T08:48:05Z</time>
      </trkpt>
      <trkpt lat="45.6303" lon="3.42862">
        <ele>776.8825684</ele>
        <time>2012-08-23T08:48:09Z</time>
      </trkpt>
      <trkpt lat="45.6303" lon="3.42867">
        <ele>776.4018555</ele>
        <time>2012-08-23T08:48:11Z</time>
      </trkpt>
      <trkpt lat="45.63036" lon="3.42879">
        <ele>778.8051758</ele>
        <time>2012-08-23T08:48:16Z</time>
      </trkpt>
      <trkpt lat="45.63042" lon="3.42889">
        <ele>781.689209</ele>
        <time>2012-08-23T08:48:21Z</time>
      </trkpt>
      <trkpt lat="45.63047" lon="3.42898">
        <ele>781.2087402</ele>
        <time>2012-08-23T08:48:25Z</time>
      </trkpt>
      <trkpt lat="45.63051" lon="3.42898">
        <ele>779.7663574</ele>
        <time>2012-08-23T08:48:27Z</time>
      </trkpt>
      <trkpt lat="45.63052" lon="3.42899">
        <ele>778.8051758</ele>
        <time>2012-08-23T08:48:28Z</time>
      </trkpt>
      <trkpt lat="45.63059" lon="3.42895">
        <ele>777.3632813</ele>
        <time>2012-08-23T08:48:33Z</time>
      </trkpt>
      <trkpt lat="45.63064" lon="3.42891">
        <ele>775.4404297</ele>
        <time>2012-08-23T08:48:36Z</time>
      </trkpt>
      <trkpt lat="45.63067" lon="3.42887">
        <ele>774.9599609</ele>
        <time>2012-08-23T08:48:38Z</time>
      </trkpt>
      <trkpt lat="45.63069" lon="3.42886">
        <ele>774.479248</ele>
        <time>2012-08-23T08:48:39Z</time>
      </trkpt>
      <trkpt lat="45.63073" lon="3.4288">
        <ele>774.479248</ele>
        <time>2012-08-23T08:48:42Z</time>
      </trkpt>
      <trkpt lat="45.63074" lon="3.42878">
        <ele>774.479248</ele>
        <time>2012-08-23T08:48:43Z</time>
      </trkpt>
      <trkpt lat="45.63083" lon="3.42873">
        <ele>773.0373535</ele>
        <time>2012-08-23T08:48:48Z</time>
      </trkpt>
      <trkpt lat="45.63088" lon="3.42867">
        <ele>773.0373535</ele>
        <time>2012-08-23T08:48:51Z</time>
      </trkpt>
      <trkpt lat="45.63099" lon="3.42852">
        <ele>770.6340332</ele>
        <time>2012-08-23T08:48:58Z</time>
      </trkpt>
      <trkpt lat="45.63112" lon="3.42844">
        <ele>770.1533203</ele>
        <time>2012-08-23T08:49:03Z</time>
      </trkpt>
      <trkpt lat="45.6312" lon="3.4284">
        <ele>767.2695313</ele>
        <time>2012-08-23T08:49:08Z</time>
      </trkpt>
      <trkpt lat="45.6312" lon="3.4284">
        <ele>765.8276367</ele>
        <time>2012-08-23T08:49:09Z</time>
      </trkpt>
      <trkpt lat="45.63123" lon="3.42843">
        <ele>762.9433594</ele>
        <time>2012-08-23T08:49:12Z</time>
      </trkpt>
      <trkpt lat="45.63124" lon="3.42844">
        <ele>761.9821777</ele>
        <time>2012-08-23T08:49:13Z</time>
      </trkpt>
      <trkpt lat="45.63129" lon="3.42844">
        <ele>759.0981445</ele>
        <time>2012-08-23T08:49:18Z</time>
      </trkpt>
      <trkpt lat="45.63132" lon="3.42839">
        <ele>758.6174316</ele>
        <time>2012-08-23T08:49:22Z</time>
      </trkpt>
      <trkpt lat="45.63135" lon="3.42828">
        <ele>759.0981445</ele>
        <time>2012-08-23T08:49:27Z</time>
      </trkpt>
      <trkpt lat="45.63143" lon="3.42821">
        <ele>756.6948242</ele>
        <time>2012-08-23T08:49:32Z</time>
      </trkpt>
      <trkpt lat="45.6315" lon="3.42808">
        <ele>754.7722168</ele>
        <time>2012-08-23T08:49:39Z</time>
      </trkpt>
      <trkpt lat="45.63153" lon="3.42801">
        <ele>753.8110352</ele>
        <time>2012-08-23T08:49:42Z</time>
      </trkpt>
      <trkpt lat="45.63155" lon="3.42796">
        <ele>753.3303223</ele>
        <time>2012-08-23T08:49:44Z</time>
      </trkpt>
      <trkpt lat="45.63163" lon="3.42786">
        <ele>752.3688965</ele>
        <time>2012-08-23T08:49:48Z</time>
      </trkpt>
      <trkpt lat="45.63175" lon="3.4278">
        <ele>754.291748</ele>
        <time>2012-08-23T08:49:53Z</time>
      </trkpt>
      <trkpt lat="45.63183" lon="3.42777">
        <ele>752.8496094</ele>
        <time>2012-08-23T08:49:57Z</time>
      </trkpt>
      <trkpt lat="45.6319" lon="3.42773">
        <ele>751.4077148</ele>
        <time>2012-08-23T08:50:01Z</time>
      </trkpt>
      <trkpt lat="45.632" lon="3.42773">
        <ele>749.9658203</ele>
        <time>2012-08-23T08:50:06Z</time>
      </trkpt>
      <trkpt lat="45.63205" lon="3.42777">
        <ele>745.1589355</ele>
        <time>2012-08-23T08:50:11Z</time>
      </trkpt>
      <trkpt lat="45.63213" lon="3.42775">
        <ele>739.8718262</ele>
        <time>2012-08-23T08:50:16Z</time>
      </trkpt>
      <trkpt lat="45.63216" lon="3.42773">
        <ele>737.9492188</ele>
        <time>2012-08-23T08:50:18Z</time>
      </trkpt>
      <trkpt lat="45.63225" lon="3.42768">
        <ele>736.5073242</ele>
        <time>2012-08-23T08:50:23Z</time>
      </trkpt>
      <trkpt lat="45.63232" lon="3.42762">
        <ele>737.9492188</ele>
        <time>2012-08-23T08:50:29Z</time>
      </trkpt>
      <trkpt lat="45.63242" lon="3.42754">
        <ele>739.8718262</ele>
        <time>2012-08-23T08:50:34Z</time>
      </trkpt>
      <trkpt lat="45.63245" lon="3.42749">
        <ele>738.4299316</ele>
        <time>2012-08-23T08:50:37Z</time>
      </trkpt>
      <trkpt lat="45.63244" lon="3.42744">
        <ele>736.5073242</ele>
        <time>2012-08-23T08:50:40Z</time>
      </trkpt>
      <trkpt lat="45.63245" lon="3.42742">
        <ele>736.5073242</ele>
        <time>2012-08-23T08:50:41Z</time>
      </trkpt>
      <trkpt lat="45.63247" lon="3.42738">
        <ele>735.0654297</ele>
        <time>2012-08-23T08:50:43Z</time>
      </trkpt>
      <trkpt lat="45.63248" lon="3.42735">
        <ele>733.623291</ele>
        <time>2012-08-23T08:50:44Z</time>
      </trkpt>
      <trkpt lat="45.6325" lon="3.42734">
        <ele>733.1425781</ele>
        <time>2012-08-23T08:50:45Z</time>
      </trkpt>
      <trkpt lat="45.63259" lon="3.42731">
        <ele>732.1813965</ele>
        <time>2012-08-23T08:50:49Z</time>
      </trkpt>
      <trkpt lat="45.63261" lon="3.42731">
        <ele>731.7004395</ele>
        <time>2012-08-23T08:50:50Z</time>
      </trkpt>
      <trkpt lat="45.63265" lon="3.42731">
        <ele>731.7004395</ele>
        <time>2012-08-23T08:50:52Z</time>
      </trkpt>
      <trkpt lat="45.6327" lon="3.42731">
        <ele>731.2199707</ele>
        <time>2012-08-23T08:50:54Z</time>
      </trkpt>
      <trkpt lat="45.63281" lon="3.42731">
        <ele>732.1813965</ele>
        <time>2012-08-23T08:50:58Z</time>
      </trkpt>
      <trkpt lat="45.63291" lon="3.42736">
        <ele>728.8166504</ele>
        <time>2012-08-23T08:51:04Z</time>
      </trkpt>
      <trkpt lat="45.63294" lon="3.42738">
        <ele>727.3747559</ele>
        <time>2012-08-23T08:51:06Z</time>
      </trkpt>
      <trkpt lat="45.63299" lon="3.42736">
        <ele>724.9714355</ele>
        <time>2012-08-23T08:51:10Z</time>
      </trkpt>
      <trkpt lat="45.63302" lon="3.42736">
        <ele>724.9714355</ele>
        <time>2012-08-23T08:51:12Z</time>
      </trkpt>
      <trkpt lat="45.63307" lon="3.42735">
        <ele>724.0100098</ele>
        <time>2012-08-23T08:51:16Z</time>
      </trkpt>
      <trkpt lat="45.63312" lon="3.42738">
        <ele>722.5681152</ele>
        <time>2012-08-23T08:51:21Z</time>
      </trkpt>
      <trkpt lat="45.63314" lon="3.42738">
        <ele>722.5681152</ele>
        <time>2012-08-23T08:51:23Z</time>
      </trkpt>
      <trkpt lat="45.63321" lon="3.42732">
        <ele>723.529541</ele>
        <time>2012-08-23T08:51:28Z</time>
      </trkpt>
      <trkpt lat="45.63328" lon="3.42722">
        <ele>723.0488281</ele>
        <time>2012-08-23T08:51:33Z</time>
      </trkpt>
      <trkpt lat="45.63329" lon="3.42721">
        <ele>722.0874023</ele>
        <time>2012-08-23T08:51:34Z</time>
      </trkpt>
      <trkpt lat="45.63331" lon="3.42715">
        <ele>719.6843262</ele>
        <time>2012-08-23T08:51:40Z</time>
      </trkpt>
      <trkpt lat="45.63331" lon="3.42713">
        <ele>718.2421875</ele>
        <time>2012-08-23T08:51:42Z</time>
      </trkpt>
      <trkpt lat="45.63335" lon="3.4271">
        <ele>715.8388672</ele>
        <time>2012-08-23T08:51:49Z</time>
      </trkpt>
      <trkpt lat="45.63339" lon="3.42709">
        <ele>715.3581543</ele>
        <time>2012-08-23T08:51:56Z</time>
      </trkpt>
      <trkpt lat="45.63343" lon="3.42708">
        <ele>714.3967285</ele>
        <time>2012-08-23T08:52:02Z</time>
      </trkpt>
      <trkpt lat="45.63347" lon="3.42707">
        <ele>713.4355469</ele>
        <time>2012-08-23T08:52:07Z</time>
      </trkpt>
      <trkpt lat="45.63351" lon="3.42704">
        <ele>712.954834</ele>
        <time>2012-08-23T08:52:12Z</time>
      </trkpt>
      <trkpt lat="45.63356" lon="3.42702">
        <ele>711.9936523</ele>
        <time>2012-08-23T08:52:19Z</time>
      </trkpt>
      <trkpt lat="45.6336" lon="3.42699">
        <ele>711.0322266</ele>
        <time>2012-08-23T08:52:25Z</time>
      </trkpt>
      <trkpt lat="45.63366" lon="3.427">
        <ele>712.4741211</ele>
        <time>2012-08-23T08:52:31Z</time>
      </trkpt>
      <trkpt lat="45.6337" lon="3.427">
        <ele>713.9160156</ele>
        <time>2012-08-23T08:52:36Z</time>
      </trkpt>
      <trkpt lat="45.63377" lon="3.42703">
        <ele>714.3967285</ele>
        <time>2012-08-23T08:52:41Z</time>
      </trkpt>
      <trkpt lat="45.63382" lon="3.42703">
        <ele>715.3581543</ele>
        <time>2012-08-23T08:52:44Z</time>
      </trkpt>
      <trkpt lat="45.63387" lon="3.42703">
        <ele>716.3195801</ele>
        <time>2012-08-23T08:52:46Z</time>
      </trkpt>
      <trkpt lat="45.63398" lon="3.42706">
        <ele>720.1647949</ele>
        <time>2012-08-23T08:52:52Z</time>
      </trkpt>
      <trkpt lat="45.634" lon="3.42705">
        <ele>721.1262207</ele>
        <time>2012-08-23T08:52:53Z</time>
      </trkpt>
      <trkpt lat="45.63411" lon="3.42708">
        <ele>723.529541</ele>
        <time>2012-08-23T08:52:57Z</time>
      </trkpt>
      <trkpt lat="45.63425" lon="3.4271">
        <ele>724.9714355</ele>
        <time>2012-08-23T08:53:03Z</time>
      </trkpt>
      <trkpt lat="45.63428" lon="3.42711">
        <ele>725.4519043</ele>
        <time>2012-08-23T08:53:04Z</time>
      </trkpt>
      <trkpt lat="45.63435" lon="3.42711">
        <ele>726.894043</ele>
        <time>2012-08-23T08:53:07Z</time>
      </trkpt>
      <trkpt lat="45.63444" lon="3.42706">
        <ele>723.0488281</ele>
        <time>2012-08-23T08:53:13Z</time>
      </trkpt>
      <trkpt lat="45.63449" lon="3.42706">
        <ele>722.0874023</ele>
        <time>2012-08-23T08:53:16Z</time>
      </trkpt>
      <trkpt lat="45.63459" lon="3.42719">
        <ele>720.6455078</ele>
        <time>2012-08-23T08:53:22Z</time>
      </trkpt>
      <trkpt lat="45.6346" lon="3.42721">
        <ele>720.1647949</ele>
        <time>2012-08-23T08:53:23Z</time>
      </trkpt>
      <trkpt lat="45.63464" lon="3.42734">
        <ele>719.6843262</ele>
        <time>2012-08-23T08:53:27Z</time>
      </trkpt>
      <trkpt lat="45.6347" lon="3.42748">
        <ele>717.2810059</ele>
        <time>2012-08-23T08:53:32Z</time>
      </trkpt>
      <trkpt lat="45.6347" lon="3.42751">
        <ele>716.800293</ele>
        <time>2012-08-23T08:53:33Z</time>
      </trkpt>
      <trkpt lat="45.6348" lon="3.42771">
        <ele>714.8774414</ele>
        <time>2012-08-23T08:53:40Z</time>
      </trkpt>
      <trkpt lat="45.63488" lon="3.42786">
        <ele>713.4355469</ele>
        <time>2012-08-23T08:53:45Z</time>
      </trkpt>
      <trkpt lat="45.63496" lon="3.42799">
        <ele>712.4741211</ele>
        <time>2012-08-23T08:53:50Z</time>
      </trkpt>
      <trkpt lat="45.63506" lon="3.42819">
        <ele>712.4741211</ele>
        <time>2012-08-23T08:53:56Z</time>
      </trkpt>
      <trkpt lat="45.63512" lon="3.42836">
        <ele>711.9936523</ele>
        <time>2012-08-23T08:54:01Z</time>
      </trkpt>
      <trkpt lat="45.63517" lon="3.42852">
        <ele>711.9936523</ele>
        <time>2012-08-23T08:54:06Z</time>
      </trkpt>
      <trkpt lat="45.63517" lon="3.42858">
        <ele>711.9936523</ele>
        <time>2012-08-23T08:54:08Z</time>
      </trkpt>
      <trkpt lat="45.63518" lon="3.42861">
        <ele>711.9936523</ele>
        <time>2012-08-23T08:54:09Z</time>
      </trkpt>
      <trkpt lat="45.63522" lon="3.42876">
        <ele>710.5515137</ele>
        <time>2012-08-23T08:54:14Z</time>
      </trkpt>
      <trkpt lat="45.63525" lon="3.42883">
        <ele>710.5515137</ele>
        <time>2012-08-23T08:54:16Z</time>
      </trkpt>
      <trkpt lat="45.63527" lon="3.42889">
        <ele>710.0708008</ele>
        <time>2012-08-23T08:54:18Z</time>
      </trkpt>
      <trkpt lat="45.63536" lon="3.4289">
        <ele>712.954834</ele>
        <time>2012-08-23T08:54:22Z</time>
      </trkpt>
      <trkpt lat="45.63538" lon="3.42887">
        <ele>713.4355469</ele>
        <time>2012-08-23T08:54:24Z</time>
      </trkpt>
      <trkpt lat="45.63539" lon="3.42878">
        <ele>714.3967285</ele>
        <time>2012-08-23T08:54:28Z</time>
      </trkpt>
      <trkpt lat="45.63539" lon="3.42875">
        <ele>714.3967285</ele>
        <time>2012-08-23T08:54:29Z</time>
      </trkpt>
      <trkpt lat="45.63544" lon="3.42857">
        <ele>713.4355469</ele>
        <time>2012-08-23T08:54:36Z</time>
      </trkpt>
      <trkpt lat="45.63549" lon="3.42843">
        <ele>713.4355469</ele>
        <time>2012-08-23T08:54:40Z</time>
      </trkpt>
      <trkpt lat="45.63549" lon="3.42836">
        <ele>711.9936523</ele>
        <time>2012-08-23T08:54:42Z</time>
      </trkpt>
      <trkpt lat="45.63548" lon="3.42821">
        <ele>710.0708008</ele>
        <time>2012-08-23T08:54:47Z</time>
      </trkpt>
      <trkpt lat="45.63548" lon="3.42806">
        <ele>709.1096191</ele>
        <time>2012-08-23T08:54:52Z</time>
      </trkpt>
      <trkpt lat="45.63551" lon="3.42785">
        <ele>707.1870117</ele>
        <time>2012-08-23T08:54:58Z</time>
      </trkpt>
      <trkpt lat="45.63552" lon="3.42778">
        <ele>705.7451172</ele>
        <time>2012-08-23T08:55:00Z</time>
      </trkpt>
      <trkpt lat="45.6356" lon="3.42751">
        <ele>702.861084</ele>
        <time>2012-08-23T08:55:07Z</time>
      </trkpt>
      <trkpt lat="45.63563" lon="3.42745">
        <ele>702.3803711</ele>
        <time>2012-08-23T08:55:09Z</time>
      </trkpt>
      <trkpt lat="45.63568" lon="3.42734">
        <ele>702.861084</ele>
        <time>2012-08-23T08:55:13Z</time>
      </trkpt>
      <trkpt lat="45.63571" lon="3.4272">
        <ele>699.015625</ele>
        <time>2012-08-23T08:55:17Z</time>
      </trkpt>
      <trkpt lat="45.63572" lon="3.42717">
        <ele>698.5349121</ele>
        <time>2012-08-23T08:55:18Z</time>
      </trkpt>
      <trkpt lat="45.63575" lon="3.42708">
        <ele>696.6125488</ele>
        <time>2012-08-23T08:55:21Z</time>
      </trkpt>
      <trkpt lat="45.63581" lon="3.42695">
        <ele>694.2092285</ele>
        <time>2012-08-23T08:55:26Z</time>
      </trkpt>
      <trkpt lat="45.63587" lon="3.42687">
        <ele>693.7285156</ele>
        <time>2012-08-23T08:55:30Z</time>
      </trkpt>
      <trkpt lat="45.63602" lon="3.42673">
        <ele>696.1318359</ele>
        <time>2012-08-23T08:55:37Z</time>
      </trkpt>
      <trkpt lat="45.63611" lon="3.42667">
        <ele>698.5349121</ele>
        <time>2012-08-23T08:55:41Z</time>
      </trkpt>
      <trkpt lat="45.63625" lon="3.42654">
        <ele>699.9770508</ele>
        <time>2012-08-23T08:55:47Z</time>
      </trkpt>
      <trkpt lat="45.63626" lon="3.42652">
        <ele>700.4580078</ele>
        <time>2012-08-23T08:55:48Z</time>
      </trkpt>
      <trkpt lat="45.63636" lon="3.42642">
        <ele>699.4963379</ele>
        <time>2012-08-23T08:55:54Z</time>
      </trkpt>
      <trkpt lat="45.63645" lon="3.42635">
        <ele>699.4963379</ele>
        <time>2012-08-23T08:55:58Z</time>
      </trkpt>
      <trkpt lat="45.63655" lon="3.4262">
        <ele>698.5349121</ele>
        <time>2012-08-23T08:56:04Z</time>
      </trkpt>
      <trkpt lat="45.63665" lon="3.42611">
        <ele>697.0930176</ele>
        <time>2012-08-23T08:56:10Z</time>
      </trkpt>
      <trkpt lat="45.63679" lon="3.42604">
        <ele>699.015625</ele>
        <time>2012-08-23T08:56:15Z</time>
      </trkpt>
      <trkpt lat="45.63688" lon="3.426">
        <ele>697.5737305</ele>
        <time>2012-08-23T08:56:19Z</time>
      </trkpt>
      <trkpt lat="45.63693" lon="3.42597">
        <ele>697.0930176</ele>
        <time>2012-08-23T08:56:21Z</time>
      </trkpt>
      <trkpt lat="45.63698" lon="3.4259">
        <ele>696.6125488</ele>
        <time>2012-08-23T08:56:24Z</time>
      </trkpt>
      <trkpt lat="45.637" lon="3.42587">
        <ele>695.651123</ele>
        <time>2012-08-23T08:56:25Z</time>
      </trkpt>
      <trkpt lat="45.63706" lon="3.42573">
        <ele>693.2478027</ele>
        <time>2012-08-23T08:56:29Z</time>
      </trkpt>
      <trkpt lat="45.63712" lon="3.42559">
        <ele>691.3251953</ele>
        <time>2012-08-23T08:56:34Z</time>
      </trkpt>
      <trkpt lat="45.63717" lon="3.42547">
        <ele>688.4414063</ele>
        <time>2012-08-23T08:56:38Z</time>
      </trkpt>
      <trkpt lat="45.6372" lon="3.42542">
        <ele>686.9992676</ele>
        <time>2012-08-23T08:56:40Z</time>
      </trkpt>
      <trkpt lat="45.63721" lon="3.42538">
        <ele>686.9992676</ele>
        <time>2012-08-23T08:56:41Z</time>
      </trkpt>
      <trkpt lat="45.63725" lon="3.42527">
        <ele>685.557373</ele>
        <time>2012-08-23T08:56:45Z</time>
      </trkpt>
      <trkpt lat="45.63729" lon="3.42518">
        <ele>685.0769043</ele>
        <time>2012-08-23T08:56:48Z</time>
      </trkpt>
      <trkpt lat="45.6373" lon="3.42516">
        <ele>685.0769043</ele>
        <time>2012-08-23T08:56:49Z</time>
      </trkpt>
      <trkpt lat="45.63736" lon="3.42505">
        <ele>684.5961914</ele>
        <time>2012-08-23T08:56:53Z</time>
      </trkpt>
      <trkpt lat="45.63738" lon="3.42499">
        <ele>684.1154785</ele>
        <time>2012-08-23T08:56:55Z</time>
      </trkpt>
      <trkpt lat="45.63745" lon="3.42475">
        <ele>682.6733398</ele>
        <time>2012-08-23T08:57:02Z</time>
      </trkpt>
      <trkpt lat="45.63746" lon="3.42458">
        <ele>681.7119141</ele>
        <time>2012-08-23T08:57:07Z</time>
      </trkpt>
      <trkpt lat="45.63748" lon="3.4244">
        <ele>681.7119141</ele>
        <time>2012-08-23T08:57:12Z</time>
      </trkpt>
      <trkpt lat="45.63751" lon="3.42427">
        <ele>681.7119141</ele>
        <time>2012-08-23T08:57:16Z</time>
      </trkpt>
      <trkpt lat="45.63757" lon="3.42415">
        <ele>681.2314453</ele>
        <time>2012-08-23T08:57:20Z</time>
      </trkpt>
      <trkpt lat="45.63764" lon="3.42401">
        <ele>681.7119141</ele>
        <time>2012-08-23T08:57:25Z</time>
      </trkpt>
      <trkpt lat="45.63767" lon="3.42393">
        <ele>681.2314453</ele>
        <time>2012-08-23T08:57:28Z</time>
      </trkpt>
      <trkpt lat="45.6377" lon="3.42376">
        <ele>680.7507324</ele>
        <time>2012-08-23T08:57:34Z</time>
      </trkpt>
      <trkpt lat="45.6377" lon="3.4237">
        <ele>680.2700195</ele>
        <time>2012-08-23T08:57:36Z</time>
      </trkpt>
      <trkpt lat="45.6377" lon="3.42362">
        <ele>680.2700195</ele>
        <time>2012-08-23T08:57:39Z</time>
      </trkpt>
      <trkpt lat="45.63769" lon="3.42345">
        <ele>679.3085938</ele>
        <time>2012-08-23T08:57:44Z</time>
      </trkpt>
      <trkpt lat="45.63769" lon="3.42342">
        <ele>679.7893066</ele>
        <time>2012-08-23T08:57:45Z</time>
      </trkpt>
      <trkpt lat="45.63768" lon="3.42335">
        <ele>679.7893066</ele>
        <time>2012-08-23T08:57:47Z</time>
      </trkpt>
      <trkpt lat="45.63768" lon="3.42332">
        <ele>679.7893066</ele>
        <time>2012-08-23T08:57:48Z</time>
      </trkpt>
      <trkpt lat="45.63765" lon="3.42317">
        <ele>680.7507324</ele>
        <time>2012-08-23T08:57:52Z</time>
      </trkpt>
      <trkpt lat="45.63764" lon="3.42314">
        <ele>680.7507324</ele>
        <time>2012-08-23T08:57:53Z</time>
      </trkpt>
      <trkpt lat="45.63761" lon="3.42302">
        <ele>681.2314453</ele>
        <time>2012-08-23T08:57:58Z</time>
      </trkpt>
      <trkpt lat="45.63759" lon="3.42296">
        <ele>683.6345215</ele>
        <time>2012-08-23T08:58:00Z</time>
      </trkpt>
      <trkpt lat="45.63757" lon="3.42293">
        <ele>684.1154785</ele>
        <time>2012-08-23T08:58:01Z</time>
      </trkpt>
      <trkpt lat="45.63753" lon="3.4228">
        <ele>684.5961914</ele>
        <time>2012-08-23T08:58:05Z</time>
      </trkpt>
      <trkpt lat="45.63747" lon="3.42264">
        <ele>686.5187988</ele>
        <time>2012-08-23T08:58:11Z</time>
      </trkpt>
      <trkpt lat="45.63748" lon="3.42253">
        <ele>685.557373</ele>
        <time>2012-08-23T08:58:15Z</time>
      </trkpt>
      <trkpt lat="45.63755" lon="3.42238">
        <ele>684.1154785</ele>
        <time>2012-08-23T08:58:20Z</time>
      </trkpt>
      <trkpt lat="45.6376" lon="3.42233">
        <ele>682.6733398</ele>
        <time>2012-08-23T08:58:22Z</time>
      </trkpt>
      <trkpt lat="45.63761" lon="3.42231">
        <ele>682.192627</ele>
        <time>2012-08-23T08:58:23Z</time>
      </trkpt>
      <trkpt lat="45.63765" lon="3.42214">
        <ele>680.7507324</ele>
        <time>2012-08-23T08:58:28Z</time>
      </trkpt>
      <trkpt lat="45.63771" lon="3.42194">
        <ele>679.7893066</ele>
        <time>2012-08-23T08:58:34Z</time>
      </trkpt>
      <trkpt lat="45.63775" lon="3.42182">
        <ele>677.8666992</ele>
        <time>2012-08-23T08:58:38Z</time>
      </trkpt>
      <trkpt lat="45.63776" lon="3.42169">
        <ele>676.4248047</ele>
        <time>2012-08-23T08:58:42Z</time>
      </trkpt>
      <trkpt lat="45.63778" lon="3.42158">
        <ele>675.9440918</ele>
        <time>2012-08-23T08:58:45Z</time>
      </trkpt>
      <trkpt lat="45.63776" lon="3.42141">
        <ele>675.4633789</ele>
        <time>2012-08-23T08:58:49Z</time>
      </trkpt>
      <trkpt lat="45.63779" lon="3.42121">
        <ele>670.6569824</ele>
        <time>2012-08-23T08:58:55Z</time>
      </trkpt>
      <trkpt lat="45.63784" lon="3.42109">
        <ele>668.2536621</ele>
        <time>2012-08-23T08:58:59Z</time>
      </trkpt>
      <trkpt lat="45.63791" lon="3.42099">
        <ele>666.3308105</ele>
        <time>2012-08-23T08:59:03Z</time>
      </trkpt>
      <trkpt lat="45.63793" lon="3.42097">
        <ele>665.8503418</ele>
        <time>2012-08-23T08:59:04Z</time>
      </trkpt>
      <trkpt lat="45.63804" lon="3.42087">
        <ele>666.8115234</ele>
        <time>2012-08-23T08:59:10Z</time>
      </trkpt>
      <trkpt lat="45.63806" lon="3.42086">
        <ele>666.8115234</ele>
        <time>2012-08-23T08:59:11Z</time>
      </trkpt>
      <trkpt lat="45.63809" lon="3.42083">
        <ele>667.7727051</ele>
        <time>2012-08-23T08:59:13Z</time>
      </trkpt>
      <trkpt lat="45.63813" lon="3.4208">
        <ele>667.7727051</ele>
        <time>2012-08-23T08:59:15Z</time>
      </trkpt>
      <trkpt lat="45.63815" lon="3.42078">
        <ele>668.2536621</ele>
        <time>2012-08-23T08:59:16Z</time>
      </trkpt>
      <trkpt lat="45.63821" lon="3.42075">
        <ele>669.2150879</ele>
        <time>2012-08-23T08:59:19Z</time>
      </trkpt>
      <trkpt lat="45.63823" lon="3.4207">
        <ele>670.1762695</ele>
        <time>2012-08-23T08:59:23Z</time>
      </trkpt>
      <trkpt lat="45.63825" lon="3.42066">
        <ele>669.6958008</ele>
        <time>2012-08-23T08:59:25Z</time>
      </trkpt>
      <trkpt lat="45.63829" lon="3.42064">
        <ele>666.8115234</ele>
        <time>2012-08-23T08:59:29Z</time>
      </trkpt>
      <trkpt lat="45.6383" lon="3.42065">
        <ele>665.8503418</ele>
        <time>2012-08-23T08:59:30Z</time>
      </trkpt>
      <trkpt lat="45.63835" lon="3.42065">
        <ele>662.9663086</ele>
        <time>2012-08-23T08:59:33Z</time>
      </trkpt>
      <trkpt lat="45.63836" lon="3.42065">
        <ele>662.9663086</ele>
        <time>2012-08-23T08:59:34Z</time>
      </trkpt>
      <trkpt lat="45.63846" lon="3.42064">
        <ele>661.5244141</ele>
        <time>2012-08-23T08:59:40Z</time>
      </trkpt>
      <trkpt lat="45.63847" lon="3.42064">
        <ele>660.5629883</ele>
        <time>2012-08-23T08:59:41Z</time>
      </trkpt>
      <trkpt lat="45.6386" lon="3.42053">
        <ele>659.6018066</ele>
        <time>2012-08-23T08:59:48Z</time>
      </trkpt>
      <trkpt lat="45.63871" lon="3.42046">
        <ele>656.7177734</ele>
        <time>2012-08-23T08:59:53Z</time>
      </trkpt>
      <trkpt lat="45.63879" lon="3.42039">
        <ele>654.795166</ele>
        <time>2012-08-23T08:59:57Z</time>
      </trkpt>
      <trkpt lat="45.63882" lon="3.42036">
        <ele>654.3146973</ele>
        <time>2012-08-23T08:59:59Z</time>
      </trkpt>
      <trkpt lat="45.63884" lon="3.42035">
        <ele>653.8339844</ele>
        <time>2012-08-23T09:00:00Z</time>
      </trkpt>
      <trkpt lat="45.63889" lon="3.42033">
        <ele>652.8725586</ele>
        <time>2012-08-23T09:00:03Z</time>
      </trkpt>
      <trkpt lat="45.63893" lon="3.42031">
        <ele>651.9111328</ele>
        <time>2012-08-23T09:00:05Z</time>
      </trkpt>
      <trkpt lat="45.63899" lon="3.4203">
        <ele>649.0270996</ele>
        <time>2012-08-23T09:00:10Z</time>
      </trkpt>
      <trkpt lat="45.63904" lon="3.42028">
        <ele>647.1044922</ele>
        <time>2012-08-23T09:00:13Z</time>
      </trkpt>
      <trkpt lat="45.63914" lon="3.42026">
        <ele>646.6240234</ele>
        <time>2012-08-23T09:00:17Z</time>
      </trkpt>
      <trkpt lat="45.63921" lon="3.42023">
        <ele>642.7788086</ele>
        <time>2012-08-23T09:00:23Z</time>
      </trkpt>
      <trkpt lat="45.63927" lon="3.42016">
        <ele>644.7011719</ele>
        <time>2012-08-23T09:00:28Z</time>
      </trkpt>
      <trkpt lat="45.63929" lon="3.42013">
        <ele>642.7788086</ele>
        <time>2012-08-23T09:00:31Z</time>
      </trkpt>
      <trkpt lat="45.63941" lon="3.42003">
        <ele>641.3366699</ele>
        <time>2012-08-23T09:00:38Z</time>
      </trkpt>
      <trkpt lat="45.63945" lon="3.41993">
        <ele>641.3366699</ele>
        <time>2012-08-23T09:00:42Z</time>
      </trkpt>
      <trkpt lat="45.63948" lon="3.41986">
        <ele>639.4140625</ele>
        <time>2012-08-23T09:00:45Z</time>
      </trkpt>
      <trkpt lat="45.63956" lon="3.41975">
        <ele>636.5302734</ele>
        <time>2012-08-23T09:00:50Z</time>
      </trkpt>
      <trkpt lat="45.63963" lon="3.41966">
        <ele>634.126709</ele>
        <time>2012-08-23T09:00:54Z</time>
      </trkpt>
      <trkpt lat="45.63969" lon="3.41957">
        <ele>630.2814941</ele>
        <time>2012-08-23T09:00:58Z</time>
      </trkpt>
      <trkpt lat="45.63982" lon="3.41949">
        <ele>629.3200684</ele>
        <time>2012-08-23T09:01:04Z</time>
      </trkpt>
      <trkpt lat="45.63984" lon="3.41948">
        <ele>629.8007813</ele>
        <time>2012-08-23T09:01:05Z</time>
      </trkpt>
      <trkpt lat="45.6399" lon="3.41945">
        <ele>628.3588867</ele>
        <time>2012-08-23T09:01:08Z</time>
      </trkpt>
      <trkpt lat="45.63999" lon="3.41946">
        <ele>625.4748535</ele>
        <time>2012-08-23T09:01:13Z</time>
      </trkpt>
      <trkpt lat="45.64005" lon="3.41944">
        <ele>626.4362793</ele>
        <time>2012-08-23T09:01:17Z</time>
      </trkpt>
      <trkpt lat="45.64014" lon="3.41939">
        <ele>625.9555664</ele>
        <time>2012-08-23T09:01:23Z</time>
      </trkpt>
      <trkpt lat="45.6402" lon="3.41934">
        <ele>626.9169922</ele>
        <time>2012-08-23T09:01:26Z</time>
      </trkpt>
      <trkpt lat="45.64023" lon="3.4193">
        <ele>627.3977051</ele>
        <time>2012-08-23T09:01:28Z</time>
      </trkpt>
      <trkpt lat="45.64026" lon="3.41927">
        <ele>626.9169922</ele>
        <time>2012-08-23T09:01:30Z</time>
      </trkpt>
      <trkpt lat="45.64035" lon="3.41918">
        <ele>628.3588867</ele>
        <time>2012-08-23T09:01:35Z</time>
      </trkpt>
      <trkpt lat="45.64048" lon="3.41915">
        <ele>632.2041016</ele>
        <time>2012-08-23T09:01:41Z</time>
      </trkpt>
      <trkpt lat="45.6405" lon="3.41914">
        <ele>631.7233887</ele>
        <time>2012-08-23T09:01:43Z</time>
      </trkpt>
      <trkpt lat="45.64059" lon="3.41907">
        <ele>635.5686035</ele>
        <time>2012-08-23T09:01:49Z</time>
      </trkpt>
      <trkpt lat="45.64061" lon="3.41904">
        <ele>634.126709</ele>
        <time>2012-08-23T09:01:52Z</time>
      </trkpt>
      <trkpt lat="45.64063" lon="3.41901">
        <ele>632.6848145</ele>
        <time>2012-08-23T09:01:55Z</time>
      </trkpt>
      <trkpt lat="45.64065" lon="3.41894">
        <ele>629.8007813</ele>
        <time>2012-08-23T09:02:00Z</time>
      </trkpt>
      <trkpt lat="45.64065" lon="3.4189">
        <ele>629.3200684</ele>
        <time>2012-08-23T09:02:03Z</time>
      </trkpt>
      <trkpt lat="45.64062" lon="3.4188">
        <ele>628.3588867</ele>
        <time>2012-08-23T09:02:07Z</time>
      </trkpt>
      <trkpt lat="45.64062" lon="3.41875">
        <ele>626.4362793</ele>
        <time>2012-08-23T09:02:09Z</time>
      </trkpt>
      <trkpt lat="45.64062" lon="3.41872">
        <ele>625.9555664</ele>
        <time>2012-08-23T09:02:10Z</time>
      </trkpt>
      <trkpt lat="45.64058" lon="3.41863">
        <ele>624.5136719</ele>
        <time>2012-08-23T09:02:14Z</time>
      </trkpt>
      <trkpt lat="45.64056" lon="3.41859">
        <ele>623.5524902</ele>
        <time>2012-08-23T09:02:16Z</time>
      </trkpt>
      <trkpt lat="45.64053" lon="3.41844">
        <ele>622.5910645</ele>
        <time>2012-08-23T09:02:21Z</time>
      </trkpt>
      <trkpt lat="45.6405" lon="3.41832">
        <ele>620.668457</ele>
        <time>2012-08-23T09:02:25Z</time>
      </trkpt>
      <trkpt lat="45.64049" lon="3.41829">
        <ele>620.1877441</ele>
        <time>2012-08-23T09:02:26Z</time>
      </trkpt>
      <trkpt lat="45.64044" lon="3.4182">
        <ele>622.1103516</ele>
        <time>2012-08-23T09:02:31Z</time>
      </trkpt>
      <trkpt lat="45.6404" lon="3.41816">
        <ele>619.2263184</ele>
        <time>2012-08-23T09:02:35Z</time>
      </trkpt>
      <trkpt lat="45.64039" lon="3.41813">
        <ele>619.2263184</ele>
        <time>2012-08-23T09:02:39Z</time>
      </trkpt>
      <trkpt lat="45.64037" lon="3.41811">
        <ele>619.2263184</ele>
        <time>2012-08-23T09:02:41Z</time>
      </trkpt>
      <trkpt lat="45.64037" lon="3.41804">
        <ele>617.3037109</ele>
        <time>2012-08-23T09:02:44Z</time>
      </trkpt>
      <trkpt lat="45.64029" lon="3.41788">
        <ele>619.7070313</ele>
        <time>2012-08-23T09:02:49Z</time>
      </trkpt>
      <trkpt lat="45.64027" lon="3.4178">
        <ele>618.7456055</ele>
        <time>2012-08-23T09:02:53Z</time>
      </trkpt>
      <trkpt lat="45.6403" lon="3.41774">
        <ele>616.822998</ele>
        <time>2012-08-23T09:02:56Z</time>
      </trkpt>
      <trkpt lat="45.64032" lon="3.41771">
        <ele>615.8618164</ele>
        <time>2012-08-23T09:02:58Z</time>
      </trkpt>
      <trkpt lat="45.64035" lon="3.41767">
        <ele>613.4584961</ele>
        <time>2012-08-23T09:03:01Z</time>
      </trkpt>
      <trkpt lat="45.64037" lon="3.41766">
        <ele>612.4970703</ele>
        <time>2012-08-23T09:03:02Z</time>
      </trkpt>
      <trkpt lat="45.64038" lon="3.41763">
        <ele>611.5358887</ele>
        <time>2012-08-23T09:03:04Z</time>
      </trkpt>
      <trkpt lat="45.64041" lon="3.41761">
        <ele>610.5744629</ele>
        <time>2012-08-23T09:03:06Z</time>
      </trkpt>
      <trkpt lat="45.6405" lon="3.41751">
        <ele>606.2485352</ele>
        <time>2012-08-23T09:03:12Z</time>
      </trkpt>
      <trkpt lat="45.64051" lon="3.41749">
        <ele>605.7680664</ele>
        <time>2012-08-23T09:03:14Z</time>
      </trkpt>
      <trkpt lat="45.64055" lon="3.41741">
        <ele>603.8452148</ele>
        <time>2012-08-23T09:03:19Z</time>
      </trkpt>
      <trkpt lat="45.6406" lon="3.41734">
        <ele>602.8837891</ele>
        <time>2012-08-23T09:03:24Z</time>
      </trkpt>
      <trkpt lat="45.64061" lon="3.41725">
        <ele>602.8837891</ele>
        <time>2012-08-23T09:03:29Z</time>
      </trkpt>
      <trkpt lat="45.64063" lon="3.41722">
        <ele>603.364502</ele>
        <time>2012-08-23T09:03:31Z</time>
      </trkpt>
      <trkpt lat="45.64066" lon="3.41718">
        <ele>607.2099609</ele>
        <time>2012-08-23T09:03:35Z</time>
      </trkpt>
      <trkpt lat="45.64068" lon="3.41715">
        <ele>607.6906738</ele>
        <time>2012-08-23T09:03:37Z</time>
      </trkpt>
      <trkpt lat="45.64073" lon="3.41711">
        <ele>606.2485352</ele>
        <time>2012-08-23T09:03:41Z</time>
      </trkpt>
      <trkpt lat="45.6408" lon="3.41709">
        <ele>604.8066406</ele>
        <time>2012-08-23T09:03:46Z</time>
      </trkpt>
      <trkpt lat="45.64084" lon="3.41708">
        <ele>605.7680664</ele>
        <time>2012-08-23T09:03:48Z</time>
      </trkpt>
      <trkpt lat="45.64087" lon="3.4171">
        <ele>605.2873535</ele>
        <time>2012-08-23T09:03:51Z</time>
      </trkpt>
      <trkpt lat="45.64092" lon="3.41713">
        <ele>605.7680664</ele>
        <time>2012-08-23T09:03:55Z</time>
      </trkpt>
      <trkpt lat="45.64094" lon="3.41713">
        <ele>605.7680664</ele>
        <time>2012-08-23T09:03:57Z</time>
      </trkpt>
      <trkpt lat="45.64096" lon="3.41713">
        <ele>605.7680664</ele>
        <time>2012-08-23T09:04:00Z</time>
      </trkpt>
      <trkpt lat="45.64098" lon="3.41715">
        <ele>606.2485352</ele>
        <time>2012-08-23T09:04:02Z</time>
      </trkpt>
      <trkpt lat="45.64105" lon="3.41722">
        <ele>607.2099609</ele>
        <time>2012-08-23T09:04:08Z</time>
      </trkpt>
      <trkpt lat="45.64107" lon="3.41726">
        <ele>606.2485352</ele>
        <time>2012-08-23T09:04:11Z</time>
      </trkpt>
      <trkpt lat="45.64109" lon="3.41732">
        <ele>603.8452148</ele>
        <time>2012-08-23T09:04:15Z</time>
      </trkpt>
      <trkpt lat="45.6411" lon="3.41732">
        <ele>602.8837891</ele>
        <time>2012-08-23T09:04:18Z</time>
      </trkpt>
      <trkpt lat="45.64121" lon="3.41729">
        <ele>601.9226074</ele>
        <time>2012-08-23T09:04:22Z</time>
      </trkpt>
      <trkpt lat="45.64131" lon="3.41726">
        <ele>598.5578613</ele>
        <time>2012-08-23T09:04:27Z</time>
      </trkpt>
      <trkpt lat="45.64139" lon="3.41723">
        <ele>596.635498</ele>
        <time>2012-08-23T09:04:31Z</time>
      </trkpt>
      <trkpt lat="45.64145" lon="3.41727">
        <ele>594.2321777</ele>
        <time>2012-08-23T09:04:34Z</time>
      </trkpt>
      <trkpt lat="45.64146" lon="3.4173">
        <ele>593.7514648</ele>
        <time>2012-08-23T09:04:35Z</time>
      </trkpt>
      <trkpt lat="45.64147" lon="3.41733">
        <ele>593.270752</ele>
        <time>2012-08-23T09:04:36Z</time>
      </trkpt>
      <trkpt lat="45.64148" lon="3.41736">
        <ele>593.270752</ele>
        <time>2012-08-23T09:04:37Z</time>
      </trkpt>
      <trkpt lat="45.64155" lon="3.41745">
        <ele>591.8288574</ele>
        <time>2012-08-23T09:04:41Z</time>
      </trkpt>
      <trkpt lat="45.6416" lon="3.41748">
        <ele>591.3481445</ele>
        <time>2012-08-23T09:04:43Z</time>
      </trkpt>
      <trkpt lat="45.64176" lon="3.41748">
        <ele>592.3095703</ele>
        <time>2012-08-23T09:04:49Z</time>
      </trkpt>
      <trkpt lat="45.64191" lon="3.41742">
        <ele>591.3481445</ele>
        <time>2012-08-23T09:04:55Z</time>
      </trkpt>
      <trkpt lat="45.64207" lon="3.41738">
        <ele>588.4643555</ele>
        <time>2012-08-23T09:05:01Z</time>
      </trkpt>
      <trkpt lat="45.64226" lon="3.41734">
        <ele>585.5800781</ele>
        <time>2012-08-23T09:05:08Z</time>
      </trkpt>
      <trkpt lat="45.64245" lon="3.41724">
        <ele>583.1767578</ele>
        <time>2012-08-23T09:05:15Z</time>
      </trkpt>
      <trkpt lat="45.64258" lon="3.41718">
        <ele>582.2155762</ele>
        <time>2012-08-23T09:05:20Z</time>
      </trkpt>
      <trkpt lat="45.64274" lon="3.4171">
        <ele>580.7736816</ele>
        <time>2012-08-23T09:05:26Z</time>
      </trkpt>
      <trkpt lat="45.6429" lon="3.41708">
        <ele>579.8122559</ele>
        <time>2012-08-23T09:05:32Z</time>
      </trkpt>
      <trkpt lat="45.64302" lon="3.41717">
        <ele>578.8510742</ele>
        <time>2012-08-23T09:05:37Z</time>
      </trkpt>
      <trkpt lat="45.64314" lon="3.41725">
        <ele>577.8896484</ele>
        <time>2012-08-23T09:05:43Z</time>
      </trkpt>
      <trkpt lat="45.64327" lon="3.41718">
        <ele>577.8896484</ele>
        <time>2012-08-23T09:05:49Z</time>
      </trkpt>
      <trkpt lat="45.64338" lon="3.41707">
        <ele>578.8510742</ele>
        <time>2012-08-23T09:05:55Z</time>
      </trkpt>
      <trkpt lat="45.64344" lon="3.41691">
        <ele>578.8510742</ele>
        <time>2012-08-23T09:06:00Z</time>
      </trkpt>
      <trkpt lat="45.64352" lon="3.41681">
        <ele>578.3703613</ele>
        <time>2012-08-23T09:06:05Z</time>
      </trkpt>
      <trkpt lat="45.6436" lon="3.41671">
        <ele>578.3703613</ele>
        <time>2012-08-23T09:06:10Z</time>
      </trkpt>
      <trkpt lat="45.64369" lon="3.41661">
        <ele>577.8896484</ele>
        <time>2012-08-23T09:06:15Z</time>
      </trkpt>
      <trkpt lat="45.6438" lon="3.41651">
        <ele>578.8510742</ele>
        <time>2012-08-23T09:06:21Z</time>
      </trkpt>
      <trkpt lat="45.64391" lon="3.41641">
        <ele>578.8510742</ele>
        <time>2012-08-23T09:06:27Z</time>
      </trkpt>
      <trkpt lat="45.64401" lon="3.41633">
        <ele>578.8510742</ele>
        <time>2012-08-23T09:06:32Z</time>
      </trkpt>
      <trkpt lat="45.64412" lon="3.41626">
        <ele>578.8510742</ele>
        <time>2012-08-23T09:06:38Z</time>
      </trkpt>
      <trkpt lat="45.64423" lon="3.41618">
        <ele>580.2929688</ele>
        <time>2012-08-23T09:06:44Z</time>
      </trkpt>
      <trkpt lat="45.64432" lon="3.41612">
        <ele>580.7736816</ele>
        <time>2012-08-23T09:06:49Z</time>
      </trkpt>
      <trkpt lat="45.64441" lon="3.41606">
        <ele>581.2543945</ele>
        <time>2012-08-23T09:06:54Z</time>
      </trkpt>
      <trkpt lat="45.6445" lon="3.41597">
        <ele>581.7348633</ele>
        <time>2012-08-23T09:06:59Z</time>
      </trkpt>
      <trkpt lat="45.64456" lon="3.41593">
        <ele>581.7348633</ele>
        <time>2012-08-23T09:07:02Z</time>
      </trkpt>
      <trkpt lat="45.64465" lon="3.41584">
        <ele>582.6962891</ele>
        <time>2012-08-23T09:07:07Z</time>
      </trkpt>
      <trkpt lat="45.64467" lon="3.41582">
        <ele>583.1767578</ele>
        <time>2012-08-23T09:07:08Z</time>
      </trkpt>
      <trkpt lat="45.64478" lon="3.41573">
        <ele>583.6574707</ele>
        <time>2012-08-23T09:07:14Z</time>
      </trkpt>
      <trkpt lat="45.64489" lon="3.41567">
        <ele>583.1767578</ele>
        <time>2012-08-23T09:07:19Z</time>
      </trkpt>
      <trkpt lat="45.64495" lon="3.41563">
        <ele>583.6574707</ele>
        <time>2012-08-23T09:07:22Z</time>
      </trkpt>
      <trkpt lat="45.64506" lon="3.41555">
        <ele>584.6188965</ele>
        <time>2012-08-23T09:07:28Z</time>
      </trkpt>
      <trkpt lat="45.64513" lon="3.41549">
        <ele>586.060791</ele>
        <time>2012-08-23T09:07:32Z</time>
      </trkpt>
      <trkpt lat="45.64522" lon="3.4154">
        <ele>587.0219727</ele>
        <time>2012-08-23T09:07:38Z</time>
      </trkpt>
      <trkpt lat="45.64529" lon="3.41538">
        <ele>587.9833984</ele>
        <time>2012-08-23T09:07:41Z</time>
      </trkpt>
      <trkpt lat="45.64533" lon="3.41536">
        <ele>588.4643555</ele>
        <time>2012-08-23T09:07:43Z</time>
      </trkpt>
      <trkpt lat="45.6454" lon="3.4153">
        <ele>588.4643555</ele>
        <time>2012-08-23T09:07:47Z</time>
      </trkpt>
      <trkpt lat="45.64541" lon="3.41528">
        <ele>588.4643555</ele>
        <time>2012-08-23T09:07:48Z</time>
      </trkpt>
      <trkpt lat="45.64542" lon="3.41522">
        <ele>587.9833984</ele>
        <time>2012-08-23T09:07:56Z</time>
      </trkpt>
      <trkpt lat="45.64542" lon="3.41521">
        <ele>588.4643555</ele>
        <time>2012-08-23T09:08:02Z</time>
      </trkpt>
      <trkpt lat="45.64542" lon="3.4152">
        <ele>587.9833984</ele>
        <time>2012-08-23T09:08:08Z</time>
      </trkpt>
      <trkpt lat="45.64543" lon="3.41519">
        <ele>587.9833984</ele>
        <time>2012-08-23T09:08:15Z</time>
      </trkpt>
      <trkpt lat="45.64541" lon="3.41517">
        <ele>588.9450684</ele>
        <time>2012-08-23T09:08:21Z</time>
      </trkpt>
      <trkpt lat="45.64535" lon="3.41505">
        <ele>590.8674316</ele>
        <time>2012-08-23T09:08:28Z</time>
      </trkpt>
      <trkpt lat="45.64527" lon="3.41493">
        <ele>591.3481445</ele>
        <time>2012-08-23T09:08:35Z</time>
      </trkpt>
      <trkpt lat="45.64521" lon="3.41481">
        <ele>591.8288574</ele>
        <time>2012-08-23T09:08:41Z</time>
      </trkpt>
      <trkpt lat="45.64511" lon="3.41463">
        <ele>591.8288574</ele>
        <time>2012-08-23T09:08:47Z</time>
      </trkpt>
      <trkpt lat="45.64503" lon="3.41442">
        <ele>588.9450684</ele>
        <time>2012-08-23T09:08:53Z</time>
      </trkpt>
      <trkpt lat="45.64499" lon="3.41431">
        <ele>587.9833984</ele>
        <time>2012-08-23T09:08:56Z</time>
      </trkpt>
      <trkpt lat="45.64495" lon="3.41418">
        <ele>586.060791</ele>
        <time>2012-08-23T09:09:00Z</time>
      </trkpt>
      <trkpt lat="45.64489" lon="3.41402">
        <ele>586.060791</ele>
        <time>2012-08-23T09:09:05Z</time>
      </trkpt>
      <trkpt lat="45.64484" lon="3.41383">
        <ele>584.6188965</ele>
        <time>2012-08-23T09:09:11Z</time>
      </trkpt>
      <trkpt lat="45.64483" lon="3.41381">
        <ele>584.1381836</ele>
        <time>2012-08-23T09:09:12Z</time>
      </trkpt>
      <trkpt lat="45.64482" lon="3.41378">
        <ele>584.1381836</ele>
        <time>2012-08-23T09:09:13Z</time>
      </trkpt>
      <trkpt lat="45.64481" lon="3.41375">
        <ele>583.6574707</ele>
        <time>2012-08-23T09:09:14Z</time>
      </trkpt>
      <trkpt lat="45.64483" lon="3.41367">
        <ele>584.6188965</ele>
        <time>2012-08-23T09:09:17Z</time>
      </trkpt>
      <trkpt lat="45.64481" lon="3.41352">
        <ele>584.1381836</ele>
        <time>2012-08-23T09:09:22Z</time>
      </trkpt>
      <trkpt lat="45.6448" lon="3.41336">
        <ele>584.6188965</ele>
        <time>2012-08-23T09:09:29Z</time>
      </trkpt>
      <trkpt lat="45.64481" lon="3.41324">
        <ele>586.5415039</ele>
        <time>2012-08-23T09:09:36Z</time>
      </trkpt>
      <trkpt lat="45.64483" lon="3.41315">
        <ele>587.0219727</ele>
        <time>2012-08-23T09:09:41Z</time>
      </trkpt>
      <trkpt lat="45.64483" lon="3.4131">
        <ele>587.5026855</ele>
        <time>2012-08-23T09:09:44Z</time>
      </trkpt>
      <trkpt lat="45.64484" lon="3.41303">
        <ele>587.5026855</ele>
        <time>2012-08-23T09:09:48Z</time>
      </trkpt>
      <trkpt lat="45.64484" lon="3.41295">
        <ele>587.0219727</ele>
        <time>2012-08-23T09:09:54Z</time>
      </trkpt>
      <trkpt lat="45.64483" lon="3.41293">
        <ele>587.5026855</ele>
        <time>2012-08-23T09:09:56Z</time>
      </trkpt>
      <trkpt lat="45.64482" lon="3.41285">
        <ele>590.3869629</ele>
        <time>2012-08-23T09:10:24Z</time>
      </trkpt>
      <trkpt lat="45.64481" lon="3.41285">
        <ele>590.3869629</ele>
        <time>2012-08-23T09:10:25Z</time>
      </trkpt>
      <trkpt lat="45.64475" lon="3.41288">
        <ele>591.8288574</ele>
        <time>2012-08-23T09:10:30Z</time>
      </trkpt>
      <trkpt lat="45.64472" lon="3.41292">
        <ele>594.7126465</ele>
        <time>2012-08-23T09:10:35Z</time>
      </trkpt>
      <trkpt lat="45.64464" lon="3.41298">
        <ele>595.6740723</ele>
        <time>2012-08-23T09:10:42Z</time>
      </trkpt>
      <trkpt lat="45.64456" lon="3.41302">
        <ele>593.270752</ele>
        <time>2012-08-23T09:10:50Z</time>
      </trkpt>
      <trkpt lat="45.64448" lon="3.41304">
        <ele>593.7514648</ele>
        <time>2012-08-23T09:10:57Z</time>
      </trkpt>
      <trkpt lat="45.64442" lon="3.41306">
        <ele>592.7902832</ele>
        <time>2012-08-23T09:11:04Z</time>
      </trkpt>
      <trkpt lat="45.64438" lon="3.41309">
        <ele>594.2321777</ele>
        <time>2012-08-23T09:11:08Z</time>
      </trkpt>
      <trkpt lat="45.64433" lon="3.41308">
        <ele>595.1933594</ele>
        <time>2012-08-23T09:11:14Z</time>
      </trkpt>
      <trkpt lat="45.6443" lon="3.41306">
        <ele>593.7514648</ele>
        <time>2012-08-23T09:11:20Z</time>
      </trkpt>
      <trkpt lat="45.64423" lon="3.41304">
        <ele>592.3095703</ele>
        <time>2012-08-23T09:11:26Z</time>
      </trkpt>
      <trkpt lat="45.64422" lon="3.41302">
        <ele>591.8288574</ele>
        <time>2012-08-23T09:11:28Z</time>
      </trkpt>
      <trkpt lat="45.64417" lon="3.41299">
        <ele>591.3481445</ele>
        <time>2012-08-23T09:11:34Z</time>
      </trkpt>
      <trkpt lat="45.6441" lon="3.41296">
        <ele>594.2321777</ele>
        <time>2012-08-23T09:11:38Z</time>
      </trkpt>
      <trkpt lat="45.64404" lon="3.41291">
        <ele>596.1547852</ele>
        <time>2012-08-23T09:11:43Z</time>
      </trkpt>
      <trkpt lat="45.64397" lon="3.41287">
        <ele>598.5578613</ele>
        <time>2012-08-23T09:11:48Z</time>
      </trkpt>
      <trkpt lat="45.64386" lon="3.41275">
        <ele>600</ele>
        <time>2012-08-23T09:11:56Z</time>
      </trkpt>
      <trkpt lat="45.64381" lon="3.4127">
        <ele>600</ele>
        <time>2012-08-23T09:12:01Z</time>
      </trkpt>
      <trkpt lat="45.64378" lon="3.41267">
        <ele>600.4807129</ele>
        <time>2012-08-23T09:12:04Z</time>
      </trkpt>
      <trkpt lat="45.64372" lon="3.41264">
        <ele>600.4807129</ele>
        <time>2012-08-23T09:12:10Z</time>
      </trkpt>
      <trkpt lat="45.64363" lon="3.41263">
        <ele>598.5578613</ele>
        <time>2012-08-23T09:12:17Z</time>
      </trkpt>
      <trkpt lat="45.64351" lon="3.4126">
        <ele>597.1159668</ele>
        <time>2012-08-23T09:12:24Z</time>
      </trkpt>
      <trkpt lat="45.64341" lon="3.41256">
        <ele>596.1547852</ele>
        <time>2012-08-23T09:12:28Z</time>
      </trkpt>
      <trkpt lat="45.64339" lon="3.41255">
        <ele>595.6740723</ele>
        <time>2012-08-23T09:12:29Z</time>
      </trkpt>
      <trkpt lat="45.64322" lon="3.41246">
        <ele>594.7126465</ele>
        <time>2012-08-23T09:12:36Z</time>
      </trkpt>
      <trkpt lat="45.64313" lon="3.4123">
        <ele>593.7514648</ele>
        <time>2012-08-23T09:12:43Z</time>
      </trkpt>
      <trkpt lat="45.64309" lon="3.41226">
        <ele>594.7126465</ele>
        <time>2012-08-23T09:12:46Z</time>
      </trkpt>
      <trkpt lat="45.64298" lon="3.41218">
        <ele>594.2321777</ele>
        <time>2012-08-23T09:12:52Z</time>
      </trkpt>
      <trkpt lat="45.64288" lon="3.41208">
        <ele>586.5415039</ele>
        <time>2012-08-23T09:12:58Z</time>
      </trkpt>
      <trkpt lat="45.64276" lon="3.412">
        <ele>587.0219727</ele>
        <time>2012-08-23T09:13:03Z</time>
      </trkpt>
      <trkpt lat="45.64269" lon="3.41192">
        <ele>586.5415039</ele>
        <time>2012-08-23T09:13:06Z</time>
      </trkpt>
      <trkpt lat="45.64256" lon="3.41174">
        <ele>585.5800781</ele>
        <time>2012-08-23T09:13:13Z</time>
      </trkpt>
      <trkpt lat="45.6424" lon="3.41158">
        <ele>593.7514648</ele>
        <time>2012-08-23T09:13:20Z</time>
      </trkpt>
      <trkpt lat="45.64231" lon="3.4115">
        <ele>595.6740723</ele>
        <time>2012-08-23T09:13:26Z</time>
      </trkpt>
      <trkpt lat="45.64223" lon="3.41145">
        <ele>595.6740723</ele>
        <time>2012-08-23T09:13:29Z</time>
      </trkpt>
      <trkpt lat="45.64217" lon="3.41139">
        <ele>595.6740723</ele>
        <time>2012-08-23T09:13:32Z</time>
      </trkpt>
      <trkpt lat="45.64214" lon="3.41138">
        <ele>596.1547852</ele>
        <time>2012-08-23T09:13:33Z</time>
      </trkpt>
      <trkpt lat="45.64208" lon="3.41133">
        <ele>595.6740723</ele>
        <time>2012-08-23T09:13:36Z</time>
      </trkpt>
      <trkpt lat="45.64204" lon="3.41127">
        <ele>594.2321777</ele>
        <time>2012-08-23T09:13:39Z</time>
      </trkpt>
      <trkpt lat="45.64202" lon="3.41124">
        <ele>594.7126465</ele>
        <time>2012-08-23T09:13:41Z</time>
      </trkpt>
      <trkpt lat="45.64197" lon="3.41119">
        <ele>594.7126465</ele>
        <time>2012-08-23T09:13:45Z</time>
      </trkpt>
      <trkpt lat="45.64193" lon="3.41114">
        <ele>593.270752</ele>
        <time>2012-08-23T09:13:49Z</time>
      </trkpt>
      <trkpt lat="45.6419" lon="3.41111">
        <ele>591.3481445</ele>
        <time>2012-08-23T09:13:52Z</time>
      </trkpt>
      <trkpt lat="45.64188" lon="3.41108">
        <ele>587.5026855</ele>
        <time>2012-08-23T09:13:54Z</time>
      </trkpt>
      <trkpt lat="45.64185" lon="3.41101">
        <ele>585.0996094</ele>
        <time>2012-08-23T09:13:58Z</time>
      </trkpt>
      <trkpt lat="45.6418" lon="3.41092">
        <ele>583.1767578</ele>
        <time>2012-08-23T09:14:02Z</time>
      </trkpt>
      <trkpt lat="45.64177" lon="3.41089">
        <ele>581.7348633</ele>
        <time>2012-08-23T09:14:05Z</time>
      </trkpt>
      <trkpt lat="45.64175" lon="3.41079">
        <ele>576.9284668</ele>
        <time>2012-08-23T09:14:11Z</time>
      </trkpt>
      <trkpt lat="45.6417" lon="3.41065">
        <ele>570.1989746</ele>
        <time>2012-08-23T09:14:16Z</time>
      </trkpt>
      <trkpt lat="45.64168" lon="3.41057">
        <ele>568.7570801</ele>
        <time>2012-08-23T09:14:19Z</time>
      </trkpt>
      <trkpt lat="45.64166" lon="3.41054">
        <ele>568.2763672</ele>
        <time>2012-08-23T09:14:20Z</time>
      </trkpt>
      <trkpt lat="45.64162" lon="3.41038">
        <ele>561.0666504</ele>
        <time>2012-08-23T09:14:26Z</time>
      </trkpt>
      <trkpt lat="45.64159" lon="3.41028">
        <ele>557.7021484</ele>
        <time>2012-08-23T09:14:29Z</time>
      </trkpt>
      <trkpt lat="45.64159" lon="3.41021">
        <ele>555.298584</ele>
        <time>2012-08-23T09:14:31Z</time>
      </trkpt>
      <trkpt lat="45.64154" lon="3.4101">
        <ele>558.1828613</ele>
        <time>2012-08-23T09:14:35Z</time>
      </trkpt>
      <trkpt lat="45.64149" lon="3.41002">
        <ele>555.298584</ele>
        <time>2012-08-23T09:14:40Z</time>
      </trkpt>
      <trkpt lat="45.64141" lon="3.40998">
        <ele>553.3759766</ele>
        <time>2012-08-23T09:14:44Z</time>
      </trkpt>
      <trkpt lat="45.64129" lon="3.40993">
        <ele>549.0500488</ele>
        <time>2012-08-23T09:14:50Z</time>
      </trkpt>
      <trkpt lat="45.64125" lon="3.4099">
        <ele>546.6468506</ele>
        <time>2012-08-23T09:14:52Z</time>
      </trkpt>
      <trkpt lat="45.64122" lon="3.40987">
        <ele>544.2436523</ele>
        <time>2012-08-23T09:14:54Z</time>
      </trkpt>
      <trkpt lat="45.64113" lon="3.40977">
        <ele>536.5531006</ele>
        <time>2012-08-23T09:14:59Z</time>
      </trkpt>
      <trkpt lat="45.64099" lon="3.40962">
        <ele>540.3983154</ele>
        <time>2012-08-23T09:15:04Z</time>
      </trkpt>
      <trkpt lat="45.64077" lon="3.40942">
        <ele>553.8566895</ele>
        <time>2012-08-23T09:15:10Z</time>
      </trkpt>
      <trkpt lat="45.64074" lon="3.40938">
        <ele>554.8178711</ele>
        <time>2012-08-23T09:15:11Z</time>
      </trkpt>
      <trkpt lat="45.64065" lon="3.40919">
        <ele>559.144043</ele>
        <time>2012-08-23T09:15:17Z</time>
      </trkpt>
      <trkpt lat="45.64063" lon="3.4091">
        <ele>559.6247559</ele>
        <time>2012-08-23T09:15:20Z</time>
      </trkpt>
      <trkpt lat="45.64061" lon="3.40901">
        <ele>559.144043</ele>
        <time>2012-08-23T09:15:23Z</time>
      </trkpt>
      <trkpt lat="45.64059" lon="3.40898">
        <ele>559.6247559</ele>
        <time>2012-08-23T09:15:24Z</time>
      </trkpt>
      <trkpt lat="45.64051" lon="3.40883">
        <ele>563.9504395</ele>
        <time>2012-08-23T09:15:29Z</time>
      </trkpt>
      <trkpt lat="45.64045" lon="3.40874">
        <ele>567.3151855</ele>
        <time>2012-08-23T09:15:34Z</time>
      </trkpt>
      <trkpt lat="45.64043" lon="3.4087">
        <ele>568.2763672</ele>
        <time>2012-08-23T09:15:37Z</time>
      </trkpt>
      <trkpt lat="45.64035" lon="3.40856">
        <ele>569.7185059</ele>
        <time>2012-08-23T09:15:46Z</time>
      </trkpt>
      <trkpt lat="45.64029" lon="3.40847">
        <ele>571.1604004</ele>
        <time>2012-08-23T09:15:53Z</time>
      </trkpt>
      <trkpt lat="45.64017" lon="3.40838">
        <ele>574.0444336</ele>
        <time>2012-08-23T09:16:02Z</time>
      </trkpt>
      <trkpt lat="45.64009" lon="3.40835">
        <ele>574.0444336</ele>
        <time>2012-08-23T09:16:08Z</time>
      </trkpt>
      <trkpt lat="45.64004" lon="3.40833">
        <ele>574.0444336</ele>
        <time>2012-08-23T09:16:12Z</time>
      </trkpt>
      <trkpt lat="45.64001" lon="3.40828">
        <ele>573.083252</ele>
        <time>2012-08-23T09:16:16Z</time>
      </trkpt>
      <trkpt lat="45.63998" lon="3.40823">
        <ele>574.0444336</ele>
        <time>2012-08-23T09:16:20Z</time>
      </trkpt>
      <trkpt lat="45.63992" lon="3.40814">
        <ele>573.5639648</ele>
        <time>2012-08-23T09:16:29Z</time>
      </trkpt>
      <trkpt lat="45.63987" lon="3.40809">
        <ele>573.5639648</ele>
        <time>2012-08-23T09:16:35Z</time>
      </trkpt>
      <trkpt lat="45.63984" lon="3.40805">
        <ele>575.4863281</ele>
        <time>2012-08-23T09:16:39Z</time>
      </trkpt>
      <trkpt lat="45.63979" lon="3.40801">
        <ele>577.4091797</ele>
        <time>2012-08-23T09:16:44Z</time>
      </trkpt>
      <trkpt lat="45.63971" lon="3.40792">
        <ele>578.3703613</ele>
        <time>2012-08-23T09:16:52Z</time>
      </trkpt>
      <trkpt lat="45.63964" lon="3.40784">
        <ele>581.7348633</ele>
        <time>2012-08-23T09:16:59Z</time>
      </trkpt>
      <trkpt lat="45.63959" lon="3.40778">
        <ele>583.6574707</ele>
        <time>2012-08-23T09:17:05Z</time>
      </trkpt>
      <trkpt lat="45.63951" lon="3.40765">
        <ele>585.0996094</ele>
        <time>2012-08-23T09:17:14Z</time>
      </trkpt>
      <trkpt lat="45.63947" lon="3.4075">
        <ele>587.5026855</ele>
        <time>2012-08-23T09:17:22Z</time>
      </trkpt>
      <trkpt lat="45.63948" lon="3.4074">
        <ele>587.5026855</ele>
        <time>2012-08-23T09:17:26Z</time>
      </trkpt>
      <trkpt lat="45.6395" lon="3.40733">
        <ele>587.5026855</ele>
        <time>2012-08-23T09:17:29Z</time>
      </trkpt>
      <trkpt lat="45.63952" lon="3.40731">
        <ele>587.5026855</ele>
        <time>2012-08-23T09:17:30Z</time>
      </trkpt>
      <trkpt lat="45.63955" lon="3.40722">
        <ele>586.060791</ele>
        <time>2012-08-23T09:17:35Z</time>
      </trkpt>
      <trkpt lat="45.63955" lon="3.4072">
        <ele>586.060791</ele>
        <time>2012-08-23T09:17:37Z</time>
      </trkpt>
      <trkpt lat="45.63957" lon="3.40715">
        <ele>586.5415039</ele>
        <time>2012-08-23T09:17:41Z</time>
      </trkpt>
      <trkpt lat="45.63959" lon="3.40707">
        <ele>587.0219727</ele>
        <time>2012-08-23T09:17:45Z</time>
      </trkpt>
      <trkpt lat="45.63958" lon="3.40693">
        <ele>588.4643555</ele>
        <time>2012-08-23T09:17:52Z</time>
      </trkpt>
      <trkpt lat="45.63957" lon="3.40691">
        <ele>589.4255371</ele>
        <time>2012-08-23T09:17:53Z</time>
      </trkpt>
      <trkpt lat="45.63956" lon="3.40684">
        <ele>591.3481445</ele>
        <time>2012-08-23T09:17:58Z</time>
      </trkpt>
      <trkpt lat="45.63953" lon="3.40679">
        <ele>594.2321777</ele>
        <time>2012-08-23T09:18:02Z</time>
      </trkpt>
      <trkpt lat="45.6395" lon="3.40675">
        <ele>596.635498</ele>
        <time>2012-08-23T09:18:07Z</time>
      </trkpt>
      <trkpt lat="45.63947" lon="3.40669">
        <ele>596.635498</ele>
        <time>2012-08-23T09:18:12Z</time>
      </trkpt>
      <trkpt lat="45.63943" lon="3.40663">
        <ele>596.635498</ele>
        <time>2012-08-23T09:18:17Z</time>
      </trkpt>
      <trkpt lat="45.63937" lon="3.4065">
        <ele>592.7902832</ele>
        <time>2012-08-23T09:18:26Z</time>
      </trkpt>
      <trkpt lat="45.63936" lon="3.40648">
        <ele>591.8288574</ele>
        <time>2012-08-23T09:18:27Z</time>
      </trkpt>
      <trkpt lat="45.63931" lon="3.40636">
        <ele>590.3869629</ele>
        <time>2012-08-23T09:18:33Z</time>
      </trkpt>
      <trkpt lat="45.6393" lon="3.40634">
        <ele>590.3869629</ele>
        <time>2012-08-23T09:18:34Z</time>
      </trkpt>
      <trkpt lat="45.63921" lon="3.40619">
        <ele>588.9450684</ele>
        <time>2012-08-23T09:18:40Z</time>
      </trkpt>
      <trkpt lat="45.63911" lon="3.40603">
        <ele>585.0996094</ele>
        <time>2012-08-23T09:18:46Z</time>
      </trkpt>
      <trkpt lat="45.63904" lon="3.40596">
        <ele>585.5800781</ele>
        <time>2012-08-23T09:18:50Z</time>
      </trkpt>
      <trkpt lat="45.63897" lon="3.40588">
        <ele>590.3869629</ele>
        <time>2012-08-23T09:18:57Z</time>
      </trkpt>
      <trkpt lat="45.63889" lon="3.4058">
        <ele>596.1547852</ele>
        <time>2012-08-23T09:19:05Z</time>
      </trkpt>
      <trkpt lat="45.63885" lon="3.40576">
        <ele>599.5192871</ele>
        <time>2012-08-23T09:19:10Z</time>
      </trkpt>
      <trkpt lat="45.63879" lon="3.4057">
        <ele>602.8837891</ele>
        <time>2012-08-23T09:19:16Z</time>
      </trkpt>
      <trkpt lat="45.63874" lon="3.40565">
        <ele>604.8066406</ele>
        <time>2012-08-23T09:19:23Z</time>
      </trkpt>
      <trkpt lat="45.63868" lon="3.40558">
        <ele>606.2485352</ele>
        <time>2012-08-23T09:19:30Z</time>
      </trkpt>
      <trkpt lat="45.63863" lon="3.40552">
        <ele>608.6518555</ele>
        <time>2012-08-23T09:19:36Z</time>
      </trkpt>
      <trkpt lat="45.63856" lon="3.40545">
        <ele>612.0166016</ele>
        <time>2012-08-23T09:19:43Z</time>
      </trkpt>
      <trkpt lat="45.63848" lon="3.40534">
        <ele>614.4196777</ele>
        <time>2012-08-23T09:19:51Z</time>
      </trkpt>
      <trkpt lat="45.63844" lon="3.40525">
        <ele>616.3422852</ele>
        <time>2012-08-23T09:19:58Z</time>
      </trkpt>
      <trkpt lat="45.63842" lon="3.40517">
        <ele>617.7841797</ele>
        <time>2012-08-23T09:20:04Z</time>
      </trkpt>
      <trkpt lat="45.63842" lon="3.40514">
        <ele>618.2648926</ele>
        <time>2012-08-23T09:20:06Z</time>
      </trkpt>
      <trkpt lat="45.63841" lon="3.40503">
        <ele>620.1877441</ele>
        <time>2012-08-23T09:20:13Z</time>
      </trkpt>
      <trkpt lat="45.63841" lon="3.40502">
        <ele>620.668457</ele>
        <time>2012-08-23T09:20:14Z</time>
      </trkpt>
      <trkpt lat="45.6384" lon="3.40492">
        <ele>621.6296387</ele>
        <time>2012-08-23T09:20:21Z</time>
      </trkpt>
      <trkpt lat="45.6384" lon="3.40487">
        <ele>622.1103516</ele>
        <time>2012-08-23T09:20:24Z</time>
      </trkpt>
      <trkpt lat="45.63839" lon="3.40474">
        <ele>624.032959</ele>
        <time>2012-08-23T09:20:32Z</time>
      </trkpt>
      <trkpt lat="45.63838" lon="3.40469">
        <ele>624.5136719</ele>
        <time>2012-08-23T09:20:35Z</time>
      </trkpt>
      <trkpt lat="45.63835" lon="3.40456">
        <ele>626.9169922</ele>
        <time>2012-08-23T09:20:42Z</time>
      </trkpt>
      <trkpt lat="45.63832" lon="3.40444">
        <ele>628.3588867</ele>
        <time>2012-08-23T09:20:49Z</time>
      </trkpt>
      <trkpt lat="45.63831" lon="3.40438">
        <ele>627.8781738</ele>
        <time>2012-08-23T09:20:52Z</time>
      </trkpt>
      <trkpt lat="45.63831" lon="3.40431">
        <ele>627.3977051</ele>
        <time>2012-08-23T09:20:56Z</time>
      </trkpt>
      <trkpt lat="45.6383" lon="3.40425">
        <ele>627.3977051</ele>
        <time>2012-08-23T09:20:59Z</time>
      </trkpt>
      <trkpt lat="45.63828" lon="3.40415">
        <ele>627.3977051</ele>
        <time>2012-08-23T09:21:04Z</time>
      </trkpt>
      <trkpt lat="45.63827" lon="3.40401">
        <ele>627.8781738</ele>
        <time>2012-08-23T09:21:09Z</time>
      </trkpt>
      <trkpt lat="45.63827" lon="3.40385">
        <ele>628.3588867</ele>
        <time>2012-08-23T09:21:14Z</time>
      </trkpt>
      <trkpt lat="45.63827" lon="3.40366">
        <ele>628.8395996</ele>
        <time>2012-08-23T09:21:20Z</time>
      </trkpt>
      <trkpt lat="45.63828" lon="3.40346">
        <ele>628.8395996</ele>
        <time>2012-08-23T09:21:26Z</time>
      </trkpt>
      <trkpt lat="45.63828" lon="3.40339">
        <ele>629.3200684</ele>
        <time>2012-08-23T09:21:28Z</time>
      </trkpt>
      <trkpt lat="45.6383" lon="3.40326">
        <ele>630.2814941</ele>
        <time>2012-08-23T09:21:32Z</time>
      </trkpt>
      <trkpt lat="45.6383" lon="3.40309">
        <ele>630.762207</ele>
        <time>2012-08-23T09:21:37Z</time>
      </trkpt>
      <trkpt lat="45.63834" lon="3.40294">
        <ele>629.8007813</ele>
        <time>2012-08-23T09:21:42Z</time>
      </trkpt>
      <trkpt lat="45.63845" lon="3.40287">
        <ele>629.8007813</ele>
        <time>2012-08-23T09:21:47Z</time>
      </trkpt>
      <trkpt lat="45.63846" lon="3.40286">
        <ele>630.2814941</ele>
        <time>2012-08-23T09:21:48Z</time>
      </trkpt>
      <trkpt lat="45.63856" lon="3.40274">
        <ele>629.8007813</ele>
        <time>2012-08-23T09:21:56Z</time>
      </trkpt>
      <trkpt lat="45.63863" lon="3.40257">
        <ele>632.2041016</ele>
        <time>2012-08-23T09:22:05Z</time>
      </trkpt>
      <trkpt lat="45.63868" lon="3.40248">
        <ele>632.6848145</ele>
        <time>2012-08-23T09:22:11Z</time>
      </trkpt>
      <trkpt lat="45.63868" lon="3.40247">
        <ele>633.1652832</ele>
        <time>2012-08-23T09:22:20Z</time>
      </trkpt>
      <trkpt lat="45.63869" lon="3.40245">
        <ele>634.126709</ele>
        <time>2012-08-23T09:22:27Z</time>
      </trkpt>
      <trkpt lat="45.63874" lon="3.40237">
        <ele>633.1652832</ele>
        <time>2012-08-23T09:22:33Z</time>
      </trkpt>
      <trkpt lat="45.63881" lon="3.40223">
        <ele>634.126709</ele>
        <time>2012-08-23T09:22:41Z</time>
      </trkpt>
      <trkpt lat="45.63884" lon="3.40213">
        <ele>635.5686035</ele>
        <time>2012-08-23T09:22:46Z</time>
      </trkpt>
      <trkpt lat="45.63888" lon="3.40204">
        <ele>638.4528809</ele>
        <time>2012-08-23T09:22:52Z</time>
      </trkpt>
      <trkpt lat="45.63895" lon="3.40194">
        <ele>639.4140625</ele>
        <time>2012-08-23T09:22:59Z</time>
      </trkpt>
      <trkpt lat="45.63896" lon="3.40191">
        <ele>640.3754883</ele>
        <time>2012-08-23T09:23:05Z</time>
      </trkpt>
      <trkpt lat="45.63896" lon="3.40192">
        <ele>640.855957</ele>
        <time>2012-08-23T09:23:11Z</time>
      </trkpt>
      <trkpt lat="45.63898" lon="3.40191">
        <ele>639.8947754</ele>
        <time>2012-08-23T09:23:18Z</time>
      </trkpt>
      <trkpt lat="45.63905" lon="3.40183">
        <ele>639.4140625</ele>
        <time>2012-08-23T09:23:25Z</time>
      </trkpt>
      <trkpt lat="45.6391" lon="3.40177">
        <ele>638.9335938</ele>
        <time>2012-08-23T09:23:30Z</time>
      </trkpt>
      <trkpt lat="45.63919" lon="3.40168">
        <ele>638.9335938</ele>
        <time>2012-08-23T09:23:37Z</time>
      </trkpt>
      <trkpt lat="45.63926" lon="3.40159">
        <ele>638.4528809</ele>
        <time>2012-08-23T09:23:44Z</time>
      </trkpt>
      <trkpt lat="45.6393" lon="3.40154">
        <ele>638.4528809</ele>
        <time>2012-08-23T09:23:48Z</time>
      </trkpt>
      <trkpt lat="45.63936" lon="3.40147">
        <ele>637.972168</ele>
        <time>2012-08-23T09:23:54Z</time>
      </trkpt>
      <trkpt lat="45.63941" lon="3.40142">
        <ele>637.4914551</ele>
        <time>2012-08-23T09:23:59Z</time>
      </trkpt>
      <trkpt lat="45.63949" lon="3.40134">
        <ele>637.4914551</ele>
        <time>2012-08-23T09:24:06Z</time>
      </trkpt>
      <trkpt lat="45.63955" lon="3.40129">
        <ele>638.4528809</ele>
        <time>2012-08-23T09:24:11Z</time>
      </trkpt>
      <trkpt lat="45.63959" lon="3.40124">
        <ele>639.8947754</ele>
        <time>2012-08-23T09:24:15Z</time>
      </trkpt>
      <trkpt lat="45.63959" lon="3.40121">
        <ele>641.3366699</ele>
        <time>2012-08-23T09:24:22Z</time>
      </trkpt>
      <trkpt lat="45.6396" lon="3.40121">
        <ele>641.8173828</ele>
        <time>2012-08-23T09:24:27Z</time>
      </trkpt>
      <trkpt lat="45.63961" lon="3.40121">
        <ele>641.8173828</ele>
        <time>2012-08-23T09:24:34Z</time>
      </trkpt>
      <trkpt lat="45.63963" lon="3.4012">
        <ele>642.2980957</ele>
        <time>2012-08-23T09:24:36Z</time>
      </trkpt>
      <trkpt lat="45.63975" lon="3.40113">
        <ele>643.2592773</ele>
        <time>2012-08-23T09:24:45Z</time>
      </trkpt>
      <trkpt lat="45.63984" lon="3.40106">
        <ele>646.1433105</ele>
        <time>2012-08-23T09:24:52Z</time>
      </trkpt>
      <trkpt lat="45.63995" lon="3.40096">
        <ele>648.5463867</ele>
        <time>2012-08-23T09:25:01Z</time>
      </trkpt>
      <trkpt lat="45.64003" lon="3.40093">
        <ele>650.949707</ele>
        <time>2012-08-23T09:25:07Z</time>
      </trkpt>
      <trkpt lat="45.64011" lon="3.40092">
        <ele>652.3918457</ele>
        <time>2012-08-23T09:25:13Z</time>
      </trkpt>
      <trkpt lat="45.64019" lon="3.40093">
        <ele>653.3532715</ele>
        <time>2012-08-23T09:25:17Z</time>
      </trkpt>
      <trkpt lat="45.64026" lon="3.40095">
        <ele>653.3532715</ele>
        <time>2012-08-23T09:25:21Z</time>
      </trkpt>
      <trkpt lat="45.64038" lon="3.40097">
        <ele>654.3146973</ele>
        <time>2012-08-23T09:25:27Z</time>
      </trkpt>
      <trkpt lat="45.64042" lon="3.40099">
        <ele>654.795166</ele>
        <time>2012-08-23T09:25:29Z</time>
      </trkpt>
      <trkpt lat="45.64051" lon="3.40114">
        <ele>655.2758789</ele>
        <time>2012-08-23T09:25:36Z</time>
      </trkpt>
      <trkpt lat="45.64056" lon="3.40121">
        <ele>656.2370605</ele>
        <time>2012-08-23T09:25:40Z</time>
      </trkpt>
      <trkpt lat="45.64057" lon="3.40123">
        <ele>656.7177734</ele>
        <time>2012-08-23T09:25:41Z</time>
      </trkpt>
      <trkpt lat="45.64066" lon="3.40132">
        <ele>658.1599121</ele>
        <time>2012-08-23T09:25:47Z</time>
      </trkpt>
      <trkpt lat="45.64073" lon="3.40137">
        <ele>659.6018066</ele>
        <time>2012-08-23T09:25:51Z</time>
      </trkpt>
      <trkpt lat="45.64074" lon="3.40138">
        <ele>659.6018066</ele>
        <time>2012-08-23T09:25:52Z</time>
      </trkpt>
      <trkpt lat="45.64083" lon="3.40144">
        <ele>661.5244141</ele>
        <time>2012-08-23T09:25:57Z</time>
      </trkpt>
      <trkpt lat="45.64091" lon="3.4015">
        <ele>661.0437012</ele>
        <time>2012-08-23T09:26:03Z</time>
      </trkpt>
      <trkpt lat="45.64102" lon="3.40158">
        <ele>662.005127</ele>
        <time>2012-08-23T09:26:09Z</time>
      </trkpt>
      <trkpt lat="45.6411" lon="3.40162">
        <ele>662.4855957</ele>
        <time>2012-08-23T09:26:14Z</time>
      </trkpt>
      <trkpt lat="45.64119" lon="3.40171">
        <ele>663.9274902</ele>
        <time>2012-08-23T09:26:20Z</time>
      </trkpt>
      <trkpt lat="45.64126" lon="3.40177">
        <ele>664.4082031</ele>
        <time>2012-08-23T09:26:24Z</time>
      </trkpt>
      <trkpt lat="45.64132" lon="3.40182">
        <ele>663.9274902</ele>
        <time>2012-08-23T09:26:27Z</time>
      </trkpt>
      <trkpt lat="45.64141" lon="3.40191">
        <ele>662.9663086</ele>
        <time>2012-08-23T09:26:32Z</time>
      </trkpt>
      <trkpt lat="45.6415" lon="3.40199">
        <ele>661.5244141</ele>
        <time>2012-08-23T09:26:38Z</time>
      </trkpt>
      <trkpt lat="45.64152" lon="3.402">
        <ele>661.5244141</ele>
        <time>2012-08-23T09:26:39Z</time>
      </trkpt>
      <trkpt lat="45.64156" lon="3.40209">
        <ele>662.005127</ele>
        <time>2012-08-23T09:26:44Z</time>
      </trkpt>
      <trkpt lat="45.6416" lon="3.40219">
        <ele>661.5244141</ele>
        <time>2012-08-23T09:26:49Z</time>
      </trkpt>
      <trkpt lat="45.64166" lon="3.40235">
        <ele>661.0437012</ele>
        <time>2012-08-23T09:26:54Z</time>
      </trkpt>
      <trkpt lat="45.64172" lon="3.40251">
        <ele>662.005127</ele>
        <time>2012-08-23T09:26:59Z</time>
      </trkpt>
      <trkpt lat="45.64173" lon="3.40258">
        <ele>662.005127</ele>
        <time>2012-08-23T09:27:01Z</time>
      </trkpt>
      <trkpt lat="45.64173" lon="3.40276">
        <ele>664.4082031</ele>
        <time>2012-08-23T09:27:07Z</time>
      </trkpt>
      <trkpt lat="45.64174" lon="3.40289">
        <ele>666.3308105</ele>
        <time>2012-08-23T09:27:12Z</time>
      </trkpt>
      <trkpt lat="45.64178" lon="3.40303">
        <ele>671.6181641</ele>
        <time>2012-08-23T09:27:17Z</time>
      </trkpt>
      <trkpt lat="45.64179" lon="3.40312">
        <ele>673.5410156</ele>
        <time>2012-08-23T09:27:20Z</time>
      </trkpt>
      <trkpt lat="45.64184" lon="3.40325">
        <ele>673.0603027</ele>
        <time>2012-08-23T09:27:24Z</time>
      </trkpt>
      <trkpt lat="45.64189" lon="3.40331">
        <ele>670.6569824</ele>
        <time>2012-08-23T09:27:27Z</time>
      </trkpt>
      <trkpt lat="45.64199" lon="3.40336">
        <ele>672.098877</ele>
        <time>2012-08-23T09:27:32Z</time>
      </trkpt>
      <trkpt lat="45.64201" lon="3.40336">
        <ele>673.0603027</ele>
        <time>2012-08-23T09:27:33Z</time>
      </trkpt>
      <trkpt lat="45.64206" lon="3.40335">
        <ele>670.6569824</ele>
        <time>2012-08-23T09:27:36Z</time>
      </trkpt>
      <trkpt lat="45.64212" lon="3.40329">
        <ele>669.2150879</ele>
        <time>2012-08-23T09:27:40Z</time>
      </trkpt>
      <trkpt lat="45.64221" lon="3.40323">
        <ele>665.8503418</ele>
        <time>2012-08-23T09:27:47Z</time>
      </trkpt>
      <trkpt lat="45.64222" lon="3.40322">
        <ele>665.8503418</ele>
        <time>2012-08-23T09:27:48Z</time>
      </trkpt>
      <trkpt lat="45.64231" lon="3.40317">
        <ele>666.8115234</ele>
        <time>2012-08-23T09:27:56Z</time>
      </trkpt>
      <trkpt lat="45.64234" lon="3.40316">
        <ele>667.2922363</ele>
        <time>2012-08-23T09:27:59Z</time>
      </trkpt>
      <trkpt lat="45.6424" lon="3.40314">
        <ele>666.3308105</ele>
        <time>2012-08-23T09:28:05Z</time>
      </trkpt>
      <trkpt lat="45.64241" lon="3.40314">
        <ele>666.3308105</ele>
        <time>2012-08-23T09:28:06Z</time>
      </trkpt>
      <trkpt lat="45.64248" lon="3.40311">
        <ele>667.2922363</ele>
        <time>2012-08-23T09:28:12Z</time>
      </trkpt>
      <trkpt lat="45.64252" lon="3.40307">
        <ele>665.8503418</ele>
        <time>2012-08-23T09:28:16Z</time>
      </trkpt>
      <trkpt lat="45.64257" lon="3.40305">
        <ele>667.7727051</ele>
        <time>2012-08-23T09:28:20Z</time>
      </trkpt>
      <trkpt lat="45.64268" lon="3.40302">
        <ele>667.2922363</ele>
        <time>2012-08-23T09:28:26Z</time>
      </trkpt>
      <trkpt lat="45.64271" lon="3.40299">
        <ele>670.6569824</ele>
        <time>2012-08-23T09:28:30Z</time>
      </trkpt>
      <trkpt lat="45.6428" lon="3.40299">
        <ele>670.6569824</ele>
        <time>2012-08-23T09:28:35Z</time>
      </trkpt>
      <trkpt lat="45.6429" lon="3.40301">
        <ele>672.5795898</ele>
        <time>2012-08-23T09:28:42Z</time>
      </trkpt>
      <trkpt lat="45.64295" lon="3.40303">
        <ele>673.0603027</ele>
        <time>2012-08-23T09:28:47Z</time>
      </trkpt>
      <trkpt lat="45.643" lon="3.40302">
        <ele>673.5410156</ele>
        <time>2012-08-23T09:28:50Z</time>
      </trkpt>
      <trkpt lat="45.64305" lon="3.40303">
        <ele>676.9055176</ele>
        <time>2012-08-23T09:28:54Z</time>
      </trkpt>
      <trkpt lat="45.6431" lon="3.40304">
        <ele>678.828125</ele>
        <time>2012-08-23T09:28:57Z</time>
      </trkpt>
      <trkpt lat="45.64325" lon="3.40305">
        <ele>683.1538086</ele>
        <time>2012-08-23T09:29:04Z</time>
      </trkpt>
      <trkpt lat="45.64333" lon="3.40305">
        <ele>684.5961914</ele>
        <time>2012-08-23T09:29:08Z</time>
      </trkpt>
      <trkpt lat="45.64341" lon="3.40305">
        <ele>686.5187988</ele>
        <time>2012-08-23T09:29:13Z</time>
      </trkpt>
      <trkpt lat="45.64347" lon="3.40303">
        <ele>687.4799805</ele>
        <time>2012-08-23T09:29:17Z</time>
      </trkpt>
      <trkpt lat="45.64356" lon="3.40302">
        <ele>685.0769043</ele>
        <time>2012-08-23T09:29:23Z</time>
      </trkpt>
      <trkpt lat="45.64361" lon="3.40303">
        <ele>685.557373</ele>
        <time>2012-08-23T09:29:26Z</time>
      </trkpt>
      <trkpt lat="45.64369" lon="3.40304">
        <ele>686.0380859</ele>
        <time>2012-08-23T09:29:32Z</time>
      </trkpt>
      <trkpt lat="45.64376" lon="3.40305">
        <ele>686.9992676</ele>
        <time>2012-08-23T09:29:37Z</time>
      </trkpt>
      <trkpt lat="45.64383" lon="3.40307">
        <ele>686.5187988</ele>
        <time>2012-08-23T09:29:44Z</time>
      </trkpt>
      <trkpt lat="45.64386" lon="3.40306">
        <ele>686.0380859</ele>
        <time>2012-08-23T09:29:47Z</time>
      </trkpt>
      <trkpt lat="45.64392" lon="3.40301">
        <ele>683.6345215</ele>
        <time>2012-08-23T09:29:53Z</time>
      </trkpt>
      <trkpt lat="45.64399" lon="3.40298">
        <ele>685.557373</ele>
        <time>2012-08-23T09:30:00Z</time>
      </trkpt>
      <trkpt lat="45.64405" lon="3.40299">
        <ele>686.0380859</ele>
        <time>2012-08-23T09:30:07Z</time>
      </trkpt>
      <trkpt lat="45.64412" lon="3.40302">
        <ele>686.5187988</ele>
        <time>2012-08-23T09:30:13Z</time>
      </trkpt>
      <trkpt lat="45.64421" lon="3.40299">
        <ele>688.4414063</ele>
        <time>2012-08-23T09:30:25Z</time>
      </trkpt>
      <trkpt lat="45.64425" lon="3.40295">
        <ele>688.9221191</ele>
        <time>2012-08-23T09:30:31Z</time>
      </trkpt>
      <trkpt lat="45.64429" lon="3.40293">
        <ele>690.3640137</ele>
        <time>2012-08-23T09:30:37Z</time>
      </trkpt>
      <trkpt lat="45.64431" lon="3.40292">
        <ele>695.1704102</ele>
        <time>2012-08-23T09:30:43Z</time>
      </trkpt>
      <trkpt lat="45.64434" lon="3.40293">
        <ele>695.651123</ele>
        <time>2012-08-23T09:30:49Z</time>
      </trkpt>
      <trkpt lat="45.64435" lon="3.40295">
        <ele>694.6896973</ele>
        <time>2012-08-23T09:30:50Z</time>
      </trkpt>
      <trkpt lat="45.64442" lon="3.40294">
        <ele>692.2866211</ele>
        <time>2012-08-23T09:30:57Z</time>
      </trkpt>
      <trkpt lat="45.64448" lon="3.40291">
        <ele>693.2478027</ele>
        <time>2012-08-23T09:31:05Z</time>
      </trkpt>
      <trkpt lat="45.64451" lon="3.40291">
        <ele>696.1318359</ele>
        <time>2012-08-23T09:31:12Z</time>
      </trkpt>
      <trkpt lat="45.64455" lon="3.40286">
        <ele>697.0930176</ele>
        <time>2012-08-23T09:31:19Z</time>
      </trkpt>
      <trkpt lat="45.64456" lon="3.40283">
        <ele>698.5349121</ele>
        <time>2012-08-23T09:31:24Z</time>
      </trkpt>
      <trkpt lat="45.64458" lon="3.40279">
        <ele>699.4963379</ele>
        <time>2012-08-23T09:31:29Z</time>
      </trkpt>
      <trkpt lat="45.64464" lon="3.40274">
        <ele>699.9770508</ele>
        <time>2012-08-23T09:31:37Z</time>
      </trkpt>
      <trkpt lat="45.64469" lon="3.4027">
        <ele>701.8999023</ele>
        <time>2012-08-23T09:31:43Z</time>
      </trkpt>
      <trkpt lat="45.64472" lon="3.40268">
        <ele>704.7836914</ele>
        <time>2012-08-23T09:31:48Z</time>
      </trkpt>
      <trkpt lat="45.64481" lon="3.40264">
        <ele>704.3032227</ele>
        <time>2012-08-23T09:31:59Z</time>
      </trkpt>
      <trkpt lat="45.64486" lon="3.4026">
        <ele>703.8225098</ele>
        <time>2012-08-23T09:32:04Z</time>
      </trkpt>
      <trkpt lat="45.6449" lon="3.40257">
        <ele>704.3032227</ele>
        <time>2012-08-23T09:32:09Z</time>
      </trkpt>
      <trkpt lat="45.64497" lon="3.40251">
        <ele>703.3417969</ele>
        <time>2012-08-23T09:32:16Z</time>
      </trkpt>
      <trkpt lat="45.64503" lon="3.40247">
        <ele>703.3417969</ele>
        <time>2012-08-23T09:32:24Z</time>
      </trkpt>
      <trkpt lat="45.64507" lon="3.40246">
        <ele>706.7062988</ele>
        <time>2012-08-23T09:32:31Z</time>
      </trkpt>
      <trkpt lat="45.64511" lon="3.40245">
        <ele>706.2255859</ele>
        <time>2012-08-23T09:32:36Z</time>
      </trkpt>
      <trkpt lat="45.64516" lon="3.4024">
        <ele>707.6677246</ele>
        <time>2012-08-23T09:32:42Z</time>
      </trkpt>
      <trkpt lat="45.64522" lon="3.40238">
        <ele>710.5515137</ele>
        <time>2012-08-23T09:32:50Z</time>
      </trkpt>
      <trkpt lat="45.64528" lon="3.40237">
        <ele>708.6289063</ele>
        <time>2012-08-23T09:32:55Z</time>
      </trkpt>
      <trkpt lat="45.64533" lon="3.40233">
        <ele>707.1870117</ele>
        <time>2012-08-23T09:33:02Z</time>
      </trkpt>
      <trkpt lat="45.64539" lon="3.40226">
        <ele>706.2255859</ele>
        <time>2012-08-23T09:33:09Z</time>
      </trkpt>
      <trkpt lat="45.64541" lon="3.40224">
        <ele>708.6289063</ele>
        <time>2012-08-23T09:33:12Z</time>
      </trkpt>
      <trkpt lat="45.64548" lon="3.40215">
        <ele>710.5515137</ele>
        <time>2012-08-23T09:33:20Z</time>
      </trkpt>
      <trkpt lat="45.64554" lon="3.40208">
        <ele>708.6289063</ele>
        <time>2012-08-23T09:33:26Z</time>
      </trkpt>
      <trkpt lat="45.64562" lon="3.40202">
        <ele>706.7062988</ele>
        <time>2012-08-23T09:33:33Z</time>
      </trkpt>
      <trkpt lat="45.64567" lon="3.40194">
        <ele>704.3032227</ele>
        <time>2012-08-23T09:33:40Z</time>
      </trkpt>
      <trkpt lat="45.64571" lon="3.40187">
        <ele>702.3803711</ele>
        <time>2012-08-23T09:33:48Z</time>
      </trkpt>
      <trkpt lat="45.64575" lon="3.40182">
        <ele>701.8999023</ele>
        <time>2012-08-23T09:33:54Z</time>
      </trkpt>
      <trkpt lat="45.64576" lon="3.40176">
        <ele>705.2644043</ele>
        <time>2012-08-23T09:33:59Z</time>
      </trkpt>
      <trkpt lat="45.64577" lon="3.40167">
        <ele>705.7451172</ele>
        <time>2012-08-23T09:34:05Z</time>
      </trkpt>
      <trkpt lat="45.64579" lon="3.40159">
        <ele>705.2644043</ele>
        <time>2012-08-23T09:34:12Z</time>
      </trkpt>
      <trkpt lat="45.64582" lon="3.40148">
        <ele>706.2255859</ele>
        <time>2012-08-23T09:34:20Z</time>
      </trkpt>
      <trkpt lat="45.64585" lon="3.40142">
        <ele>709.590332</ele>
        <time>2012-08-23T09:34:25Z</time>
      </trkpt>
      <trkpt lat="45.64585" lon="3.40139">
        <ele>712.954834</ele>
        <time>2012-08-23T09:34:27Z</time>
      </trkpt>
      <trkpt lat="45.64586" lon="3.40137">
        <ele>713.9160156</ele>
        <time>2012-08-23T09:34:29Z</time>
      </trkpt>
      <trkpt lat="45.64586" lon="3.40129">
        <ele>713.9160156</ele>
        <time>2012-08-23T09:34:35Z</time>
      </trkpt>
      <trkpt lat="45.64589" lon="3.40121">
        <ele>715.3581543</ele>
        <time>2012-08-23T09:34:42Z</time>
      </trkpt>
      <trkpt lat="45.6459" lon="3.40114">
        <ele>717.7614746</ele>
        <time>2012-08-23T09:34:47Z</time>
      </trkpt>
      <trkpt lat="45.6459" lon="3.4011">
        <ele>719.2036133</ele>
        <time>2012-08-23T09:34:50Z</time>
      </trkpt>
      <trkpt lat="45.64589" lon="3.40103">
        <ele>718.7229004</ele>
        <time>2012-08-23T09:34:55Z</time>
      </trkpt>
      <trkpt lat="45.64594" lon="3.40097">
        <ele>720.1647949</ele>
        <time>2012-08-23T09:35:02Z</time>
      </trkpt>
      <trkpt lat="45.64595" lon="3.40092">
        <ele>721.1262207</ele>
        <time>2012-08-23T09:35:06Z</time>
      </trkpt>
      <trkpt lat="45.64597" lon="3.40089">
        <ele>723.0488281</ele>
        <time>2012-08-23T09:35:11Z</time>
      </trkpt>
      <trkpt lat="45.646" lon="3.40085">
        <ele>727.3747559</ele>
        <time>2012-08-23T09:35:17Z</time>
      </trkpt>
      <trkpt lat="45.64602" lon="3.40082">
        <ele>729.777832</ele>
        <time>2012-08-23T09:35:22Z</time>
      </trkpt>
      <trkpt lat="45.64607" lon="3.40079">
        <ele>730.2585449</ele>
        <time>2012-08-23T09:35:28Z</time>
      </trkpt>
      <trkpt lat="45.64611" lon="3.40073">
        <ele>730.2585449</ele>
        <time>2012-08-23T09:35:35Z</time>
      </trkpt>
      <trkpt lat="45.64615" lon="3.40068">
        <ele>730.7392578</ele>
        <time>2012-08-23T09:35:41Z</time>
      </trkpt>
      <trkpt lat="45.64618" lon="3.40066">
        <ele>731.2199707</ele>
        <time>2012-08-23T09:35:46Z</time>
      </trkpt>
      <trkpt lat="45.6462" lon="3.40061">
        <ele>732.1813965</ele>
        <time>2012-08-23T09:35:53Z</time>
      </trkpt>
      <trkpt lat="45.64624" lon="3.40057">
        <ele>734.1040039</ele>
        <time>2012-08-23T09:36:00Z</time>
      </trkpt>
      <trkpt lat="45.64627" lon="3.40053">
        <ele>734.5847168</ele>
        <time>2012-08-23T09:36:06Z</time>
      </trkpt>
      <trkpt lat="45.6463" lon="3.4005">
        <ele>736.0266113</ele>
        <time>2012-08-23T09:36:12Z</time>
      </trkpt>
      <trkpt lat="45.64632" lon="3.40047">
        <ele>738.4299316</ele>
        <time>2012-08-23T09:36:18Z</time>
      </trkpt>
      <trkpt lat="45.64633" lon="3.40044">
        <ele>740.3525391</ele>
        <time>2012-08-23T09:36:24Z</time>
      </trkpt>
      <trkpt lat="45.64634" lon="3.40044">
        <ele>741.3137207</ele>
        <time>2012-08-23T09:36:31Z</time>
      </trkpt>
      <trkpt lat="45.64636" lon="3.40045">
        <ele>741.3137207</ele>
        <time>2012-08-23T09:36:37Z</time>
      </trkpt>
      <trkpt lat="45.64637" lon="3.40044">
        <ele>741.7944336</ele>
        <time>2012-08-23T09:36:43Z</time>
      </trkpt>
      <trkpt lat="45.64639" lon="3.40039">
        <ele>742.7558594</ele>
        <time>2012-08-23T09:36:50Z</time>
      </trkpt>
      <trkpt lat="45.64641" lon="3.40036">
        <ele>744.1977539</ele>
        <time>2012-08-23T09:36:58Z</time>
      </trkpt>
      <trkpt lat="45.64644" lon="3.40033">
        <ele>746.1203613</ele>
        <time>2012-08-23T09:37:05Z</time>
      </trkpt>
      <trkpt lat="45.64646" lon="3.40029">
        <ele>747.5622559</ele>
        <time>2012-08-23T09:37:12Z</time>
      </trkpt>
      <trkpt lat="45.64648" lon="3.40027">
        <ele>749.0043945</ele>
        <time>2012-08-23T09:37:18Z</time>
      </trkpt>
      <trkpt lat="45.64649" lon="3.40027">
        <ele>750.4465332</ele>
        <time>2012-08-23T09:37:23Z</time>
      </trkpt>
      <trkpt lat="45.64651" lon="3.40024">
        <ele>752.8496094</ele>
        <time>2012-08-23T09:37:29Z</time>
      </trkpt>
      <trkpt lat="45.64655" lon="3.40021">
        <ele>754.7722168</ele>
        <time>2012-08-23T09:37:36Z</time>
      </trkpt>
      <trkpt lat="45.64657" lon="3.4002">
        <ele>755.2529297</ele>
        <time>2012-08-23T09:37:40Z</time>
      </trkpt>
      <trkpt lat="45.64658" lon="3.40018">
        <ele>757.65625</ele>
        <time>2012-08-23T09:37:45Z</time>
      </trkpt>
      <trkpt lat="45.64662" lon="3.40014">
        <ele>760.0593262</ele>
        <time>2012-08-23T09:37:53Z</time>
      </trkpt>
      <trkpt lat="45.64665" lon="3.40014">
        <ele>761.020752</ele>
        <time>2012-08-23T09:37:59Z</time>
      </trkpt>
      <trkpt lat="45.64667" lon="3.40012">
        <ele>761.9821777</ele>
        <time>2012-08-23T09:38:07Z</time>
      </trkpt>
      <trkpt lat="45.6467" lon="3.40013">
        <ele>762.9433594</ele>
        <time>2012-08-23T09:38:14Z</time>
      </trkpt>
      <trkpt lat="45.64672" lon="3.40013">
        <ele>762.9433594</ele>
        <time>2012-08-23T09:38:19Z</time>
      </trkpt>
      <trkpt lat="45.64674" lon="3.40012">
        <ele>764.8662109</ele>
        <time>2012-08-23T09:38:25Z</time>
      </trkpt>
      <trkpt lat="45.64677" lon="3.40013">
        <ele>765.8276367</ele>
        <time>2012-08-23T09:38:32Z</time>
      </trkpt>
      <trkpt lat="45.64678" lon="3.40013">
        <ele>766.7888184</ele>
        <time>2012-08-23T09:38:38Z</time>
      </trkpt>
      <trkpt lat="45.64681" lon="3.40012">
        <ele>765.3469238</ele>
        <time>2012-08-23T09:38:43Z</time>
      </trkpt>
      <trkpt lat="45.64682" lon="3.40012">
        <ele>764.8662109</ele>
        <time>2012-08-23T09:38:48Z</time>
      </trkpt>
      <trkpt lat="45.64684" lon="3.4001">
        <ele>764.8662109</ele>
        <time>2012-08-23T09:38:53Z</time>
      </trkpt>
      <trkpt lat="45.64687" lon="3.4001">
        <ele>765.8276367</ele>
        <time>2012-08-23T09:38:58Z</time>
      </trkpt>
      <trkpt lat="45.64689" lon="3.40009">
        <ele>766.3081055</ele>
        <time>2012-08-23T09:39:03Z</time>
      </trkpt>
      <trkpt lat="45.64693" lon="3.40005">
        <ele>766.7888184</ele>
        <time>2012-08-23T09:39:09Z</time>
      </trkpt>
      <trkpt lat="45.64697" lon="3.40002">
        <ele>769.6728516</ele>
        <time>2012-08-23T09:39:16Z</time>
      </trkpt>
      <trkpt lat="45.647" lon="3.39999">
        <ele>772.5566406</ele>
        <time>2012-08-23T09:39:24Z</time>
      </trkpt>
      <trkpt lat="45.64699" lon="3.39999">
        <ele>777.84375</ele>
        <time>2012-08-23T09:39:32Z</time>
      </trkpt>
      <trkpt lat="45.64702" lon="3.39997">
        <ele>779.7663574</ele>
        <time>2012-08-23T09:39:40Z</time>
      </trkpt>
      <trkpt lat="45.64705" lon="3.39997">
        <ele>780.7280273</ele>
        <time>2012-08-23T09:39:45Z</time>
      </trkpt>
      <trkpt lat="45.64708" lon="3.39996">
        <ele>782.1699219</ele>
        <time>2012-08-23T09:39:51Z</time>
      </trkpt>
      <trkpt lat="45.64713" lon="3.39994">
        <ele>781.689209</ele>
        <time>2012-08-23T09:39:57Z</time>
      </trkpt>
      <trkpt lat="45.64716" lon="3.39992">
        <ele>779.7663574</ele>
        <time>2012-08-23T09:40:03Z</time>
      </trkpt>
      <trkpt lat="45.64717" lon="3.39991">
        <ele>779.7663574</ele>
        <time>2012-08-23T09:40:09Z</time>
      </trkpt>
      <trkpt lat="45.64719" lon="3.39992">
        <ele>778.8051758</ele>
        <time>2012-08-23T09:40:14Z</time>
      </trkpt>
      <trkpt lat="45.64724" lon="3.40003">
        <ele>774.9599609</ele>
        <time>2012-08-23T09:44:39Z</time>
      </trkpt>
      <trkpt lat="45.64724" lon="3.40003">
        <ele>774.479248</ele>
        <time>2012-08-23T09:44:40Z</time>
      </trkpt>
      <trkpt lat="45.64724" lon="3.40002">
        <ele>774.479248</ele>
        <time>2012-08-23T09:44:41Z</time>
      </trkpt>
      <trkpt lat="45.64725" lon="3.39999">
        <ele>773.5180664</ele>
        <time>2012-08-23T09:44:45Z</time>
      </trkpt>
      <trkpt lat="45.64727" lon="3.39999">
        <ele>774.9599609</ele>
        <time>2012-08-23T09:44:50Z</time>
      </trkpt>
      <trkpt lat="45.64728" lon="3.40001">
        <ele>779.2856445</ele>
        <time>2012-08-23T09:44:55Z</time>
      </trkpt>
      <trkpt lat="45.64729" lon="3.40002">
        <ele>783.1311035</ele>
        <time>2012-08-23T09:45:00Z</time>
      </trkpt>
      <trkpt lat="45.64729" lon="3.40003">
        <ele>784.0925293</ele>
        <time>2012-08-23T09:45:06Z</time>
      </trkpt>
      <trkpt lat="45.6473" lon="3.40005">
        <ele>784.0925293</ele>
        <time>2012-08-23T09:45:11Z</time>
      </trkpt>
      <trkpt lat="45.64732" lon="3.40005">
        <ele>785.0539551</ele>
        <time>2012-08-23T09:45:16Z</time>
      </trkpt>
      <trkpt lat="45.64734" lon="3.40005">
        <ele>786.0151367</ele>
        <time>2012-08-23T09:45:20Z</time>
      </trkpt>
      <trkpt lat="45.64736" lon="3.40005">
        <ele>785.5344238</ele>
        <time>2012-08-23T09:45:25Z</time>
      </trkpt>
      <trkpt lat="45.64737" lon="3.4001">
        <ele>786.0151367</ele>
        <time>2012-08-23T09:45:31Z</time>
      </trkpt>
      <trkpt lat="45.64739" lon="3.40012">
        <ele>786.9763184</ele>
        <time>2012-08-23T09:45:38Z</time>
      </trkpt>
      <trkpt lat="45.64741" lon="3.40012">
        <ele>787.4570313</ele>
        <time>2012-08-23T09:45:43Z</time>
      </trkpt>
      <trkpt lat="45.64746" lon="3.4001">
        <ele>787.4570313</ele>
        <time>2012-08-23T09:45:51Z</time>
      </trkpt>
      <trkpt lat="45.6475" lon="3.40008">
        <ele>787.4570313</ele>
        <time>2012-08-23T09:45:58Z</time>
      </trkpt>
      <trkpt lat="45.64752" lon="3.40008">
        <ele>787.4570313</ele>
        <time>2012-08-23T09:46:03Z</time>
      </trkpt>
      <trkpt lat="45.64753" lon="3.40002">
        <ele>786.0151367</ele>
        <time>2012-08-23T09:46:09Z</time>
      </trkpt>
      <trkpt lat="45.64758" lon="3.39999">
        <ele>783.6118164</ele>
        <time>2012-08-23T09:46:17Z</time>
      </trkpt>
      <trkpt lat="45.64761" lon="3.39999">
        <ele>781.2087402</ele>
        <time>2012-08-23T09:46:23Z</time>
      </trkpt>
      <trkpt lat="45.64763" lon="3.39999">
        <ele>781.2087402</ele>
        <time>2012-08-23T09:46:28Z</time>
      </trkpt>
      <trkpt lat="45.64765" lon="3.39998">
        <ele>780.7280273</ele>
        <time>2012-08-23T09:46:34Z</time>
      </trkpt>
      <trkpt lat="45.64768" lon="3.39999">
        <ele>782.6506348</ele>
        <time>2012-08-23T09:46:39Z</time>
      </trkpt>
      <trkpt lat="45.64772" lon="3.39999">
        <ele>783.1311035</ele>
        <time>2012-08-23T09:46:44Z</time>
      </trkpt>
      <trkpt lat="45.64777" lon="3.40003">
        <ele>780.7280273</ele>
        <time>2012-08-23T09:46:50Z</time>
      </trkpt>
      <trkpt lat="45.64781" lon="3.40006">
        <ele>778.8051758</ele>
        <time>2012-08-23T09:46:56Z</time>
      </trkpt>
      <trkpt lat="45.64785" lon="3.40013">
        <ele>778.8051758</ele>
        <time>2012-08-23T09:47:03Z</time>
      </trkpt>
      <trkpt lat="45.64789" lon="3.40015">
        <ele>778.3244629</ele>
        <time>2012-08-23T09:47:09Z</time>
      </trkpt>
      <trkpt lat="45.64791" lon="3.40015">
        <ele>779.2856445</ele>
        <time>2012-08-23T09:47:13Z</time>
      </trkpt>
      <trkpt lat="45.64793" lon="3.40017">
        <ele>776.4018555</ele>
        <time>2012-08-23T09:47:19Z</time>
      </trkpt>
      <trkpt lat="45.64799" lon="3.40019">
        <ele>773.9985352</ele>
        <time>2012-08-23T09:47:25Z</time>
      </trkpt>
      <trkpt lat="45.64802" lon="3.40024">
        <ele>770.6340332</ele>
        <time>2012-08-23T09:47:31Z</time>
      </trkpt>
      <trkpt lat="45.64804" lon="3.40029">
        <ele>768.2307129</ele>
        <time>2012-08-23T09:47:36Z</time>
      </trkpt>
      <trkpt lat="45.64807" lon="3.40033">
        <ele>765.8276367</ele>
        <time>2012-08-23T09:47:40Z</time>
      </trkpt>
      <trkpt lat="45.64808" lon="3.40034">
        <ele>765.8276367</ele>
        <time>2012-08-23T09:47:41Z</time>
      </trkpt>
      <trkpt lat="45.64811" lon="3.40039">
        <ele>764.8662109</ele>
        <time>2012-08-23T09:47:45Z</time>
      </trkpt>
      <trkpt lat="45.6482" lon="3.40048">
        <ele>762.9433594</ele>
        <time>2012-08-23T09:47:54Z</time>
      </trkpt>
      <trkpt lat="45.64822" lon="3.4005">
        <ele>762.9433594</ele>
        <time>2012-08-23T09:47:57Z</time>
      </trkpt>
      <trkpt lat="45.64825" lon="3.40052">
        <ele>763.904541</ele>
        <time>2012-08-23T09:48:02Z</time>
      </trkpt>
      <trkpt lat="45.64831" lon="3.40055">
        <ele>762.9433594</ele>
        <time>2012-08-23T09:48:09Z</time>
      </trkpt>
      <trkpt lat="45.64834" lon="3.40057">
        <ele>761.9821777</ele>
        <time>2012-08-23T09:48:12Z</time>
      </trkpt>
      <trkpt lat="45.6484" lon="3.40065">
        <ele>761.5014648</ele>
        <time>2012-08-23T09:48:19Z</time>
      </trkpt>
      <trkpt lat="45.64843" lon="3.40068">
        <ele>761.020752</ele>
        <time>2012-08-23T09:48:22Z</time>
      </trkpt>
      <trkpt lat="45.64847" lon="3.4007">
        <ele>759.0981445</ele>
        <time>2012-08-23T09:48:26Z</time>
      </trkpt>
      <trkpt lat="45.64851" lon="3.40074">
        <ele>756.6948242</ele>
        <time>2012-08-23T09:48:31Z</time>
      </trkpt>
      <trkpt lat="45.64856" lon="3.40071">
        <ele>754.291748</ele>
        <time>2012-08-23T09:48:37Z</time>
      </trkpt>
      <trkpt lat="45.64861" lon="3.4007">
        <ele>751.4077148</ele>
        <time>2012-08-23T09:48:41Z</time>
      </trkpt>
      <trkpt lat="45.64868" lon="3.40067">
        <ele>746.1203613</ele>
        <time>2012-08-23T09:48:47Z</time>
      </trkpt>
      <trkpt lat="45.64869" lon="3.40067">
        <ele>744.6782227</ele>
        <time>2012-08-23T09:48:49Z</time>
      </trkpt>
      <trkpt lat="45.64874" lon="3.40064">
        <ele>741.7944336</ele>
        <time>2012-08-23T09:48:56Z</time>
      </trkpt>
      <trkpt lat="45.64878" lon="3.40065">
        <ele>737.4685059</ele>
        <time>2012-08-23T09:49:02Z</time>
      </trkpt>
      <trkpt lat="45.64881" lon="3.40066">
        <ele>738.4299316</ele>
        <time>2012-08-23T09:49:05Z</time>
      </trkpt>
      <trkpt lat="45.64889" lon="3.40066">
        <ele>736.5073242</ele>
        <time>2012-08-23T09:49:11Z</time>
      </trkpt>
      <trkpt lat="45.64895" lon="3.40068">
        <ele>736.987793</ele>
        <time>2012-08-23T09:49:15Z</time>
      </trkpt>
      <trkpt lat="45.64894" lon="3.40075">
        <ele>739.8718262</ele>
        <time>2012-08-23T09:49:21Z</time>
      </trkpt>
      <trkpt lat="45.64896" lon="3.40081">
        <ele>740.8330078</ele>
        <time>2012-08-23T09:49:25Z</time>
      </trkpt>
      <trkpt lat="45.64897" lon="3.40082">
        <ele>741.3137207</ele>
        <time>2012-08-23T09:49:26Z</time>
      </trkpt>
      <trkpt lat="45.64901" lon="3.40086">
        <ele>741.3137207</ele>
        <time>2012-08-23T09:49:32Z</time>
      </trkpt>
      <trkpt lat="45.64908" lon="3.4009">
        <ele>740.3525391</ele>
        <time>2012-08-23T09:49:36Z</time>
      </trkpt>
      <trkpt lat="45.64911" lon="3.4009">
        <ele>738.9106445</ele>
        <time>2012-08-23T09:49:40Z</time>
      </trkpt>
      <trkpt lat="45.64912" lon="3.40089">
        <ele>737.9492188</ele>
        <time>2012-08-23T09:49:41Z</time>
      </trkpt>
      <trkpt lat="45.64916" lon="3.40089">
        <ele>737.4685059</ele>
        <time>2012-08-23T09:49:44Z</time>
      </trkpt>
      <trkpt lat="45.6492" lon="3.40089">
        <ele>738.4299316</ele>
        <time>2012-08-23T09:49:48Z</time>
      </trkpt>
      <trkpt lat="45.64921" lon="3.40092">
        <ele>739.8718262</ele>
        <time>2012-08-23T09:49:51Z</time>
      </trkpt>
      <trkpt lat="45.64925" lon="3.40089">
        <ele>740.8330078</ele>
        <time>2012-08-23T09:49:57Z</time>
      </trkpt>
      <trkpt lat="45.64929" lon="3.40088">
        <ele>740.8330078</ele>
        <time>2012-08-23T09:49:59Z</time>
      </trkpt>
      <trkpt lat="45.64937" lon="3.40091">
        <ele>739.3911133</ele>
        <time>2012-08-23T09:50:05Z</time>
      </trkpt>
      <trkpt lat="45.6494" lon="3.40092">
        <ele>740.3525391</ele>
        <time>2012-08-23T09:50:07Z</time>
      </trkpt>
      <trkpt lat="45.64948" lon="3.40091">
        <ele>740.8330078</ele>
        <time>2012-08-23T09:50:11Z</time>
      </trkpt>
      <trkpt lat="45.64954" lon="3.40087">
        <ele>738.9106445</ele>
        <time>2012-08-23T09:50:17Z</time>
      </trkpt>
      <trkpt lat="45.64959" lon="3.40083">
        <ele>736.5073242</ele>
        <time>2012-08-23T09:50:21Z</time>
      </trkpt>
      <trkpt lat="45.64965" lon="3.40086">
        <ele>738.4299316</ele>
        <time>2012-08-23T09:50:25Z</time>
      </trkpt>
      <trkpt lat="45.64974" lon="3.40084">
        <ele>738.4299316</ele>
        <time>2012-08-23T09:50:31Z</time>
      </trkpt>
      <trkpt lat="45.6498" lon="3.40084">
        <ele>736.987793</ele>
        <time>2012-08-23T09:50:35Z</time>
      </trkpt>
      <trkpt lat="45.64986" lon="3.40086">
        <ele>734.1040039</ele>
        <time>2012-08-23T09:50:41Z</time>
      </trkpt>
      <trkpt lat="45.64991" lon="3.40086">
        <ele>731.7004395</ele>
        <time>2012-08-23T09:50:45Z</time>
      </trkpt>
      <trkpt lat="45.64995" lon="3.40087">
        <ele>728.3359375</ele>
        <time>2012-08-23T09:50:49Z</time>
      </trkpt>
      <trkpt lat="45.64999" lon="3.40087">
        <ele>727.8552246</ele>
        <time>2012-08-23T09:50:51Z</time>
      </trkpt>
      <trkpt lat="45.65005" lon="3.40088">
        <ele>726.4133301</ele>
        <time>2012-08-23T09:50:55Z</time>
      </trkpt>
      <trkpt lat="45.65008" lon="3.40088">
        <ele>725.9326172</ele>
        <time>2012-08-23T09:50:57Z</time>
      </trkpt>
      <trkpt lat="45.65015" lon="3.40086">
        <ele>723.0488281</ele>
        <time>2012-08-23T09:51:03Z</time>
      </trkpt>
      <trkpt lat="45.65023" lon="3.40086">
        <ele>723.0488281</ele>
        <time>2012-08-23T09:51:09Z</time>
      </trkpt>
      <trkpt lat="45.65028" lon="3.40088">
        <ele>720.6455078</ele>
        <time>2012-08-23T09:51:15Z</time>
      </trkpt>
      <trkpt lat="45.65031" lon="3.40086">
        <ele>718.7229004</ele>
        <time>2012-08-23T09:51:19Z</time>
      </trkpt>
      <trkpt lat="45.65032" lon="3.40083">
        <ele>717.7614746</ele>
        <time>2012-08-23T09:51:21Z</time>
      </trkpt>
      <trkpt lat="45.65037" lon="3.40081">
        <ele>717.7614746</ele>
        <time>2012-08-23T09:51:25Z</time>
      </trkpt>
      <trkpt lat="45.65043" lon="3.40085">
        <ele>718.7229004</ele>
        <time>2012-08-23T09:51:30Z</time>
      </trkpt>
      <trkpt lat="45.65047" lon="3.40091">
        <ele>717.2810059</ele>
        <time>2012-08-23T09:51:34Z</time>
      </trkpt>
      <trkpt lat="45.65052" lon="3.40094">
        <ele>716.800293</ele>
        <time>2012-08-23T09:51:38Z</time>
      </trkpt>
      <trkpt lat="45.6506" lon="3.40096">
        <ele>717.7614746</ele>
        <time>2012-08-23T09:51:45Z</time>
      </trkpt>
      <trkpt lat="45.65062" lon="3.40096">
        <ele>717.2810059</ele>
        <time>2012-08-23T09:51:47Z</time>
      </trkpt>
      <trkpt lat="45.65064" lon="3.40094">
        <ele>716.800293</ele>
        <time>2012-08-23T09:51:53Z</time>
      </trkpt>
      <trkpt lat="45.65067" lon="3.40097">
        <ele>715.8388672</ele>
        <time>2012-08-23T09:51:59Z</time>
      </trkpt>
      <trkpt lat="45.65071" lon="3.40096">
        <ele>715.3581543</ele>
        <time>2012-08-23T09:52:05Z</time>
      </trkpt>
      <trkpt lat="45.65074" lon="3.40092">
        <ele>714.3967285</ele>
        <time>2012-08-23T09:52:10Z</time>
      </trkpt>
      <trkpt lat="45.65075" lon="3.40092">
        <ele>714.3967285</ele>
        <time>2012-08-23T09:52:11Z</time>
      </trkpt>
      <trkpt lat="45.65083" lon="3.40095">
        <ele>712.4741211</ele>
        <time>2012-08-23T09:52:17Z</time>
      </trkpt>
      <trkpt lat="45.65086" lon="3.40096">
        <ele>711.9936523</ele>
        <time>2012-08-23T09:52:19Z</time>
      </trkpt>
      <trkpt lat="45.6509" lon="3.40095">
        <ele>711.9936523</ele>
        <time>2012-08-23T09:52:23Z</time>
      </trkpt>
      <trkpt lat="45.65097" lon="3.4009">
        <ele>711.9936523</ele>
        <time>2012-08-23T09:52:29Z</time>
      </trkpt>
      <trkpt lat="45.65098" lon="3.4008">
        <ele>709.590332</ele>
        <time>2012-08-23T09:52:34Z</time>
      </trkpt>
      <trkpt lat="45.65105" lon="3.40075">
        <ele>709.1096191</ele>
        <time>2012-08-23T09:52:39Z</time>
      </trkpt>
      <trkpt lat="45.65112" lon="3.40069">
        <ele>707.1870117</ele>
        <time>2012-08-23T09:52:42Z</time>
      </trkpt>
      <trkpt lat="45.65114" lon="3.40068">
        <ele>707.1870117</ele>
        <time>2012-08-23T09:52:43Z</time>
      </trkpt>
      <trkpt lat="45.65124" lon="3.40063">
        <ele>709.1096191</ele>
        <time>2012-08-23T09:52:49Z</time>
      </trkpt>
      <trkpt lat="45.65134" lon="3.40063">
        <ele>710.5515137</ele>
        <time>2012-08-23T09:52:54Z</time>
      </trkpt>
      <trkpt lat="45.65141" lon="3.40064">
        <ele>709.590332</ele>
        <time>2012-08-23T09:53:00Z</time>
      </trkpt>
      <trkpt lat="45.65141" lon="3.40063">
        <ele>709.1096191</ele>
        <time>2012-08-23T09:53:03Z</time>
      </trkpt>
      <trkpt lat="45.65147" lon="3.40078">
        <ele>708.1484375</ele>
        <time>2012-08-23T09:53:09Z</time>
      </trkpt>
      <trkpt lat="45.65147" lon="3.40085">
        <ele>708.1484375</ele>
        <time>2012-08-23T09:53:11Z</time>
      </trkpt>
      <trkpt lat="45.65147" lon="3.40097">
        <ele>707.6677246</ele>
        <time>2012-08-23T09:53:15Z</time>
      </trkpt>
      <trkpt lat="45.65149" lon="3.40112">
        <ele>708.1484375</ele>
        <time>2012-08-23T09:53:20Z</time>
      </trkpt>
      <trkpt lat="45.65149" lon="3.40115">
        <ele>707.6677246</ele>
        <time>2012-08-23T09:53:21Z</time>
      </trkpt>
      <trkpt lat="45.65148" lon="3.40133">
        <ele>707.1870117</ele>
        <time>2012-08-23T09:53:26Z</time>
      </trkpt>
      <trkpt lat="45.65151" lon="3.40142">
        <ele>705.7451172</ele>
        <time>2012-08-23T09:53:29Z</time>
      </trkpt>
      <trkpt lat="45.65156" lon="3.40164">
        <ele>700.9384766</ele>
        <time>2012-08-23T09:53:36Z</time>
      </trkpt>
      <trkpt lat="45.65162" lon="3.40178">
        <ele>699.015625</ele>
        <time>2012-08-23T09:53:41Z</time>
      </trkpt>
      <trkpt lat="45.65166" lon="3.40195">
        <ele>697.5737305</ele>
        <time>2012-08-23T09:53:47Z</time>
      </trkpt>
      <trkpt lat="45.65171" lon="3.40208">
        <ele>696.1318359</ele>
        <time>2012-08-23T09:53:51Z</time>
      </trkpt>
      <trkpt lat="45.65173" lon="3.40212">
        <ele>696.1318359</ele>
        <time>2012-08-23T09:53:52Z</time>
      </trkpt>
      <trkpt lat="45.65176" lon="3.40218">
        <ele>695.651123</ele>
        <time>2012-08-23T09:53:54Z</time>
      </trkpt>
      <trkpt lat="45.65179" lon="3.40224">
        <ele>695.1704102</ele>
        <time>2012-08-23T09:53:57Z</time>
      </trkpt>
      <trkpt lat="45.6518" lon="3.40226">
        <ele>695.1704102</ele>
        <time>2012-08-23T09:53:58Z</time>
      </trkpt>
      <trkpt lat="45.65183" lon="3.40236">
        <ele>694.2092285</ele>
        <time>2012-08-23T09:54:03Z</time>
      </trkpt>
      <trkpt lat="45.65183" lon="3.40236">
        <ele>689.4025879</ele>
        <time>2012-08-23T09:54:07Z</time>
      </trkpt>
      <trkpt lat="45.65185" lon="3.40242">
        <ele>689.8833008</ele>
        <time>2012-08-23T09:54:10Z</time>
      </trkpt>
      <trkpt lat="45.65186" lon="3.40245">
        <ele>690.3640137</ele>
        <time>2012-08-23T09:54:11Z</time>
      </trkpt>
      <trkpt lat="45.65187" lon="3.40248">
        <ele>691.8059082</ele>
        <time>2012-08-23T09:54:12Z</time>
      </trkpt>
      <trkpt lat="45.65197" lon="3.40261">
        <ele>695.1704102</ele>
        <time>2012-08-23T09:54:17Z</time>
      </trkpt>
      <trkpt lat="45.65198" lon="3.40263">
        <ele>695.651123</ele>
        <time>2012-08-23T09:54:18Z</time>
      </trkpt>
      <trkpt lat="45.65201" lon="3.40275">
        <ele>696.6125488</ele>
        <time>2012-08-23T09:54:22Z</time>
      </trkpt>
      <trkpt lat="45.65207" lon="3.40292">
        <ele>696.1318359</ele>
        <time>2012-08-23T09:54:27Z</time>
      </trkpt>
      <trkpt lat="45.65212" lon="3.40304">
        <ele>694.6896973</ele>
        <time>2012-08-23T09:54:31Z</time>
      </trkpt>
      <trkpt lat="45.65213" lon="3.40306">
        <ele>695.1704102</ele>
        <time>2012-08-23T09:54:32Z</time>
      </trkpt>
      <trkpt lat="45.65215" lon="3.40312">
        <ele>694.6896973</ele>
        <time>2012-08-23T09:54:34Z</time>
      </trkpt>
      <trkpt lat="45.65216" lon="3.40315">
        <ele>694.6896973</ele>
        <time>2012-08-23T09:54:35Z</time>
      </trkpt>
      <trkpt lat="45.65218" lon="3.40332">
        <ele>694.2092285</ele>
        <time>2012-08-23T09:54:40Z</time>
      </trkpt>
      <trkpt lat="45.65219" lon="3.40353">
        <ele>692.767334</ele>
        <time>2012-08-23T09:54:46Z</time>
      </trkpt>
      <trkpt lat="45.65218" lon="3.40363">
        <ele>691.8059082</ele>
        <time>2012-08-23T09:54:49Z</time>
      </trkpt>
      <trkpt lat="45.65217" lon="3.40382">
        <ele>688.9221191</ele>
        <time>2012-08-23T09:54:55Z</time>
      </trkpt>
      <trkpt lat="45.65218" lon="3.40402">
        <ele>686.5187988</ele>
        <time>2012-08-23T09:55:01Z</time>
      </trkpt>
      <trkpt lat="45.65219" lon="3.40411">
        <ele>685.0769043</ele>
        <time>2012-08-23T09:55:04Z</time>
      </trkpt>
      <trkpt lat="45.65221" lon="3.4043">
        <ele>683.6345215</ele>
        <time>2012-08-23T09:55:09Z</time>
      </trkpt>
      <trkpt lat="45.65221" lon="3.4044">
        <ele>683.1538086</ele>
        <time>2012-08-23T09:55:12Z</time>
      </trkpt>
      <trkpt lat="45.65224" lon="3.40458">
        <ele>680.2700195</ele>
        <time>2012-08-23T09:55:18Z</time>
      </trkpt>
      <trkpt lat="45.6523" lon="3.40476">
        <ele>677.3862305</ele>
        <time>2012-08-23T09:55:23Z</time>
      </trkpt>
      <trkpt lat="45.65236" lon="3.40492">
        <ele>675.9440918</ele>
        <time>2012-08-23T09:55:28Z</time>
      </trkpt>
      <trkpt lat="45.65242" lon="3.40509">
        <ele>674.0214844</ele>
        <time>2012-08-23T09:55:33Z</time>
      </trkpt>
      <trkpt lat="45.65249" lon="3.40528">
        <ele>673.5410156</ele>
        <time>2012-08-23T09:55:38Z</time>
      </trkpt>
      <trkpt lat="45.65254" lon="3.40547">
        <ele>672.5795898</ele>
        <time>2012-08-23T09:55:43Z</time>
      </trkpt>
      <trkpt lat="45.65259" lon="3.40562">
        <ele>671.6181641</ele>
        <time>2012-08-23T09:55:48Z</time>
      </trkpt>
      <trkpt lat="45.65262" lon="3.4057">
        <ele>670.1762695</ele>
        <time>2012-08-23T09:55:51Z</time>
      </trkpt>
      <trkpt lat="45.65268" lon="3.40583">
        <ele>667.7727051</ele>
        <time>2012-08-23T09:55:56Z</time>
      </trkpt>
      <trkpt lat="45.65275" lon="3.40597">
        <ele>667.7727051</ele>
        <time>2012-08-23T09:56:01Z</time>
      </trkpt>
      <trkpt lat="45.65276" lon="3.40599">
        <ele>666.8115234</ele>
        <time>2012-08-23T09:56:02Z</time>
      </trkpt>
      <trkpt lat="45.65279" lon="3.40604">
        <ele>667.2922363</ele>
        <time>2012-08-23T09:56:04Z</time>
      </trkpt>
      <trkpt lat="45.6529" lon="3.40623">
        <ele>667.2922363</ele>
        <time>2012-08-23T09:56:12Z</time>
      </trkpt>
      <trkpt lat="45.65296" lon="3.40631">
        <ele>668.734375</ele>
        <time>2012-08-23T09:56:16Z</time>
      </trkpt>
      <trkpt lat="45.65302" lon="3.40643">
        <ele>671.6181641</ele>
        <time>2012-08-23T09:56:21Z</time>
      </trkpt>
      <trkpt lat="45.65314" lon="3.40661">
        <ele>674.0214844</ele>
        <time>2012-08-23T09:56:28Z</time>
      </trkpt>
      <trkpt lat="45.65321" lon="3.40673">
        <ele>675.4633789</ele>
        <time>2012-08-23T09:56:33Z</time>
      </trkpt>
      <trkpt lat="45.65327" lon="3.40685">
        <ele>676.4248047</ele>
        <time>2012-08-23T09:56:39Z</time>
      </trkpt>
      <trkpt lat="45.65329" lon="3.40694">
        <ele>677.3862305</ele>
        <time>2012-08-23T09:56:44Z</time>
      </trkpt>
      <trkpt lat="45.65331" lon="3.40705">
        <ele>678.3474121</ele>
        <time>2012-08-23T09:56:49Z</time>
      </trkpt>
      <trkpt lat="45.6533" lon="3.40709">
        <ele>678.828125</ele>
        <time>2012-08-23T09:56:51Z</time>
      </trkpt>
      <trkpt lat="45.65333" lon="3.40724">
        <ele>679.7893066</ele>
        <time>2012-08-23T09:56:59Z</time>
      </trkpt>
      <trkpt lat="45.65335" lon="3.40736">
        <ele>680.7507324</ele>
        <time>2012-08-23T09:57:05Z</time>
      </trkpt>
      <trkpt lat="45.65336" lon="3.40746">
        <ele>681.2314453</ele>
        <time>2012-08-23T09:57:10Z</time>
      </trkpt>
      <trkpt lat="45.65337" lon="3.40759">
        <ele>681.7119141</ele>
        <time>2012-08-23T09:57:16Z</time>
      </trkpt>
      <trkpt lat="45.65337" lon="3.40765">
        <ele>681.2314453</ele>
        <time>2012-08-23T09:57:19Z</time>
      </trkpt>
      <trkpt lat="45.65338" lon="3.40773">
        <ele>681.2314453</ele>
        <time>2012-08-23T09:57:22Z</time>
      </trkpt>
      <trkpt lat="45.65338" lon="3.40781">
        <ele>681.2314453</ele>
        <time>2012-08-23T09:57:25Z</time>
      </trkpt>
      <trkpt lat="45.6534" lon="3.40796">
        <ele>682.192627</ele>
        <time>2012-08-23T09:57:31Z</time>
      </trkpt>
      <trkpt lat="45.65346" lon="3.40809">
        <ele>682.6733398</ele>
        <time>2012-08-23T09:57:37Z</time>
      </trkpt>
      <trkpt lat="45.65355" lon="3.40817">
        <ele>683.6345215</ele>
        <time>2012-08-23T09:57:43Z</time>
      </trkpt>
      <trkpt lat="45.6536" lon="3.40821">
        <ele>684.1154785</ele>
        <time>2012-08-23T09:57:46Z</time>
      </trkpt>
      <trkpt lat="45.65365" lon="3.40823">
        <ele>684.5961914</ele>
        <time>2012-08-23T09:57:49Z</time>
      </trkpt>
      <trkpt lat="45.65367" lon="3.40825">
        <ele>684.5961914</ele>
        <time>2012-08-23T09:57:50Z</time>
      </trkpt>
      <trkpt lat="45.65371" lon="3.40829">
        <ele>686.0380859</ele>
        <time>2012-08-23T09:57:53Z</time>
      </trkpt>
      <trkpt lat="45.65379" lon="3.40833">
        <ele>685.557373</ele>
        <time>2012-08-23T09:57:58Z</time>
      </trkpt>
      <trkpt lat="45.65383" lon="3.40835">
        <ele>686.0380859</ele>
        <time>2012-08-23T09:58:00Z</time>
      </trkpt>
      <trkpt lat="45.65388" lon="3.40838">
        <ele>685.557373</ele>
        <time>2012-08-23T09:58:03Z</time>
      </trkpt>
      <trkpt lat="45.65396" lon="3.40845">
        <ele>685.557373</ele>
        <time>2012-08-23T09:58:08Z</time>
      </trkpt>
      <trkpt lat="45.65404" lon="3.4085">
        <ele>686.0380859</ele>
        <time>2012-08-23T09:58:13Z</time>
      </trkpt>
      <trkpt lat="45.65411" lon="3.40853">
        <ele>685.557373</ele>
        <time>2012-08-23T09:58:17Z</time>
      </trkpt>
      <trkpt lat="45.65425" lon="3.40859">
        <ele>684.5961914</ele>
        <time>2012-08-23T09:58:24Z</time>
      </trkpt>
      <trkpt lat="45.65431" lon="3.40862">
        <ele>684.5961914</ele>
        <time>2012-08-23T09:58:27Z</time>
      </trkpt>
      <trkpt lat="45.65437" lon="3.40867">
        <ele>686.0380859</ele>
        <time>2012-08-23T09:58:32Z</time>
      </trkpt>
      <trkpt lat="45.65447" lon="3.40871">
        <ele>687.9606934</ele>
        <time>2012-08-23T09:58:36Z</time>
      </trkpt>
      <trkpt lat="45.65465" lon="3.40878">
        <ele>689.4025879</ele>
        <time>2012-08-23T09:58:43Z</time>
      </trkpt>
      <trkpt lat="45.65473" lon="3.40884">
        <ele>689.8833008</ele>
        <time>2012-08-23T09:58:47Z</time>
      </trkpt>
      <trkpt lat="45.65487" lon="3.4089">
        <ele>690.3640137</ele>
        <time>2012-08-23T09:58:52Z</time>
      </trkpt>
      <trkpt lat="45.65499" lon="3.40898">
        <ele>689.8833008</ele>
        <time>2012-08-23T09:58:57Z</time>
      </trkpt>
      <trkpt lat="45.65499" lon="3.40904">
        <ele>689.4025879</ele>
        <time>2012-08-23T09:58:59Z</time>
      </trkpt>
      <trkpt lat="45.6549" lon="3.40919">
        <ele>690.8444824</ele>
        <time>2012-08-23T09:59:05Z</time>
      </trkpt>
      <trkpt lat="45.65484" lon="3.40934">
        <ele>691.8059082</ele>
        <time>2012-08-23T09:59:11Z</time>
      </trkpt>
      <trkpt lat="45.6548" lon="3.40949">
        <ele>692.2866211</ele>
        <time>2012-08-23T09:59:16Z</time>
      </trkpt>
      <trkpt lat="45.65477" lon="3.40969">
        <ele>691.8059082</ele>
        <time>2012-08-23T09:59:22Z</time>
      </trkpt>
      <trkpt lat="45.65475" lon="3.40975">
        <ele>691.3251953</ele>
        <time>2012-08-23T09:59:24Z</time>
      </trkpt>
      <trkpt lat="45.65473" lon="3.40981">
        <ele>691.3251953</ele>
        <time>2012-08-23T09:59:26Z</time>
      </trkpt>
      <trkpt lat="45.65472" lon="3.40984">
        <ele>691.3251953</ele>
        <time>2012-08-23T09:59:27Z</time>
      </trkpt>
      <trkpt lat="45.65465" lon="3.41">
        <ele>691.3251953</ele>
        <time>2012-08-23T09:59:33Z</time>
      </trkpt>
      <trkpt lat="45.65461" lon="3.4101">
        <ele>692.2866211</ele>
        <time>2012-08-23T09:59:37Z</time>
      </trkpt>
      <trkpt lat="45.65452" lon="3.41027">
        <ele>694.2092285</ele>
        <time>2012-08-23T09:59:43Z</time>
      </trkpt>
      <trkpt lat="45.65444" lon="3.4104">
        <ele>692.767334</ele>
        <time>2012-08-23T09:59:48Z</time>
      </trkpt>
      <trkpt lat="45.65433" lon="3.41053">
        <ele>690.8444824</ele>
        <time>2012-08-23T09:59:54Z</time>
      </trkpt>
      <trkpt lat="45.65424" lon="3.41065">
        <ele>690.3640137</ele>
        <time>2012-08-23T09:59:59Z</time>
      </trkpt>
      <trkpt lat="45.65414" lon="3.41076">
        <ele>689.4025879</ele>
        <time>2012-08-23T10:00:04Z</time>
      </trkpt>
      <trkpt lat="45.65402" lon="3.41092">
        <ele>691.3251953</ele>
        <time>2012-08-23T10:00:10Z</time>
      </trkpt>
      <trkpt lat="45.65389" lon="3.41113">
        <ele>693.7285156</ele>
        <time>2012-08-23T10:00:17Z</time>
      </trkpt>
      <trkpt lat="45.65378" lon="3.41128">
        <ele>693.7285156</ele>
        <time>2012-08-23T10:00:23Z</time>
      </trkpt>
      <trkpt lat="45.6537" lon="3.4114">
        <ele>692.2866211</ele>
        <time>2012-08-23T10:00:28Z</time>
      </trkpt>
      <trkpt lat="45.65363" lon="3.41149">
        <ele>691.3251953</ele>
        <time>2012-08-23T10:00:32Z</time>
      </trkpt>
      <trkpt lat="45.65354" lon="3.41162">
        <ele>691.3251953</ele>
        <time>2012-08-23T10:00:37Z</time>
      </trkpt>
      <trkpt lat="45.65341" lon="3.41178">
        <ele>690.3640137</ele>
        <time>2012-08-23T10:00:44Z</time>
      </trkpt>
      <trkpt lat="45.65334" lon="3.41193">
        <ele>688.4414063</ele>
        <time>2012-08-23T10:00:49Z</time>
      </trkpt>
      <trkpt lat="45.65333" lon="3.412">
        <ele>687.9606934</ele>
        <time>2012-08-23T10:00:51Z</time>
      </trkpt>
      <trkpt lat="45.65332" lon="3.41225">
        <ele>684.5961914</ele>
        <time>2012-08-23T10:00:58Z</time>
      </trkpt>
      <trkpt lat="45.65334" lon="3.41241">
        <ele>682.6733398</ele>
        <time>2012-08-23T10:01:03Z</time>
      </trkpt>
      <trkpt lat="45.65337" lon="3.41262">
        <ele>680.7507324</ele>
        <time>2012-08-23T10:01:09Z</time>
      </trkpt>
      <trkpt lat="45.65341" lon="3.41275">
        <ele>678.828125</ele>
        <time>2012-08-23T10:01:13Z</time>
      </trkpt>
      <trkpt lat="45.65345" lon="3.41296">
        <ele>675.9440918</ele>
        <time>2012-08-23T10:01:19Z</time>
      </trkpt>
      <trkpt lat="45.65346" lon="3.41303">
        <ele>675.4633789</ele>
        <time>2012-08-23T10:01:21Z</time>
      </trkpt>
      <trkpt lat="45.6535" lon="3.41314">
        <ele>674.5021973</ele>
        <time>2012-08-23T10:01:25Z</time>
      </trkpt>
      <trkpt lat="45.6535" lon="3.4133">
        <ele>671.1376953</ele>
        <time>2012-08-23T10:01:30Z</time>
      </trkpt>
      <trkpt lat="45.65351" lon="3.41338">
        <ele>670.6569824</ele>
        <time>2012-08-23T10:01:33Z</time>
      </trkpt>
      <trkpt lat="45.65353" lon="3.41342">
        <ele>674.0214844</ele>
        <time>2012-08-23T10:01:44Z</time>
      </trkpt>
      <trkpt lat="45.65354" lon="3.41344">
        <ele>675.9440918</ele>
        <time>2012-08-23T10:01:58Z</time>
      </trkpt>
      <trkpt lat="45.65356" lon="3.41355">
        <ele>674.9829102</ele>
        <time>2012-08-23T10:02:02Z</time>
      </trkpt>
      <trkpt lat="45.65356" lon="3.4137">
        <ele>674.0214844</ele>
        <time>2012-08-23T10:02:07Z</time>
      </trkpt>
      <trkpt lat="45.6536" lon="3.41383">
        <ele>672.5795898</ele>
        <time>2012-08-23T10:02:11Z</time>
      </trkpt>
      <trkpt lat="45.65361" lon="3.41387">
        <ele>672.098877</ele>
        <time>2012-08-23T10:02:12Z</time>
      </trkpt>
      <trkpt lat="45.65367" lon="3.41399">
        <ele>669.6958008</ele>
        <time>2012-08-23T10:02:16Z</time>
      </trkpt>
      <trkpt lat="45.65372" lon="3.41411">
        <ele>668.734375</ele>
        <time>2012-08-23T10:02:20Z</time>
      </trkpt>
      <trkpt lat="45.65378" lon="3.41426">
        <ele>666.3308105</ele>
        <time>2012-08-23T10:02:25Z</time>
      </trkpt>
      <trkpt lat="45.65381" lon="3.41436">
        <ele>665.3696289</ele>
        <time>2012-08-23T10:02:28Z</time>
      </trkpt>
      <trkpt lat="45.65386" lon="3.41449">
        <ele>665.3696289</ele>
        <time>2012-08-23T10:02:32Z</time>
      </trkpt>
      <trkpt lat="45.65387" lon="3.41472">
        <ele>665.3696289</ele>
        <time>2012-08-23T10:02:38Z</time>
      </trkpt>
      <trkpt lat="45.65391" lon="3.41486">
        <ele>664.888916</ele>
        <time>2012-08-23T10:02:42Z</time>
      </trkpt>
      <trkpt lat="45.65398" lon="3.41504">
        <ele>662.9663086</ele>
        <time>2012-08-23T10:02:48Z</time>
      </trkpt>
      <trkpt lat="45.65406" lon="3.41513">
        <ele>662.005127</ele>
        <time>2012-08-23T10:02:52Z</time>
      </trkpt>
      <trkpt lat="45.65414" lon="3.41524">
        <ele>660.5629883</ele>
        <time>2012-08-23T10:02:57Z</time>
      </trkpt>
      <trkpt lat="45.65421" lon="3.41539">
        <ele>658.6403809</ele>
        <time>2012-08-23T10:03:02Z</time>
      </trkpt>
      <trkpt lat="45.65422" lon="3.4155">
        <ele>658.1599121</ele>
        <time>2012-08-23T10:03:05Z</time>
      </trkpt>
      <trkpt lat="45.65417" lon="3.41572">
        <ele>655.2758789</ele>
        <time>2012-08-23T10:03:11Z</time>
      </trkpt>
      <trkpt lat="45.65417" lon="3.41576">
        <ele>654.795166</ele>
        <time>2012-08-23T10:03:12Z</time>
      </trkpt>
      <trkpt lat="45.65419" lon="3.41589">
        <ele>653.3532715</ele>
        <time>2012-08-23T10:03:16Z</time>
      </trkpt>
      <trkpt lat="45.65423" lon="3.41605">
        <ele>651.9111328</ele>
        <time>2012-08-23T10:03:21Z</time>
      </trkpt>
      <trkpt lat="45.65424" lon="3.41623">
        <ele>651.4304199</ele>
        <time>2012-08-23T10:03:26Z</time>
      </trkpt>
      <trkpt lat="45.65425" lon="3.41634">
        <ele>650.949707</ele>
        <time>2012-08-23T10:03:29Z</time>
      </trkpt>
      <trkpt lat="45.65431" lon="3.41656">
        <ele>649.5078125</ele>
        <time>2012-08-23T10:03:35Z</time>
      </trkpt>
      <trkpt lat="45.65432" lon="3.41659">
        <ele>649.5078125</ele>
        <time>2012-08-23T10:03:36Z</time>
      </trkpt>
      <trkpt lat="45.65435" lon="3.41678">
        <ele>649.9885254</ele>
        <time>2012-08-23T10:03:42Z</time>
      </trkpt>
      <trkpt lat="45.65435" lon="3.41685">
        <ele>649.9885254</ele>
        <time>2012-08-23T10:03:44Z</time>
      </trkpt>
      <trkpt lat="45.65431" lon="3.41702">
        <ele>649.9885254</ele>
        <time>2012-08-23T10:03:49Z</time>
      </trkpt>
      <trkpt lat="45.65424" lon="3.41725">
        <ele>649.0270996</ele>
        <time>2012-08-23T10:03:55Z</time>
      </trkpt>
      <trkpt lat="45.65416" lon="3.41745">
        <ele>647.5852051</ele>
        <time>2012-08-23T10:04:01Z</time>
      </trkpt>
      <trkpt lat="45.65411" lon="3.41764">
        <ele>647.1044922</ele>
        <time>2012-08-23T10:04:07Z</time>
      </trkpt>
      <trkpt lat="45.6541" lon="3.41778">
        <ele>645.6625977</ele>
        <time>2012-08-23T10:04:12Z</time>
      </trkpt>
      <trkpt lat="45.65409" lon="3.41791">
        <ele>647.5852051</ele>
        <time>2012-08-23T10:04:16Z</time>
      </trkpt>
      <trkpt lat="45.65406" lon="3.41805">
        <ele>649.5078125</ele>
        <time>2012-08-23T10:04:20Z</time>
      </trkpt>
      <trkpt lat="45.65404" lon="3.41821">
        <ele>651.9111328</ele>
        <time>2012-08-23T10:04:25Z</time>
      </trkpt>
      <trkpt lat="45.65397" lon="3.41834">
        <ele>654.795166</ele>
        <time>2012-08-23T10:04:30Z</time>
      </trkpt>
      <trkpt lat="45.65395" lon="3.41843">
        <ele>656.7177734</ele>
        <time>2012-08-23T10:04:32Z</time>
      </trkpt>
      <trkpt lat="45.65393" lon="3.41865">
        <ele>654.795166</ele>
        <time>2012-08-23T10:04:39Z</time>
      </trkpt>
      <trkpt lat="45.65388" lon="3.41885">
        <ele>656.7177734</ele>
        <time>2012-08-23T10:04:45Z</time>
      </trkpt>
      <trkpt lat="45.65385" lon="3.41899">
        <ele>658.1599121</ele>
        <time>2012-08-23T10:04:49Z</time>
      </trkpt>
      <trkpt lat="45.65387" lon="3.41909">
        <ele>655.7565918</ele>
        <time>2012-08-23T10:04:53Z</time>
      </trkpt>
      <trkpt lat="45.65388" lon="3.4192">
        <ele>657.6791992</ele>
        <time>2012-08-23T10:04:58Z</time>
      </trkpt>
      <trkpt lat="45.65388" lon="3.41929">
        <ele>657.1984863</ele>
        <time>2012-08-23T10:05:01Z</time>
      </trkpt>
      <trkpt lat="45.65392" lon="3.41939">
        <ele>657.6791992</ele>
        <time>2012-08-23T10:05:04Z</time>
      </trkpt>
      <trkpt lat="45.654" lon="3.41958">
        <ele>659.6018066</ele>
        <time>2012-08-23T10:05:09Z</time>
      </trkpt>
      <trkpt lat="45.65403" lon="3.41975">
        <ele>656.7177734</ele>
        <time>2012-08-23T10:05:15Z</time>
      </trkpt>
      <trkpt lat="45.65405" lon="3.41988">
        <ele>655.7565918</ele>
        <time>2012-08-23T10:05:19Z</time>
      </trkpt>
      <trkpt lat="45.65408" lon="3.42005">
        <ele>651.9111328</ele>
        <time>2012-08-23T10:05:24Z</time>
      </trkpt>
      <trkpt lat="45.65411" lon="3.4202">
        <ele>649.9885254</ele>
        <time>2012-08-23T10:05:29Z</time>
      </trkpt>
      <trkpt lat="45.65411" lon="3.42027">
        <ele>649.0270996</ele>
        <time>2012-08-23T10:05:31Z</time>
      </trkpt>
      <trkpt lat="45.6541" lon="3.42036">
        <ele>649.5078125</ele>
        <time>2012-08-23T10:05:34Z</time>
      </trkpt>
      <trkpt lat="45.65408" lon="3.42049">
        <ele>650.4692383</ele>
        <time>2012-08-23T10:05:38Z</time>
      </trkpt>
      <trkpt lat="45.65406" lon="3.42056">
        <ele>650.4692383</ele>
        <time>2012-08-23T10:05:40Z</time>
      </trkpt>
      <trkpt lat="45.65406" lon="3.42072">
        <ele>651.4304199</ele>
        <time>2012-08-23T10:05:45Z</time>
      </trkpt>
      <trkpt lat="45.65403" lon="3.42088">
        <ele>653.8339844</ele>
        <time>2012-08-23T10:05:50Z</time>
      </trkpt>
      <trkpt lat="45.65403" lon="3.42093">
        <ele>654.795166</ele>
        <time>2012-08-23T10:05:52Z</time>
      </trkpt>
      <trkpt lat="45.65403" lon="3.42106">
        <ele>656.7177734</ele>
        <time>2012-08-23T10:05:56Z</time>
      </trkpt>
      <trkpt lat="45.65399" lon="3.42123">
        <ele>658.1599121</ele>
        <time>2012-08-23T10:06:02Z</time>
      </trkpt>
      <trkpt lat="45.65399" lon="3.42126">
        <ele>658.6403809</ele>
        <time>2012-08-23T10:06:03Z</time>
      </trkpt>
      <trkpt lat="45.65403" lon="3.42137">
        <ele>657.6791992</ele>
        <time>2012-08-23T10:06:07Z</time>
      </trkpt>
      <trkpt lat="45.65411" lon="3.42155">
        <ele>655.7565918</ele>
        <time>2012-08-23T10:06:13Z</time>
      </trkpt>
      <trkpt lat="45.65414" lon="3.42168">
        <ele>652.8725586</ele>
        <time>2012-08-23T10:06:17Z</time>
      </trkpt>
      <trkpt lat="45.65415" lon="3.42171">
        <ele>652.3918457</ele>
        <time>2012-08-23T10:06:18Z</time>
      </trkpt>
      <trkpt lat="45.65417" lon="3.42175">
        <ele>652.3918457</ele>
        <time>2012-08-23T10:06:19Z</time>
      </trkpt>
      <trkpt lat="45.65422" lon="3.42186">
        <ele>650.4692383</ele>
        <time>2012-08-23T10:06:23Z</time>
      </trkpt>
      <trkpt lat="45.65424" lon="3.42191">
        <ele>650.4692383</ele>
        <time>2012-08-23T10:06:25Z</time>
      </trkpt>
      <trkpt lat="45.65438" lon="3.42204">
        <ele>647.5852051</ele>
        <time>2012-08-23T10:06:31Z</time>
      </trkpt>
      <trkpt lat="45.65445" lon="3.4221">
        <ele>645.1818848</ele>
        <time>2012-08-23T10:06:34Z</time>
      </trkpt>
      <trkpt lat="45.65454" lon="3.42216">
        <ele>644.2207031</ele>
        <time>2012-08-23T10:06:38Z</time>
      </trkpt>
      <trkpt lat="45.65469" lon="3.42226">
        <ele>644.7011719</ele>
        <time>2012-08-23T10:06:45Z</time>
      </trkpt>
      <trkpt lat="45.65477" lon="3.42235">
        <ele>645.1818848</ele>
        <time>2012-08-23T10:06:49Z</time>
      </trkpt>
      <trkpt lat="45.65485" lon="3.42248">
        <ele>644.7011719</ele>
        <time>2012-08-23T10:06:53Z</time>
      </trkpt>
      <trkpt lat="45.65491" lon="3.42261">
        <ele>642.7788086</ele>
        <time>2012-08-23T10:06:58Z</time>
      </trkpt>
      <trkpt lat="45.65499" lon="3.42277">
        <ele>637.972168</ele>
        <time>2012-08-23T10:07:03Z</time>
      </trkpt>
      <trkpt lat="45.65508" lon="3.42292">
        <ele>635.5686035</ele>
        <time>2012-08-23T10:07:08Z</time>
      </trkpt>
      <trkpt lat="45.65516" lon="3.42307">
        <ele>632.2041016</ele>
        <time>2012-08-23T10:07:13Z</time>
      </trkpt>
      <trkpt lat="45.65522" lon="3.42325">
        <ele>631.2429199</ele>
        <time>2012-08-23T10:07:18Z</time>
      </trkpt>
      <trkpt lat="45.65527" lon="3.42342">
        <ele>630.762207</ele>
        <time>2012-08-23T10:07:23Z</time>
      </trkpt>
      <trkpt lat="45.65532" lon="3.4236">
        <ele>630.2814941</ele>
        <time>2012-08-23T10:07:28Z</time>
      </trkpt>
      <trkpt lat="45.65535" lon="3.42371">
        <ele>629.8007813</ele>
        <time>2012-08-23T10:07:31Z</time>
      </trkpt>
      <trkpt lat="45.6554" lon="3.42383">
        <ele>629.3200684</ele>
        <time>2012-08-23T10:07:35Z</time>
      </trkpt>
      <trkpt lat="45.65547" lon="3.42405">
        <ele>630.762207</ele>
        <time>2012-08-23T10:07:41Z</time>
      </trkpt>
      <trkpt lat="45.65552" lon="3.42416">
        <ele>630.762207</ele>
        <time>2012-08-23T10:07:44Z</time>
      </trkpt>
      <trkpt lat="45.6556" lon="3.42428">
        <ele>627.8781738</ele>
        <time>2012-08-23T10:07:48Z</time>
      </trkpt>
      <trkpt lat="45.65564" lon="3.42444">
        <ele>627.8781738</ele>
        <time>2012-08-23T10:07:52Z</time>
      </trkpt>
      <trkpt lat="45.65569" lon="3.42457">
        <ele>627.3977051</ele>
        <time>2012-08-23T10:07:56Z</time>
      </trkpt>
      <trkpt lat="45.65576" lon="3.42474">
        <ele>625.4748535</ele>
        <time>2012-08-23T10:08:01Z</time>
      </trkpt>
      <trkpt lat="45.65584" lon="3.42488">
        <ele>624.032959</ele>
        <time>2012-08-23T10:08:06Z</time>
      </trkpt>
      <trkpt lat="45.65588" lon="3.42501">
        <ele>624.032959</ele>
        <time>2012-08-23T10:08:10Z</time>
      </trkpt>
      <trkpt lat="45.65591" lon="3.42517">
        <ele>624.9943848</ele>
        <time>2012-08-23T10:08:15Z</time>
      </trkpt>
      <trkpt lat="45.65591" lon="3.42521">
        <ele>624.9943848</ele>
        <time>2012-08-23T10:08:16Z</time>
      </trkpt>
      <trkpt lat="45.6559" lon="3.42534">
        <ele>624.9943848</ele>
        <time>2012-08-23T10:08:21Z</time>
      </trkpt>
      <trkpt lat="45.65593" lon="3.42537">
        <ele>626.4362793</ele>
        <time>2012-08-23T10:08:26Z</time>
      </trkpt>
      <trkpt lat="45.65595" lon="3.42538">
        <ele>626.4362793</ele>
        <time>2012-08-23T10:08:28Z</time>
      </trkpt>
      <trkpt lat="45.65606" lon="3.42546">
        <ele>624.9943848</ele>
        <time>2012-08-23T10:08:37Z</time>
      </trkpt>
      <trkpt lat="45.65614" lon="3.4255">
        <ele>624.9943848</ele>
        <time>2012-08-23T10:08:44Z</time>
      </trkpt>
      <trkpt lat="45.65621" lon="3.42551">
        <ele>625.9555664</ele>
        <time>2012-08-23T10:08:49Z</time>
      </trkpt>
      <trkpt lat="45.6563" lon="3.42541">
        <ele>626.4362793</ele>
        <time>2012-08-23T10:08:57Z</time>
      </trkpt>
      <trkpt lat="45.65635" lon="3.42538">
        <ele>626.9169922</ele>
        <time>2012-08-23T10:09:03Z</time>
      </trkpt>
      <trkpt lat="45.65636" lon="3.42538">
        <ele>627.3977051</ele>
        <time>2012-08-23T10:09:04Z</time>
      </trkpt>
      <trkpt lat="45.65645" lon="3.42536">
        <ele>627.8781738</ele>
        <time>2012-08-23T10:09:10Z</time>
      </trkpt>
      <trkpt lat="45.65653" lon="3.4253">
        <ele>628.3588867</ele>
        <time>2012-08-23T10:09:14Z</time>
      </trkpt>
      <trkpt lat="45.6566" lon="3.42521">
        <ele>628.3588867</ele>
        <time>2012-08-23T10:09:18Z</time>
      </trkpt>
      <trkpt lat="45.65665" lon="3.42514">
        <ele>628.3588867</ele>
        <time>2012-08-23T10:09:21Z</time>
      </trkpt>
      <trkpt lat="45.65673" lon="3.42507">
        <ele>629.3200684</ele>
        <time>2012-08-23T10:09:25Z</time>
      </trkpt>
      <trkpt lat="45.65677" lon="3.42501">
        <ele>629.8007813</ele>
        <time>2012-08-23T10:09:28Z</time>
      </trkpt>
      <trkpt lat="45.65683" lon="3.4251">
        <ele>628.3588867</ele>
        <time>2012-08-23T10:09:33Z</time>
      </trkpt>
      <trkpt lat="45.65684" lon="3.42526">
        <ele>628.8395996</ele>
        <time>2012-08-23T10:09:38Z</time>
      </trkpt>
      <trkpt lat="45.65686" lon="3.42545">
        <ele>630.2814941</ele>
        <time>2012-08-23T10:09:45Z</time>
      </trkpt>
      <trkpt lat="45.65687" lon="3.42558">
        <ele>631.2429199</ele>
        <time>2012-08-23T10:09:49Z</time>
      </trkpt>
      <trkpt lat="45.65686" lon="3.42568">
        <ele>631.2429199</ele>
        <time>2012-08-23T10:09:52Z</time>
      </trkpt>
      <trkpt lat="45.65685" lon="3.42578">
        <ele>629.8007813</ele>
        <time>2012-08-23T10:09:56Z</time>
      </trkpt>
      <trkpt lat="45.6568" lon="3.4259">
        <ele>627.3977051</ele>
        <time>2012-08-23T10:10:01Z</time>
      </trkpt>
      <trkpt lat="45.65678" lon="3.42603">
        <ele>626.9169922</ele>
        <time>2012-08-23T10:10:06Z</time>
      </trkpt>
      <trkpt lat="45.65677" lon="3.42619">
        <ele>627.8781738</ele>
        <time>2012-08-23T10:10:11Z</time>
      </trkpt>
      <trkpt lat="45.65676" lon="3.42625">
        <ele>628.3588867</ele>
        <time>2012-08-23T10:10:13Z</time>
      </trkpt>
      <trkpt lat="45.65675" lon="3.4264">
        <ele>629.8007813</ele>
        <time>2012-08-23T10:10:19Z</time>
      </trkpt>
      <trkpt lat="45.65673" lon="3.42656">
        <ele>629.8007813</ele>
        <time>2012-08-23T10:10:25Z</time>
      </trkpt>
      <trkpt lat="45.65674" lon="3.42669">
        <ele>630.2814941</ele>
        <time>2012-08-23T10:10:30Z</time>
      </trkpt>
      <trkpt lat="45.65674" lon="3.42684">
        <ele>630.2814941</ele>
        <time>2012-08-23T10:10:35Z</time>
      </trkpt>
      <trkpt lat="45.65674" lon="3.42695">
        <ele>630.2814941</ele>
        <time>2012-08-23T10:10:39Z</time>
      </trkpt>
      <trkpt lat="45.65675" lon="3.42707">
        <ele>631.2429199</ele>
        <time>2012-08-23T10:10:45Z</time>
      </trkpt>
      <trkpt lat="45.65676" lon="3.42716">
        <ele>630.2814941</ele>
        <time>2012-08-23T10:10:51Z</time>
      </trkpt>
      <trkpt lat="45.65676" lon="3.4272">
        <ele>630.2814941</ele>
        <time>2012-08-23T10:10:53Z</time>
      </trkpt>
      <trkpt lat="45.65677" lon="3.42723">
        <ele>630.762207</ele>
        <time>2012-08-23T10:10:55Z</time>
      </trkpt>
      <trkpt lat="45.65678" lon="3.42737">
        <ele>631.2429199</ele>
        <time>2012-08-23T10:11:02Z</time>
      </trkpt>
      <trkpt lat="45.65677" lon="3.42746">
        <ele>632.6848145</ele>
        <time>2012-08-23T10:11:06Z</time>
      </trkpt>
      <trkpt lat="45.65677" lon="3.42749">
        <ele>633.1652832</ele>
        <time>2012-08-23T10:11:08Z</time>
      </trkpt>
      <trkpt lat="45.65676" lon="3.42761">
        <ele>635.0881348</ele>
        <time>2012-08-23T10:11:14Z</time>
      </trkpt>
      <trkpt lat="45.65677" lon="3.42771">
        <ele>637.972168</ele>
        <time>2012-08-23T10:11:19Z</time>
      </trkpt>
      <trkpt lat="45.65677" lon="3.42779">
        <ele>638.4528809</ele>
        <time>2012-08-23T10:11:23Z</time>
      </trkpt>
      <trkpt lat="45.65677" lon="3.42791">
        <ele>638.4528809</ele>
        <time>2012-08-23T10:11:30Z</time>
      </trkpt>
      <trkpt lat="45.65677" lon="3.42793">
        <ele>638.9335938</ele>
        <time>2012-08-23T10:11:31Z</time>
      </trkpt>
      <trkpt lat="45.65678" lon="3.42805">
        <ele>642.7788086</ele>
        <time>2012-08-23T10:11:37Z</time>
      </trkpt>
      <trkpt lat="45.65679" lon="3.42817">
        <ele>647.5852051</ele>
        <time>2012-08-23T10:11:42Z</time>
      </trkpt>
      <trkpt lat="45.65681" lon="3.42828">
        <ele>648.5463867</ele>
        <time>2012-08-23T10:11:47Z</time>
      </trkpt>
      <trkpt lat="45.65681" lon="3.4283">
        <ele>649.0270996</ele>
        <time>2012-08-23T10:11:48Z</time>
      </trkpt>
      <trkpt lat="45.6568" lon="3.42838">
        <ele>649.9885254</ele>
        <time>2012-08-23T10:11:51Z</time>
      </trkpt>
      <trkpt lat="45.65677" lon="3.42853">
        <ele>650.949707</ele>
        <time>2012-08-23T10:11:56Z</time>
      </trkpt>
      <trkpt lat="45.65677" lon="3.42856">
        <ele>650.949707</ele>
        <time>2012-08-23T10:11:57Z</time>
      </trkpt>
      <trkpt lat="45.65676" lon="3.42862">
        <ele>651.9111328</ele>
        <time>2012-08-23T10:11:59Z</time>
      </trkpt>
      <trkpt lat="45.65676" lon="3.42875">
        <ele>651.9111328</ele>
        <time>2012-08-23T10:12:03Z</time>
      </trkpt>
      <trkpt lat="45.65676" lon="3.42884">
        <ele>651.9111328</ele>
        <time>2012-08-23T10:12:06Z</time>
      </trkpt>
      <trkpt lat="45.65676" lon="3.42898">
        <ele>651.9111328</ele>
        <time>2012-08-23T10:12:11Z</time>
      </trkpt>
      <trkpt lat="45.65675" lon="3.42918">
        <ele>652.3918457</ele>
        <time>2012-08-23T10:12:17Z</time>
      </trkpt>
      <trkpt lat="45.65672" lon="3.42938">
        <ele>650.949707</ele>
        <time>2012-08-23T10:12:23Z</time>
      </trkpt>
      <trkpt lat="45.65668" lon="3.42948">
        <ele>649.9885254</ele>
        <time>2012-08-23T10:12:28Z</time>
      </trkpt>
      <trkpt lat="45.65665" lon="3.42963">
        <ele>647.1044922</ele>
        <time>2012-08-23T10:12:33Z</time>
      </trkpt>
      <trkpt lat="45.65658" lon="3.42984">
        <ele>645.6625977</ele>
        <time>2012-08-23T10:12:39Z</time>
      </trkpt>
      <trkpt lat="45.65656" lon="3.42991">
        <ele>645.6625977</ele>
        <time>2012-08-23T10:12:41Z</time>
      </trkpt>
      <trkpt lat="45.65648" lon="3.43004">
        <ele>644.7011719</ele>
        <time>2012-08-23T10:12:45Z</time>
      </trkpt>
      <trkpt lat="45.65641" lon="3.43016">
        <ele>644.2207031</ele>
        <time>2012-08-23T10:12:49Z</time>
      </trkpt>
      <trkpt lat="45.65633" lon="3.43027">
        <ele>643.7399902</ele>
        <time>2012-08-23T10:12:53Z</time>
      </trkpt>
      <trkpt lat="45.65627" lon="3.43036">
        <ele>641.3366699</ele>
        <time>2012-08-23T10:12:56Z</time>
      </trkpt>
      <trkpt lat="45.65617" lon="3.43047">
        <ele>638.9335938</ele>
        <time>2012-08-23T10:13:01Z</time>
      </trkpt>
      <trkpt lat="45.65609" lon="3.43055">
        <ele>637.0107422</ele>
        <time>2012-08-23T10:13:05Z</time>
      </trkpt>
      <trkpt lat="45.65612" lon="3.43074">
        <ele>634.126709</ele>
        <time>2012-08-23T10:13:10Z</time>
      </trkpt>
      <trkpt lat="45.65617" lon="3.43091">
        <ele>631.2429199</ele>
        <time>2012-08-23T10:13:14Z</time>
      </trkpt>
      <trkpt lat="45.65618" lon="3.431">
        <ele>630.2814941</ele>
        <time>2012-08-23T10:13:16Z</time>
      </trkpt>
      <trkpt lat="45.65616" lon="3.43129">
        <ele>629.3200684</ele>
        <time>2012-08-23T10:13:22Z</time>
      </trkpt>
      <trkpt lat="45.65614" lon="3.43141">
        <ele>630.2814941</ele>
        <time>2012-08-23T10:13:25Z</time>
      </trkpt>
      <trkpt lat="45.6561" lon="3.43164">
        <ele>630.762207</ele>
        <time>2012-08-23T10:13:30Z</time>
      </trkpt>
      <trkpt lat="45.65603" lon="3.43189">
        <ele>630.762207</ele>
        <time>2012-08-23T10:13:36Z</time>
      </trkpt>
      <trkpt lat="45.656" lon="3.43206">
        <ele>630.2814941</ele>
        <time>2012-08-23T10:13:40Z</time>
      </trkpt>
      <trkpt lat="45.65597" lon="3.43223">
        <ele>629.8007813</ele>
        <time>2012-08-23T10:13:44Z</time>
      </trkpt>
      <trkpt lat="45.65595" lon="3.43236">
        <ele>629.3200684</ele>
        <time>2012-08-23T10:13:47Z</time>
      </trkpt>
      <trkpt lat="45.65592" lon="3.43243">
        <ele>628.8395996</ele>
        <time>2012-08-23T10:13:49Z</time>
      </trkpt>
      <trkpt lat="45.65587" lon="3.43261">
        <ele>628.3588867</ele>
        <time>2012-08-23T10:13:54Z</time>
      </trkpt>
      <trkpt lat="45.65583" lon="3.4328">
        <ele>627.8781738</ele>
        <time>2012-08-23T10:13:59Z</time>
      </trkpt>
      <trkpt lat="45.65578" lon="3.43297">
        <ele>624.9943848</ele>
        <time>2012-08-23T10:14:04Z</time>
      </trkpt>
      <trkpt lat="45.65573" lon="3.43313">
        <ele>623.0717773</ele>
        <time>2012-08-23T10:14:09Z</time>
      </trkpt>
      <trkpt lat="45.65567" lon="3.43332">
        <ele>622.1103516</ele>
        <time>2012-08-23T10:14:14Z</time>
      </trkpt>
      <trkpt lat="45.65561" lon="3.43351">
        <ele>622.1103516</ele>
        <time>2012-08-23T10:14:19Z</time>
      </trkpt>
      <trkpt lat="45.65559" lon="3.43377">
        <ele>621.1491699</ele>
        <time>2012-08-23T10:14:26Z</time>
      </trkpt>
      <trkpt lat="45.65555" lon="3.43393">
        <ele>620.1877441</ele>
        <time>2012-08-23T10:14:31Z</time>
      </trkpt>
      <trkpt lat="45.65554" lon="3.43397">
        <ele>620.1877441</ele>
        <time>2012-08-23T10:14:32Z</time>
      </trkpt>
      <trkpt lat="45.65552" lon="3.43402">
        <ele>620.668457</ele>
        <time>2012-08-23T10:14:35Z</time>
      </trkpt>
      <trkpt lat="45.65547" lon="3.43412">
        <ele>620.1877441</ele>
        <time>2012-08-23T10:14:39Z</time>
      </trkpt>
      <trkpt lat="45.65544" lon="3.43426">
        <ele>620.668457</ele>
        <time>2012-08-23T10:14:43Z</time>
      </trkpt>
      <trkpt lat="45.65536" lon="3.4345">
        <ele>621.1491699</ele>
        <time>2012-08-23T10:14:50Z</time>
      </trkpt>
      <trkpt lat="45.65531" lon="3.43462">
        <ele>620.668457</ele>
        <time>2012-08-23T10:14:54Z</time>
      </trkpt>
      <trkpt lat="45.65525" lon="3.43473">
        <ele>623.5524902</ele>
        <time>2012-08-23T10:14:58Z</time>
      </trkpt>
    </trkseg>
  </trk>
</gpx>